[[{"header":{"parameterUnit":"m.s-1","parameterCategory":1,"la1":31.0,"la2":29.5877,"lo1":-88.7671,"lo2":-86.6584,"dy":0.0162,"dx":0.0185,"nx":115,"ny":88,"refTime":"2024-06-01T12:00:00:Z","depth":0,"parameterNumber":2,"parameterNumberName":"U-component_of_WINDS"},"data":[0.0,0.0,0.0,0.0,0.0,0.0,0.0,0.0,0.0,0.0,0.0,0.0,0.0,0.0,0.0,0.0,0.0,0.0,0.0,0.0,0.0,0.0,0.0,0.0,0.0,0.0,0.0,0.0,0.0,0.0,0.0,0.0,0.0,0.0,0.0,0.0,0.0,0.0,0.0,0.0,0.0,0.0,0.0,0.0,0.0,0.0,0.0,0.0,0.0,0.0,0.0,0.0,0.0,0.0,0.0,0.0,0.0,0.0,0.0,0.0,0.0,0.0,0.0,0.0,0.0,0.0,0.0,0.0,0.0,0.0,0.0,0.0,0.0,0.0,0.0,0.0,0.0,0.0,0.0,0.0,0.0,0.0,0.0,0.0,0.0,0.0,0.0,0.0,0.0,0.0,0.0,0.0,0.0,0.0,0.0,0.0,0.0,0.0,0.0,0.0,0.0,0.0,0.0,0.0,0.0,0.0,0.0,0.0,0.0,0.0,0.0,0.0,0.0,0.0,0.0,0.0,0.0,0.0,0.0,0.0,0.0,0.0,0.0,0.0,0.0,0.0,0.0,0.0,0.0,0.0,0.0,0.0,0.0,0.0,0.0,0.0,0.0,0.0,0.0,0.0,0.0,0.0,0.0,0.0,0.0,0.0,0.0,0.0,0.0,0.0,0.0,0.0,0.0,0.0,0.0,0.0,0.0,0.0,0.0,0.0,0.0,0.0,0.0,0.0,0.0,0.0,0.0,0.0,0.0,0.0,0.0,0.0,0.0,0.0,0.0,0.0,0.0,0.0,0.0,0.0,0.0,0.0,0.0,0.0,0.0,0.0,0.0,0.0,0.0,0.0,0.0,0.0,0.0,0.0,0.0,0.0,0.0,0.0,0.0,0.0,0.0,0.0,0.0,0.0,0.0,0.0,0.0,0.0,0.0,0.0,0.0,0.0,0.0,0.0,0.0,0.0,0.0,0.0,0.0,0.0,0.0,0.0,0.0,0.0,0.0,0.0,0.0,0.0,0.0,0.0,0.0,0.0,0.0,0.0,0.0,0.0,0.0,0.0,0.0,0.0,0.0,0.0,0.0,0.0,0.0,0.0,0.0,0.0,0.0,0.0,0.0,0.0,0.0,0.0,0.0,0.0,0.0,0.0,0.0,0.0,0.0,0.0,0.0,0.0,0.0,0.0,0.0,0.0,0.0,0.0,0.0,0.0,0.0,0.0,0.0,0.0,0.0,0.0,0.0,0.0,0.0,0.0,0.0,0.0,0.0,0.0,0.0,0.0,0.0,0.0,0.0,0.0,0.0,0.0,0.0,0.0,0.0,0.0,0.0,0.0,0.0,0.0,0.0,0.0,0.0,0.0,0.0,0.0,0.0,0.0,0.0,0.0,0.0,0.0,0.0,0.0,0.0,0.0,0.0,0.0,0.0,0.0,0.0,0.0,0.0,0.0,0.0,0.0,0.0,0.0,0.0,0.0,0.0,0.0,0.0,0.0,0.0,0.0,0.0,0.0,0.0,0.0,0.0,0.0,0.0,0.0,0.0,0.0,0.0,0.0,0.0,0.0,0.0,0.0,0.0,0.0,0.0,0.0,0.0,0.0,0.0,0.0,0.0,0.0,0.0,0.0,0.0,0.0,0.0,0.0,0.0,0.0,0.0,0.0,0.0,0.0,0.0,0.0,0.0,0.0,0.0,0.0,0.0,0.0,0.0,0.0,0.0,0.0,0.0,0.0,0.0,0.0,0.0,0.0,0.0,0.0,0.0,0.0,0.0,0.0,0.0,0.0,0.0,0.0,0.0,0.0,0.0,0.0,0.0,0.0,0.0,0.0,0.0,0.0,0.0,0.0,0.0,0.0,0.0,0.0,0.0,0.0,0.0,0.0,0.0,0.0,0.0,0.0,0.0,0.0,0.0,0.0,0.0,0.0,0.0,0.0,0.0,0.0,0.0,0.0,0.0,0.0,0.0,0.0,0.0,0.0,0.0,0.0,0.0,0.0,0.0,0.0,0.0,0.0,0.0,0.0,0.0,0.0,0.0,0.0,0.0,0.0,0.0,0.0,0.0,0.0,0.0,0.0,0.0,0.0,0.0,0.0,0.0,0.0,0.0,0.0,0.0,0.0,0.0,0.0,0.0,0.0,0.0,0.0,0.0,0.0,0.0,0.0,0.0,0.0,0.0,0.0,0.0,0.0,0.0,0.0,0.0,0.0,0.0,0.0,0.0,0.0,0.0,0.0,0.0,0.0,0.0,0.0,0.0,0.0,0.0,0.0,0.0,0.0,0.0,0.0,0.0,0.0,0.0,0.0,0.0,0.0,0.0,0.0,0.0,0.0,0.0,0.0,0.0,0.0,0.0,0.0,0.0,0.0,0.0,0.0,0.0,0.0,0.0,0.0,0.0,0.0,0.0,0.0,0.0,0.0,0.0,0.0,0.0,0.0,0.0,0.0,0.0,0.0,0.0,0.0,0.0,0.0,0.0,0.0,0.0,0.0,0.0,0.0,0.0,0.0,0.0,0.0,0.0,0.0,0.0,0.0,0.0,0.0,0.0,0.0,0.0,0.0,0.0,0.0,0.0,0.0,0.0,0.0,0.0,0.0,0.0,0.0,0.0,0.0,0.0,0.0,0.0,0.0,0.0,0.0,0.0,0.0,0.0,0.0,0.0,0.0,0.0,0.0,0.0,0.0,0.0,0.0,0.0,0.0,0.0,0.0,0.0,0.0,0.0,0.0,0.0,0.0,0.0,0.0,0.0,0.0,0.0,0.0,0.0,0.0,0.0,0.0,0.0,0.0,0.0,0.0,0.0,0.0,0.0,0.0,0.0,0.0,0.0,0.0,0.0,0.0,0.0,0.0,0.0,0.0,0.0,0.0,0.0,0.0,0.0,0.0,0.0,0.0,0.0,0.0,0.0,0.0,0.0,0.0,0.0,0.0,0.0,0.0,0.0,0.0,0.0,0.0,0.0,0.0,0.0,0.0,0.0,0.0,0.0,0.0,0.0,0.0,0.0,0.0,0.0,0.0,0.0,0.0,0.0,0.0,0.0,0.0,0.0,0.0,0.0,0.0,0.0,0.0,0.0,0.0,0.0,0.0,0.0,0.0,0.0,0.0,0.0,0.0,0.0,0.0,0.0,0.0,0.0,0.0,0.0,0.0,0.0,0.0,0.0,0.0,0.0,0.0,0.0,0.0,0.0,0.0,0.0,0.0,0.0,0.0,0.0,0.0,0.0,0.0,0.0,0.0,0.0,0.0,0.0,0.0,0.0,0.0,0.0,0.0,0.0,0.0,0.0,0.0,0.0,0.0,0.0,0.0,0.0,0.0,0.0,0.0,0.0,0.0,0.0,0.0,0.0,0.0,0.0,0.0,0.0,0.0,0.0,0.0,0.0,0.0,0.0,0.0,0.0,0.0,0.0,0.0,0.0,0.0,0.0,0.0,0.0,0.0,0.0,0.0,0.0,0.0,0.0,0.0,0.0,0.0,0.0,0.0,0.0,0.0,0.0,0.0,0.0,0.0,0.0,0.0,0.0,0.0,0.0,0.0,0.0,0.0,0.0,0.0,0.0,0.0,0.0,0.0,0.0,0.0,0.0,0.0,0.0,0.0,0.0,0.0,0.0,0.0,0.0,0.0,0.0,0.0,0.0,0.0,0.0,0.0,0.0,0.0,0.0,0.0,0.0,0.0,0.0,0.0,0.0,0.0,0.0,0.0,0.0,0.0,0.0,0.0,0.0,0.0,0.0,0.0,0.0,0.0,0.0,0.0,0.0,0.0,0.0,0.0,0.0,0.0,0.0,0.0,0.0,0.0,0.0,0.0,0.0,0.0,0.0,0.0,0.0,0.0,0.0,0.0,0.0,0.0,0.0,0.0,0.0,0.0,0.0,0.0,0.0,0.0,0.0,0.0,0.0,0.0,0.0,0.0,0.0,0.0,0.0,0.0,0.0,0.0,0.0,0.0,0.0,0.0,0.0,0.0,0.0,0.0,0.0,0.0,0.0,0.0,0.0,0.0,0.0,0.0,0.0,0.0,0.0,0.0,0.0,0.0,0.0,0.0,0.0,0.0,0.0,0.0,0.0,0.0,0.0,0.0,0.0,0.0,0.0,0.0,0.0,0.0,0.0,0.0,0.0,0.0,0.0,0.0,0.0,0.0,0.0,0.0,0.0,0.0,0.0,0.0,0.0,0.0,0.0,0.0,0.0,0.0,0.0,0.0,0.0,0.0,0.0,0.0,0.0,0.0,0.0,0.0,0.0,0.0,0.0,0.0,0.0,0.0,-1.9049,0.0,0.0,0.0,0.0,0.0,0.0,0.0,0.0,0.0,0.0,0.0,0.0,0.0,0.0,0.0,0.0,0.0,0.0,0.0,0.0,0.0,0.0,0.0,0.0,0.0,0.0,0.0,0.0,0.0,0.0,0.0,0.0,0.0,0.0,0.0,0.0,0.0,0.0,0.0,0.0,0.0,0.0,0.0,0.0,0.0,0.0,0.0,0.0,0.0,0.0,0.0,0.0,0.0,0.0,0.0,0.0,0.0,0.0,0.0,0.0,0.0,0.0,0.0,0.0,0.0,0.0,0.0,0.0,0.0,0.0,0.0,0.0,0.0,0.0,0.0,0.0,0.0,0.0,0.0,0.0,0.0,0.0,0.0,0.0,0.0,0.0,0.0,0.0,0.0,0.0,0.0,0.0,0.0,0.0,0.0,0.0,0.0,0.0,0.0,0.0,0.0,0.0,0.0,0.0,0.0,0.0,0.0,0.0,0.0,0.0,-2.0288,-2.0288,-2.0288,-2.0096,-1.9735,0.0,0.0,0.0,0.0,0.0,0.0,0.0,0.0,0.0,0.0,0.0,0.0,0.0,0.0,0.0,0.0,0.0,0.0,0.0,0.0,0.0,0.0,0.0,0.0,0.0,0.0,0.0,0.0,0.0,0.0,0.0,0.0,0.0,0.0,0.0,0.0,0.0,0.0,0.0,0.0,0.0,0.0,0.0,0.0,0.0,0.0,0.0,0.0,0.0,0.0,0.0,0.0,0.0,0.0,0.0,0.0,0.0,0.0,0.0,0.0,0.0,0.0,0.0,0.0,0.0,0.0,0.0,0.0,0.0,0.0,0.0,0.0,0.0,0.0,0.0,0.0,0.0,0.0,0.0,0.0,0.0,0.0,0.0,0.0,0.0,0.0,0.0,0.0,0.0,0.0,0.0,0.0,0.0,0.0,0.0,0.0,0.0,0.0,0.0,0.0,0.0,0.0,0.0,0.0,0.0,0.0,0.0,0.0,0.0,0.0,0.0,0.0,-2.0865,-2.0769,-2.0592,0.0,0.0,0.0,0.0,0.0,0.0,0.0,0.0,0.0,0.0,0.0,0.0,0.0,0.0,0.0,0.0,0.0,0.0,0.0,0.0,0.0,0.0,0.0,0.0,0.0,0.0,0.0,0.0,0.0,0.0,0.0,0.0,0.0,0.0,0.0,0.0,0.0,0.0,0.0,0.0,0.0,0.0,0.0,0.0,0.0,0.0,0.0,0.0,0.0,0.0,0.0,0.0,0.0,0.0,0.0,0.0,0.0,0.0,0.0,0.0,0.0,0.0,0.0,0.0,0.0,0.0,0.0,0.0,0.0,0.0,0.0,0.0,0.0,0.0,0.0,0.0,0.0,0.0,0.0,0.0,0.0,0.0,0.0,0.0,0.0,0.0,0.0,0.0,0.0,0.0,0.0,0.0,0.0,0.0,0.0,0.0,0.0,0.0,0.0,0.0,0.0,0.0,0.0,0.0,0.0,0.0,0.0,0.0,0.0,0.0,-2.1019,-2.2524,-2.2547,0.0,-2.1449,0.0,0.0,0.0,0.0,0.0,0.0,0.0,0.0,0.0,0.0,0.0,0.0,0.0,0.0,0.0,0.0,0.0,0.0,0.0,0.0,0.0,0.0,0.0,0.0,0.0,0.0,0.0,0.0,0.0,0.0,0.0,0.0,0.0,0.0,0.0,0.0,0.0,0.0,0.0,0.0,0.0,0.0,0.0,0.0,0.0,0.0,0.0,0.0,0.0,0.0,0.0,0.0,0.0,0.0,0.0,0.0,0.0,0.0,0.0,0.0,0.0,0.0,0.0,0.0,0.0,0.0,0.0,0.0,0.0,0.0,0.0,0.0,0.0,0.0,0.0,0.0,0.0,0.0,0.0,0.0,0.0,0.0,0.0,0.0,0.0,0.0,0.0,0.0,0.0,0.0,0.0,0.0,0.0,0.0,0.0,0.0,0.0,0.0,0.0,0.0,0.0,0.0,0.0,0.0,0.0,0.0,0.0,0.0,0.0,0.0,0.0,-2.2797,-2.2293,-2.1865,0.0,0.0,0.0,0.0,0.0,0.0,0.0,0.0,0.0,0.0,0.0,0.0,0.0,0.0,0.0,0.0,0.0,0.0,0.0,0.0,0.0,0.0,0.0,0.0,0.0,0.0,0.0,0.0,0.0,0.0,0.0,0.0,0.0,0.0,0.0,0.0,0.0,0.0,0.0,0.0,0.0,0.0,0.0,0.0,0.0,0.0,0.0,0.0,0.0,0.0,0.0,0.0,0.0,0.0,0.0,0.0,0.0,0.0,0.0,0.0,0.0,0.0,0.0,0.0,0.0,0.0,0.0,0.0,0.0,0.0,0.0,0.0,0.0,0.0,0.0,0.0,0.0,0.0,0.0,0.0,0.0,0.0,0.0,0.0,0.0,0.0,0.0,0.0,0.0,0.0,0.0,0.0,0.0,0.0,0.0,0.0,0.0,0.0,0.0,0.0,0.0,0.0,0.0,0.0,0.0,0.0,0.0,0.0,0.0,0.0,-2.2427,0.0,-2.3428,-2.287,-2.2111,-2.1176,0.0,0.0,0.0,0.0,0.0,0.0,0.0,0.0,0.0,0.0,0.0,0.0,0.0,0.0,0.0,0.0,0.0,0.0,0.0,0.0,0.0,0.0,0.0,0.0,0.0,0.0,0.0,0.0,0.0,0.0,0.0,0.0,0.0,0.0,0.0,0.0,0.0,0.0,0.0,0.0,0.0,0.0,0.0,0.0,0.0,0.0,0.0,0.0,0.0,0.0,0.0,0.0,0.0,0.0,0.0,0.0,0.0,0.0,0.0,0.0,0.0,0.0,0.0,0.0,0.0,0.0,0.0,0.0,0.0,0.0,0.0,0.0,0.0,0.0,0.0,0.0,0.0,0.0,0.0,0.0,0.0,0.0,0.0,0.0,0.0,0.0,0.0,0.0,0.0,0.0,0.0,0.0,0.0,0.0,0.0,0.0,0.0,0.0,0.0,0.0,0.0,0.0,0.0,0.0,0.0,0.0,0.0,0.0,0.0,-2.3543,-2.3581,-2.5135,-2.5115,-2.3611,0.0,0.0,0.0,0.0,0.0,0.0,0.0,0.0,0.0,0.0,0.0,0.0,0.0,0.0,0.0,0.0,0.0,0.0,0.0,0.0,0.0,0.0,0.0,0.0,0.0,0.0,0.0,0.0,0.0,0.0,0.0,0.0,0.0,0.0,0.0,0.0,0.0,0.0,0.0,0.0,0.0,0.0,0.0,0.0,0.0,0.0,0.0,0.0,0.0,0.0,0.0,0.0,0.0,0.0,0.0,0.0,0.0,0.0,0.0,0.0,0.0,0.0,0.0,0.0,0.0,0.0,0.0,0.0,0.0,0.0,0.0,0.0,0.0,0.0,0.0,0.0,0.0,0.0,0.0,0.0,0.0,0.0,0.0,0.0,0.0,0.0,0.0,0.0,0.0,0.0,0.0,0.0,0.0,0.0,0.0,0.0,0.0,0.0,0.0,0.0,0.0,0.0,0.0,0.0,0.0,0.0,0.0,0.0,0.0,-2.2058,-2.2543,-2.4144,0.0,-2.3827,-2.2011,0.0,0.0,0.0,0.0,0.0,0.0,0.0,0.0,0.0,0.0,0.0,0.0,0.0,0.0,0.0,0.0,0.0,0.0,0.0,0.0,0.0,0.0,0.0,0.0,0.0,0.0,0.0,0.0,0.0,0.0,0.0,0.0,0.0,0.0,0.0,0.0,0.0,0.0,0.0,0.0,0.0,0.0,0.0,0.0,0.0,0.0,0.0,0.0,0.0,0.0,0.0,0.0,0.0,0.0,0.0,0.0,0.0,0.0,0.0,0.0,0.0,0.0,0.0,0.0,0.0,0.0,0.0,0.0,0.0,0.0,0.0,0.0,0.0,0.0,0.0,0.0,0.0,0.0,0.0,0.0,0.0,0.0,0.0,0.0,0.0,0.0,0.0,0.0,0.0,0.0,0.0,0.0,0.0,0.0,0.0,0.0,0.0,0.0,0.0,0.0,0.0,0.0,0.0,0.0,0.0,0.0,0.0,0.0,0.0,-2.1904,0.0,-2.5313,0.0,-2.349,-2.1419,0.0,0.0,0.0,0.0,0.0,0.0,0.0,0.0,0.0,0.0,0.0,0.0,0.0,0.0,0.0,0.0,0.0,0.0,0.0,0.0,0.0,0.0,0.0,0.0,0.0,0.0,0.0,0.0,0.0,0.0,0.0,0.0,0.0,0.0,0.0,0.0,0.0,0.0,0.0,0.0,0.0,0.0,0.0,0.0,0.0,0.0,0.0,0.0,0.0,0.0,0.0,0.0,0.0,0.0,0.0,0.0,0.0,0.0,0.0,0.0,0.0,0.0,0.0,0.0,0.0,0.0,0.0,0.0,0.0,0.0,0.0,0.0,0.0,0.0,0.0,0.0,0.0,0.0,0.0,0.0,0.0,0.0,0.0,0.0,0.0,0.0,0.0,0.0,0.0,0.0,0.0,0.0,0.0,0.0,0.0,0.0,0.0,0.0,0.0,0.0,0.0,0.0,0.0,0.0,0.0,0.0,0.0,0.0,-2.1938,-2.5096,-2.6813,-2.6909,-2.5404,-2.4428,-2.2047,0.0,0.0,0.0,0.0,0.0,0.0,0.0,0.0,0.0,0.0,0.0,0.0,0.0,0.0,0.0,0.0,0.0,0.0,0.0,0.0,0.0,0.0,0.0,0.0,0.0,0.0,0.0,0.0,0.0,0.0,0.0,0.0,0.0,0.0,0.0,0.0,0.0,0.0,0.0,0.0,0.0,0.0,0.0,0.0,0.0,0.0,0.0,0.0,0.0,0.0,0.0,0.0,0.0,0.0,0.0,0.0,0.0,0.0,0.0,0.0,0.0,0.0,0.0,0.0,0.0,0.0,0.0,0.0,0.0,0.0,0.0,0.0,0.0,0.0,0.0,0.0,0.0,0.0,0.0,0.0,0.0,0.0,0.0,0.0,0.0,0.0,0.0,0.0,0.0,0.0,0.0,0.0,0.0,0.0,0.0,0.0,0.0,0.0,0.0,0.0,0.0,0.0,0.0,0.0,0.0,0.0,0.0,0.0,0.0,-2.3601,-2.5212,-2.6428,-2.6967,-2.3966,-2.2231,0.0,0.0,0.0,0.0,0.0,0.0,0.0,0.0,0.0,0.0,0.0,0.0,0.0,0.0,0.0,0.0,0.0,0.0,0.0,0.0,0.0,0.0,0.0,0.0,0.0,0.0,0.0,0.0,0.0,0.0,0.0,0.0,0.0,0.0,0.0,0.0,0.0,0.0,0.0,0.0,0.0,0.0,0.0,0.0,0.0,0.0,0.0,0.0,0.0,0.0,0.0,0.0,0.0,0.0,0.0,0.0,0.0,0.0,0.0,0.0,0.0,0.0,0.0,0.0,0.0,0.0,0.0,0.0,0.0,0.0,0.0,0.0,0.0,0.0,0.0,0.0,0.0,0.0,0.0,0.0,0.0,0.0,0.0,0.0,0.0,0.0,0.0,0.0,0.0,0.0,0.0,0.0,0.0,0.0,0.0,0.0,0.0,0.0,0.0,0.0,0.0,0.0,0.0,0.0,0.0,0.0,0.0,0.0,0.0,-2.5183,-2.6486,-2.7404,-2.789,-2.4341,-2.2621,-2.2954,0.0,0.0,0.0,0.0,0.0,0.0,0.0,0.0,0.0,0.0,0.0,0.0,0.0,0.0,0.0,0.0,0.0,0.0,0.0,0.0,0.0,0.0,0.0,0.0,0.0,0.0,0.0,0.0,0.0,0.0,0.0,0.0,0.0,0.0,0.0,0.0,0.0,0.0,0.0,0.0,0.0,0.0,0.0,0.0,0.0,0.0,0.0,0.0,0.0,0.0,0.0,0.0,0.0,0.0,0.0,0.0,0.0,0.0,0.0,0.0,0.0,0.0,0.0,0.0,0.0,0.0,0.0,0.0,0.0,0.0,0.0,0.0,0.0,0.0,0.0,0.0,0.0,0.0,0.0,0.0,0.0,0.0,0.0,0.0,0.0,0.0,0.0,0.0,0.0,0.0,0.0,0.0,0.0,0.0,0.0,0.0,0.0,0.0,0.0,0.0,0.0,0.0,0.0,0.0,0.0,0.0,0.0,0.0,-2.8992,-3.0025,-2.9769,-2.8184,-2.5605,-2.3434,0.0,0.0,0.0,0.0,0.0,0.0,0.0,0.0,0.0,0.0,0.0,0.0,0.0,0.0,0.0,0.0,0.0,0.0,0.0,0.0,0.0,0.0,0.0,0.0,0.0,0.0,0.0,0.0,0.0,0.0,0.0,0.0,0.0,0.0,0.0,0.0,0.0,0.0,0.0,0.0,0.0,0.0,0.0,0.0,0.0,0.0,0.0,0.0,0.0,0.0,0.0,0.0,0.0,0.0,0.0,0.0,0.0,0.0,0.0,0.0,0.0,0.0,0.0,0.0,0.0,0.0,0.0,0.0,0.0,0.0,0.0,0.0,0.0,0.0,0.0,0.0,0.0,0.0,0.0,0.0,0.0,0.0,0.0,0.0,0.0,0.0,0.0,0.0,0.0,0.0,0.0,0.0,0.0,0.0,0.0,0.0,0.0,0.0,0.0,0.0,0.0,0.0,0.0,0.0,0.0,0.0,0.0,0.0,0.0,-2.8217,-3.0852,-3.1756,-3.0698,-2.8217,-2.6062,0.0,0.0,0.0,0.0,0.0,0.0,0.0,0.0,0.0,0.0,0.0,0.0,0.0,0.0,0.0,0.0,0.0,0.0,0.0,0.0,0.0,0.0,0.0,0.0,0.0,0.0,0.0,0.0,0.0,0.0,0.0,0.0,0.0,0.0,0.0,0.0,0.0,0.0,0.0,0.0,0.0,0.0,0.0,0.0,0.0,0.0,0.0,0.0,0.0,0.0,0.0,0.0,0.0,0.0,0.0,0.0,0.0,0.0,0.0,0.0,0.0,0.0,0.0,0.0,0.0,0.0,0.0,0.0,0.0,0.0,0.0,0.0,0.0,0.0,0.0,0.0,0.0,0.0,0.0,0.0,0.0,0.0,0.0,0.0,0.0,0.0,0.0,0.0,0.0,0.0,0.0,0.0,0.0,0.0,0.0,0.0,0.0,0.0,0.0,0.0,0.0,0.0,0.0,0.0,0.0,0.0,0.0,0.0,-2.7717,-2.9967,-3.2262,-3.3045,-3.2237,-2.9731,-2.7421,0.0,0.0,0.0,0.0,0.0,0.0,0.0,0.0,0.0,0.0,0.0,0.0,0.0,0.0,0.0,0.0,0.0,0.0,0.0,0.0,0.0,0.0,0.0,0.0,0.0,0.0,0.0,0.0,0.0,0.0,0.0,0.0,0.0,0.0,0.0,0.0,0.0,0.0,0.0,0.0,0.0,0.0,0.0,0.0,0.0,0.0,0.0,0.0,0.0,0.0,0.0,0.0,0.0,0.0,0.0,0.0,0.0,0.0,0.0,0.0,0.0,0.0,0.0,0.0,0.0,0.0,0.0,0.0,0.0,0.0,0.0,0.0,0.0,0.0,0.0,0.0,0.0,0.0,0.0,0.0,0.0,0.0,0.0,0.0,0.0,0.0,0.0,0.0,0.0,0.0,0.0,0.0,0.0,0.0,0.0,0.0,0.0,0.0,0.0,0.0,0.0,0.0,0.0,0.0,0.0,0.0,0.0,0.0,-2.8736,-3.2545,-3.3737,-3.3872,-3.2891,-3.0603,-2.8082,0.0,0.0,0.0,0.0,0.0,0.0,0.0,0.0,0.0,0.0,0.0,0.0,0.0,0.0,0.0,0.0,0.0,0.0,0.0,0.0,0.0,0.0,0.0,0.0,0.0,0.0,0.0,0.0,0.0,0.0,0.0,0.0,0.0,0.0,0.0,0.0,0.0,0.0,0.0,0.0,0.0,0.0,0.0,0.0,0.0,0.0,0.0,0.0,0.0,0.0,0.0,0.0,0.0,0.0,0.0,0.0,0.0,0.0,0.0,0.0,0.0,0.0,0.0,0.0,0.0,0.0,0.0,0.0,0.0,0.0,0.0,0.0,0.0,0.0,0.0,0.0,0.0,0.0,0.0,0.0,0.0,0.0,0.0,0.0,0.0,0.0,0.0,0.0,0.0,0.0,0.0,0.0,0.0,0.0,0.0,0.0,0.0,0.0,0.0,0.0,0.0,0.0,0.0,0.0,0.0,0.0,0.0,0.0,-2.9333,-3.0923,-3.375,-3.4487,-3.2949,-3.1769,-2.931,0.0,0.0,0.0,0.0,0.0,0.0,0.0,0.0,0.0,0.0,0.0,0.0,0.0,0.0,0.0,0.0,0.0,0.0,0.0,0.0,0.0,0.0,0.0,0.0,0.0,0.0,0.0,0.0,0.0,0.0,0.0,0.0,0.0,0.0,0.0,0.0,0.0,0.0,0.0,0.0,0.0,0.0,0.0,0.0,0.0,0.0,0.0,0.0,-1.4459,0.0,0.0,0.0,0.0,0.0,0.0,0.0,0.0,0.0,0.0,0.0,0.0,0.0,0.0,0.0,0.0,0.0,0.0,0.0,0.0,0.0,0.0,0.0,0.0,0.0,0.0,0.0,0.0,0.0,0.0,0.0,0.0,0.0,0.0,0.0,0.0,0.0,0.0,0.0,0.0,0.0,0.0,0.0,0.0,0.0,0.0,0.0,0.0,0.0,0.0,0.0,0.0,0.0,0.0,0.0,0.0,0.0,0.0,0.0,-3.0737,-3.1602,-3.3757,-3.4257,-3.2949,-3.2122,-2.9675,0.0,0.0,0.0,0.0,0.0,0.0,0.0,0.0,0.0,0.0,0.0,0.0,0.0,0.0,0.0,0.0,0.0,0.0,0.0,0.0,0.0,0.0,0.0,0.0,0.0,0.0,0.0,0.0,0.0,0.0,0.0,0.0,0.0,0.0,0.0,0.0,0.0,0.0,0.0,0.0,0.0,0.0,0.0,0.0,0.0,0.0,0.0,0.0,0.0,0.0,0.0,0.0,0.0,0.0,0.0,0.0,0.0,0.0,0.0,0.0,0.0,0.0,0.0,0.0,0.0,0.0,0.0,0.0,0.0,0.0,0.0,0.0,0.0,0.0,0.0,0.0,0.0,0.0,0.0,0.0,0.0,0.0,0.0,0.0,0.0,0.0,0.0,0.0,0.0,0.0,0.0,0.0,0.0,0.0,0.0,0.0,0.0,0.0,0.0,0.0,0.0,0.0,0.0,0.0,0.0,0.0,0.0,-2.9269,-3.1718,-3.2852,-3.3628,-3.3641,-3.2929,-3.2122,-2.9694,-2.5482,0.0,0.0,0.0,0.0,0.0,0.0,0.0,0.0,0.0,0.0,0.0,0.0,0.0,0.0,0.0,0.0,0.0,0.0,0.0,0.0,0.0,0.0,0.0,0.0,0.0,0.0,0.0,0.0,0.0,0.0,0.0,0.0,0.0,0.0,0.0,0.0,0.0,0.0,-1.424,-1.5523,0.0,0.0,0.0,0.0,0.0,0.0,0.0,0.0,-1.6553,0.0,0.0,0.0,0.0,0.0,0.0,0.0,0.0,0.0,0.0,0.0,0.0,0.0,0.0,0.0,0.0,0.0,0.0,0.0,0.0,0.0,0.0,0.0,0.0,0.0,0.0,0.0,0.0,0.0,0.0,0.0,0.0,0.0,0.0,0.0,0.0,0.0,0.0,0.0,0.0,0.0,0.0,0.0,0.0,0.0,0.0,0.0,0.0,0.0,0.0,0.0,0.0,0.0,0.0,0.0,0.0,-2.7395,-2.8179,-2.9948,-3.2814,-3.3045,-3.3045,-3.2872,-3.2122,-2.9681,-2.5559,0.0,0.0,0.0,0.0,0.0,0.0,0.0,0.0,0.0,0.0,0.0,0.0,0.0,0.0,0.0,0.0,0.0,0.0,0.0,0.0,0.0,0.0,0.0,0.0,0.0,0.0,0.0,0.0,0.0,0.0,0.0,0.0,0.0,0.0,0.0,0.0,0.0,0.0,0.0,-1.7797,-1.8775,0.0,0.0,0.0,0.0,0.0,0.0,0.0,0.0,-1.7001,0.0,0.0,0.0,0.0,0.0,0.0,0.0,0.0,0.0,0.0,0.0,0.0,0.0,0.0,0.0,0.0,0.0,0.0,0.0,0.0,0.0,0.0,0.0,0.0,0.0,0.0,0.0,0.0,0.0,0.0,0.0,0.0,0.0,0.0,0.0,0.0,0.0,0.0,0.0,0.0,0.0,0.0,0.0,0.0,0.0,0.0,0.0,0.0,0.0,0.0,0.0,0.0,0.0,0.0,0.0,-2.6447,-2.8736,-3.0852,-3.2795,-3.2487,-3.2468,-3.2833,-3.0833,-2.8335,0.0,0.0,0.0,0.0,0.0,0.0,0.0,0.0,0.0,0.0,0.0,0.0,0.0,0.0,0.0,0.0,0.0,0.0,0.0,0.0,0.0,0.0,0.0,0.0,0.0,0.0,0.0,0.0,0.0,0.0,0.0,0.0,0.0,0.0,0.0,0.0,0.0,0.0,0.0,0.0,-1.8,-1.8999,-1.9769,0.0,0.0,0.0,0.0,0.0,0.0,-1.8637,-1.788,0.0,0.0,0.0,0.0,0.0,0.0,0.0,0.0,0.0,0.0,0.0,0.0,0.0,0.0,0.0,0.0,0.0,0.0,0.0,0.0,0.0,0.0,0.0,0.0,0.0,0.0,0.0,0.0,0.0,0.0,0.0,0.0,0.0,0.0,0.0,0.0,0.0,0.0,0.0,0.0,0.0,0.0,0.0,0.0,0.0,0.0,0.0,0.0,0.0,0.0,0.0,0.0,0.0,0.0,0.0,-2.5327,-2.8846,-3.1333,-3.2545,-3.1872,-3.1827,-3.2583,-2.9717,-2.7259,0.0,0.0,0.0,0.0,0.0,0.0,0.0,0.0,0.0,0.0,0.0,0.0,0.0,0.0,0.0,0.0,0.0,0.0,0.0,0.0,0.0,0.0,0.0,0.0,0.0,0.0,0.0,0.0,0.0,0.0,0.0,0.0,0.0,0.0,0.0,0.0,0.0,0.0,0.0,0.0,0.0,-1.9585,-2.0291,-1.912,0.0,0.0,0.0,0.0,-2.1647,-2.051,0.0,0.0,0.0,0.0,0.0,0.0,0.0,0.0,0.0,0.0,0.0,0.0,0.0,0.0,0.0,0.0,0.0,0.0,0.0,0.0,0.0,0.0,0.0,0.0,0.0,0.0,0.0,0.0,0.0,0.0,0.0,0.0,0.0,0.0,0.0,0.0,0.0,0.0,0.0,0.0,0.0,0.0,0.0,0.0,0.0,0.0,0.0,0.0,0.0,0.0,0.0,0.0,0.0,0.0,0.0,0.0,-2.5135,-2.6538,-2.8712,-3.1621,-3.1,-3.0962,-3.1795,-2.9973,-2.7797,0.0,0.0,0.0,0.0,0.0,0.0,0.0,0.0,0.0,0.0,0.0,0.0,0.0,0.0,0.0,0.0,0.0,0.0,0.0,0.0,0.0,0.0,0.0,0.0,0.0,0.0,0.0,0.0,0.0,0.0,0.0,0.0,0.0,0.0,0.0,0.0,0.0,0.0,0.0,0.0,0.0,-2.2492,-2.0665,-2.1354,-2.2147,0.0,0.0,-2.2388,-2.3405,-2.3319,0.0,0.0,0.0,0.0,0.0,0.0,0.0,0.0,0.0,0.0,0.0,0.0,0.0,0.0,0.0,0.0,0.0,0.0,0.0,0.0,0.0,0.0,0.0,0.0,0.0,0.0,0.0,0.0,0.0,0.0,0.0,0.0,0.0,0.0,0.0,0.0,0.0,0.0,0.0,0.0,0.0,0.0,0.0,0.0,0.0,0.0,0.0,0.0,0.0,0.0,0.0,0.0,0.0,0.0,0.0,-2.1658,-2.5212,-2.7101,-2.9204,-3.1564,-3.0846,-3.0596,-3.0942,-2.8352,-2.5966,0.0,0.0,0.0,0.0,0.0,0.0,0.0,0.0,0.0,0.0,0.0,0.0,0.0,0.0,0.0,0.0,0.0,0.0,0.0,0.0,0.0,0.0,0.0,0.0,0.0,0.0,0.0,0.0,0.0,0.0,0.0,0.0,0.0,0.0,0.0,0.0,0.0,0.0,0.0,0.0,0.0,0.0,-2.2272,-2.2561,0.0,0.0,0.0,-2.3112,-2.4301,0.0,0.0,0.0,0.0,0.0,0.0,0.0,0.0,0.0,0.0,0.0,0.0,0.0,0.0,0.0,0.0,0.0,0.0,0.0,0.0,0.0,0.0,0.0,0.0,0.0,0.0,0.0,0.0,0.0,0.0,0.0,0.0,0.0,0.0,0.0,0.0,0.0,0.0,0.0,0.0,0.0,0.0,0.0,0.0,0.0,0.0,0.0,0.0,0.0,0.0,0.0,0.0,0.0,0.0,0.0,0.0,0.0,-2.5269,-2.7601,-2.9621,-3.1295,-3.0731,-3.0288,-3.0019,-2.7192,0.0,0.0,0.0,0.0,0.0,0.0,0.0,0.0,0.0,0.0,0.0,0.0,0.0,0.0,0.0,0.0,0.0,0.0,0.0,0.0,0.0,0.0,0.0,0.0,0.0,0.0,0.0,-1.0557,0.0,0.0,0.0,0.0,0.0,0.0,0.0,0.0,0.0,0.0,0.0,0.0,0.0,0.0,-2.1652,-2.3543,-2.3664,-2.4008,0.0,0.0,-2.4026,-2.5367,-2.458,-2.3292,0.0,0.0,0.0,0.0,0.0,0.0,0.0,0.0,0.0,0.0,0.0,0.0,0.0,0.0,0.0,0.0,0.0,0.0,0.0,0.0,0.0,0.0,0.0,0.0,0.0,0.0,0.0,0.0,0.0,0.0,0.0,0.0,0.0,0.0,0.0,0.0,0.0,0.0,0.0,0.0,0.0,0.0,0.0,0.0,0.0,0.0,0.0,0.0,0.0,0.0,0.0,0.0,0.0,0.0,0.0,-2.5192,-2.7063,-2.8813,-3.0404,-3.0423,-3.0019,-2.9184,-2.7448,-2.5687,0.0,0.0,0.0,0.0,0.0,0.0,0.0,0.0,0.0,0.0,0.0,0.0,0.0,0.0,0.0,0.0,0.0,0.0,0.0,0.0,0.0,0.0,0.0,0.0,0.0,0.0,0.0,0.0,0.0,0.0,0.0,0.0,0.0,0.0,0.0,0.0,0.0,0.0,0.0,0.0,0.0,-2.284,-2.3681,-2.4991,-2.6163,0.0,0.0,-2.6178,-2.7006,-2.6943,-2.5575,-2.2009,0.0,0.0,0.0,0.0,0.0,0.0,0.0,0.0,0.0,0.0,0.0,0.0,0.0,0.0,0.0,0.0,0.0,0.0,0.0,0.0,0.0,0.0,0.0,0.0,0.0,0.0,0.0,0.0,0.0,0.0,0.0,0.0,0.0,0.0,0.0,0.0,0.0,0.0,0.0,0.0,0.0,0.0,0.0,0.0,0.0,0.0,0.0,0.0,0.0,0.0,0.0,0.0,0.0,-2.1596,-2.525,-2.7005,-2.8717,-3.0288,-2.9871,-2.9217,-2.8376,-2.6692,-2.4764,0.0,0.0,0.0,0.0,0.0,0.0,0.0,0.0,0.0,0.0,0.0,0.0,0.0,0.0,0.0,0.0,0.0,0.0,0.0,0.0,0.0,0.0,0.0,0.0,0.0,0.0,0.0,0.0,-1.3115,-1.3283,-1.3234,0.0,0.0,0.0,0.0,0.0,0.0,0.0,0.0,0.0,0.0,-2.3302,-2.4974,-2.6128,0.0,0.0,-2.7023,-2.6954,-2.7247,-2.6427,-2.4923,-2.252,-2.1546,0.0,0.0,0.0,0.0,0.0,0.0,0.0,0.0,0.0,0.0,0.0,0.0,0.0,0.0,0.0,0.0,0.0,0.0,0.0,0.0,0.0,0.0,0.0,0.0,0.0,0.0,0.0,0.0,0.0,0.0,0.0,0.0,0.0,0.0,0.0,0.0,0.0,0.0,0.0,0.0,0.0,0.0,0.0,0.0,0.0,0.0,0.0,0.0,0.0,0.0,0.0,0.0,-2.185,-2.4923,-2.6909,-2.8582,-2.9981,-2.941,-2.8703,-2.789,-2.6212,-2.4226,0.0,0.0,0.0,0.0,0.0,0.0,0.0,0.0,0.0,0.0,0.0,0.0,0.0,0.0,0.0,0.0,0.0,0.0,0.0,0.0,0.0,0.0,0.0,0.0,0.0,0.0,0.0,0.0,-1.3486,-1.3485,-1.3201,0.0,0.0,0.0,0.0,0.0,0.0,0.0,0.0,0.0,0.0,-2.3871,-2.6128,-2.6937,-2.7315,-2.7315,-2.7315,-2.7213,-2.6988,-2.6138,-2.479,-2.2605,0.0,0.0,0.0,0.0,0.0,0.0,0.0,0.0,0.0,0.0,0.0,0.0,0.0,0.0,0.0,0.0,0.0,0.0,0.0,0.0,0.0,0.0,0.0,0.0,0.0,0.0,0.0,0.0,0.0,0.0,-1.668,0.0,0.0,0.0,0.0,0.0,0.0,0.0,0.0,0.0,0.0,0.0,0.0,0.0,0.0,0.0,0.0,0.0,0.0,0.0,0.0,0.0,0.0,0.0,-2.411,-2.6606,-2.828,-2.9088,-2.9107,-2.8684,-2.7871,-2.6212,-2.45,-2.2778,0.0,0.0,0.0,0.0,0.0,0.0,0.0,0.0,0.0,0.0,0.0,0.0,0.0,0.0,0.0,0.0,0.0,0.0,0.0,0.0,0.0,0.0,0.0,0.0,0.0,0.0,-1.334,-1.3877,-1.3889,0.0,0.0,0.0,0.0,0.0,0.0,0.0,0.0,0.0,0.0,-2.3288,-2.4629,-2.6919,-2.7282,-2.7315,-2.7315,-2.7315,-2.704,-2.6316,-2.6556,-2.5709,0.0,0.0,0.0,0.0,0.0,0.0,0.0,0.0,0.0,0.0,0.0,0.0,0.0,0.0,0.0,0.0,0.0,0.0,0.0,0.0,0.0,0.0,0.0,0.0,0.0,0.0,0.0,-2.0762,-1.9727,0.0,0.0,0.0,0.0,0.0,0.0,0.0,0.0,0.0,0.0,0.0,-2.4168,-2.4732,0.0,0.0,0.0,0.0,0.0,0.0,0.0,0.0,0.0,0.0,0.0,0.0,-2.1566,-2.4052,-2.6024,-2.7448,-2.8261,-2.7736,-2.7313,-2.7044,-2.5904,-2.425,-2.2004,0.0,0.0,0.0,0.0,0.0,0.0,0.0,0.0,0.0,0.0,0.0,0.0,0.0,0.0,0.0,0.0,0.0,0.0,0.0,0.0,0.0,0.0,0.0,0.0,0.0,-1.4095,0.0,0.0,0.0,0.0,0.0,0.0,0.0,0.0,0.0,0.0,0.0,-2.0889,-2.3147,-2.4525,-2.5816,-2.7125,-2.7315,-2.7315,0.0,0.0,0.0,0.0,0.0,0.0,0.0,0.0,0.0,0.0,0.0,0.0,0.0,0.0,-2.0737,-1.8256,-1.7591,-1.7552,-1.7945,0.0,0.0,0.0,0.0,0.0,0.0,0.0,0.0,0.0,0.0,0.0,0.0,0.0,0.0,-2.3555,0.0,-2.2187,0.0,0.0,0.0,0.0,0.0,0.0,0.0,0.0,-2.5668,-2.6676,-2.6333,-2.6893,-2.6837,0.0,-2.5413,-2.3681,0.0,0.0,0.0,0.0,0.0,0.0,0.0,0.0,-2.1835,-2.4052,-2.5755,-2.6871,-2.739,-2.6909,-2.6621,-2.6582,-2.5466,-2.4101,-2.2447,-2.0508,-1.8796,0.0,0.0,0.0,0.0,0.0,0.0,0.0,0.0,0.0,0.0,0.0,0.0,0.0,0.0,0.0,0.0,0.0,0.0,0.0,0.0,0.0,0.0,0.0,-1.4077,0.0,0.0,0.0,0.0,0.0,0.0,0.0,0.0,0.0,-1.8172,-2.063,-2.2923,-2.4422,-2.5712,-2.6713,-2.723,0.0,0.0,0.0,0.0,0.0,0.0,0.0,-2.5367,-2.4853,-2.4039,-2.3277,-2.2769,-2.3494,-2.4002,-2.3477,0.0,0.0,-2.0247,-1.9333,-1.9106,-1.9488,-1.9407,-1.9366,-1.9646,-1.9439,-1.9202,0.0,0.0,0.0,0.0,0.0,0.0,0.0,0.0,-2.5977,-2.6348,0.0,-2.5293,0.0,0.0,0.0,0.0,0.0,-2.5642,0.0,0.0,-2.8159,-2.8927,-2.8111,-2.81,-2.8053,-2.8049,-2.8751,-2.7801,-2.5308,-2.2154,0.0,0.0,0.0,0.0,0.0,0.0,-2.2389,-2.4072,-2.5717,-2.6563,-2.6558,-2.6558,-2.6563,-2.6524,-2.501,-2.4149,-2.4009,-2.1696,-1.9965,-1.9049,-1.6628,0.0,0.0,0.0,0.0,0.0,0.0,0.0,0.0,0.0,0.0,0.0,0.0,0.0,0.0,0.0,0.0,0.0,0.0,0.0,0.0,-1.2448,0.0,0.0,0.0,0.0,0.0,0.0,0.0,0.0,0.0,0.0,-2.0567,-2.2509,-2.4422,-2.587,0.0,0.0,0.0,0.0,-2.7315,-2.7315,-2.7299,-2.7023,-2.6283,-2.6573,-2.6445,-2.5028,0.0,0.0,-2.378,-2.4663,-2.5169,-2.3782,-2.4101,-2.4271,-2.3492,-2.2155,-2.1174,-2.0872,-2.0431,-2.0252,-2.0617,-2.0155,-1.9819,-3.2637,0.0,0.0,0.0,0.0,-2.875,-2.9531,-3.1152,-3.0586,-2.9766,-2.8809,-2.832,0.0,0.0,0.0,0.0,0.0,0.0,-2.6954,-2.7342,-2.8706,-2.9507,-2.9863,-2.9853,-2.983,-2.9751,-2.9375,-2.8804,-2.7953,-2.6467,-2.3774,-2.0023,0.0,0.0,0.0,0.0,-2.299,-2.4086,-2.5139,-2.5673,-2.5673,-2.5673,-2.5673,-2.5673,-2.5216,-2.4678,-2.411,-2.2797,-2.1427,-1.9965,-1.8051,0.0,0.0,0.0,0.0,0.0,0.0,0.0,0.0,0.0,0.0,0.0,0.0,0.0,0.0,0.0,0.0,0.0,0.0,0.0,-1.4205,-1.4744,-1.5478,0.0,0.0,0.0,0.0,0.0,0.0,0.0,0.0,0.0,-2.357,-2.4698,-2.5611,0.0,0.0,-2.7315,-2.7315,-2.7315,-2.7315,-2.7315,0.0,0.0,0.0,-2.6408,-2.6127,-2.6245,-2.6351,-2.6234,-2.5828,-2.6099,-2.6251,-2.5778,-2.5066,-2.4423,-2.4203,-2.3441,-2.26,-2.2023,-2.1546,-2.1247,-2.1162,-2.0926,-2.0709,-3.6797,-3.4297,-3.2422,-3.1934,-3.2305,-3.1465,-3.1992,-3.3379,-3.2891,-3.2266,-3.1601,-3.125,-3.0234,-2.8711,-2.8002,0.0,0.0,0.0,-2.904,-2.9563,-3.0451,-3.1103,-3.1565,-3.1236,-3.1076,-3.0967,-3.0137,-2.9494,-2.9088,-2.8626,-2.6505,-2.2923,0.0,0.0,-2.185,-2.2816,-2.3721,-2.4548,-2.5058,-2.5308,-2.5308,-2.5308,-2.5308,-2.5308,-2.5308,-2.4909,-2.4129,-2.3259,-2.2177,-2.0827,-1.9154,-1.7436,0.0,0.0,0.0,0.0,0.0,0.0,0.0,0.0,0.0,0.0,0.0,-1.2045,-1.0759,0.0,0.0,0.0,-1.2302,-1.404,-1.6433,-1.6646,0.0,0.0,0.0,0.0,0.0,0.0,0.0,-2.1993,-2.3625,-2.4922,-2.5652,-2.6327,-2.6677,-2.659,-2.6988,-2.7283,-2.7233,0.0,-2.7217,-2.7186,-2.7121,-2.7054,-2.7038,-2.6566,-2.6332,-2.6758,-2.6758,-2.6691,-2.6708,-2.6708,-2.6708,-2.6607,-2.5964,-2.5185,-2.4609,-2.4135,-2.3494,-2.2516,-2.2152,-2.193,-2.1738,-2.1584,-2.1339,-4.0059,-3.9707,-3.6484,-3.5078,-3.4922,-3.4141,-3.3828,-3.3809,-3.375,-3.4121,-3.4726,-3.3887,-3.3457,-3.3281,-3.1648,0.0,-3.1039,-3.1696,-3.1987,-3.2045,-3.2831,-3.3147,-3.3068,-3.2275,-3.1902,-3.1874,-3.1006,-3.0163,-2.9338,-2.9261,-2.839,-2.6813,-2.6,-2.5159,-2.4336,-2.436,-2.474,-2.5404,-2.5404,-2.5385,-2.5308,-2.5308,-2.5308,-2.5308,-2.525,-2.4851,-2.411,-2.3201,-2.2336,-2.1523,-1.9969,-1.835,-1.6679,0.0,0.0,0.0,0.0,0.0,0.0,0.0,0.0,0.0,0.0,0.0,0.0,0.0,0.0,0.0,-1.4187,0.0,-1.7979,-1.8243,0.0,0.0,0.0,-2.0759,-2.0869,-2.27,-2.4081,-2.4416,0.0,0.0,-2.6966,0.0,-2.7585,-2.7329,-2.7315,-2.7266,-2.7119,-2.7103,-2.707,-2.7024,-2.7008,-2.6991,-2.6991,-2.6891,-2.6774,-2.6742,-2.6708,-2.6708,-2.6708,-2.6708,-2.6708,-2.6708,-2.659,-2.6082,-2.4728,-2.4355,-2.3898,-2.2533,-2.2254,-2.2223,-2.218,-2.1976,-2.1661,-4.1445,-4.0762,-3.9277,-3.8281,-3.7656,-3.7461,-3.7363,-3.7305,-3.6641,-3.6113,-3.5644,-3.4766,-3.4023,-3.3359,-3.2955,-3.277,-3.2792,-3.2861,-3.2896,-3.2893,-3.3052,-3.3113,-3.3088,-3.2894,-3.2772,-3.2646,-3.1893,-3.1358,-3.1064,-3.0423,-2.9563,-2.8544,-2.8319,-2.7472,-2.6082,-2.6664,-2.6755,-2.6294,-2.6294,-2.5981,-2.5327,-2.5308,-2.5308,-2.5288,-2.4697,-2.4298,-2.4086,-2.262,-2.1716,-2.1481,-2.0542,-1.95,-1.8416,-1.6151,0.0,0.0,0.0,0.0,0.0,0.0,0.0,0.0,0.0,-1.4915,-1.2297,0.0,-1.5735,0.0,-1.5496,-1.7055,-1.8849,-1.9583,0.0,0.0,-2.2309,-2.2896,-2.4107,-2.4692,-2.5434,-2.6531,-2.6799,-2.7068,-2.7444,-2.745,-2.7376,-2.7315,-2.7315,-2.725,-2.7119,-2.7103,-2.7087,-2.7007,-2.6959,-2.6926,-2.6909,-2.6825,-2.6725,-2.6708,-2.6708,-2.6708,-2.6708,-2.6708,-2.6708,-2.6623,-2.576,-2.4982,-2.4575,-2.3613,-2.2818,-2.235,-2.2109,-2.1915,-2.1915,-2.1857,-2.169,-4.2129,-4.166,-4.082,-4.0195,-3.9687,-3.8945,-3.8613,-3.8555,-3.8086,-3.7383,-3.6523,-3.5664,-3.5019,-3.457,-3.4521,-3.4517,-3.4543,-3.4416,-3.4361,-3.4358,-3.429,-3.4255,-3.4229,-3.3866,-3.3652,-3.355,-3.2728,-3.2116,-3.1703,-3.1218,-3.0525,-2.9698,-2.9679,-2.9217,-2.8308,-2.8025,-2.7467,-2.6621,-2.6212,-2.5788,-2.5327,-2.5308,-2.5308,-2.5308,-2.487,-2.4274,-2.3548,-2.2581,-2.1562,-2.0446,-2.0327,-1.9731,-1.8481,-1.7074,-1.5901,0.0,0.0,0.0,0.0,0.0,0.0,0.0,0.0,0.0,0.0,0.0,-1.7741,-1.7227,-1.7972,-1.9172,-2.0794,-2.1685,-2.2666,-2.3933,-2.441,-2.4969,-2.5852,-2.6256,-2.6753,-2.7485,-2.7725,-2.7905,-2.8084,-2.7975,-2.7836,-2.7672,-2.7539,-2.7388,-2.7151,-2.7103,-2.707,-2.6992,-2.6926,-2.6859,-2.6826,-2.6742,-2.6708,-2.6708,-2.6708,-2.6708,-2.6708,-2.6708,-2.6708,-2.6623,-2.5777,-2.488,-2.4525,-2.3628,-2.2733,-2.2367,-2.2152,-2.2034,-2.202,-2.202,-2.1915,-4.2519,-4.2324,-4.1543,-4.1191,-4.1094,-3.957,-3.8926,-3.8926,-3.8809,-3.8281,-3.7422,-3.666,-3.6348,-3.6328,-3.6163,-3.6126,-3.6152,-3.5921,-3.5797,-3.5789,-3.5737,-3.5708,-3.5665,-3.4935,-3.4533,-3.4422,-3.3589,-3.2764,-3.2035,-3.1794,-3.1295,-3.0577,-3.0462,-3.0404,-3.0327,-2.8948,-2.7736,-2.6774,-2.5904,-2.5423,-2.5308,-2.5308,-2.5308,-2.5308,-2.5192,-2.4404,-2.2874,-2.2797,-2.1739,-1.9511,-2.0042,-1.9754,-1.8276,-1.7891,-1.7343,0.0,-1.5635,0.0,0.0,0.0,0.0,0.0,0.0,0.0,0.0,-1.8629,-1.9921,-2.0603,-2.0768,-2.141,-2.2878,-2.3823,-2.464,-2.5338,-2.6219,-2.6759,-2.6796,-2.7457,-2.7952,-2.7952,-2.8542,-2.8839,-2.8619,-2.8545,-2.8399,-2.812,-2.7883,-2.7624,-2.726,-2.7133,-2.7054,-2.6942,-2.6807,-2.6621,-2.6555,-2.6522,-2.6522,-2.6556,-2.664,-2.6657,-2.6522,-2.6522,-2.6488,-2.6336,-2.5676,-2.5033,-2.4457,-2.3746,-2.3038,-2.2415,-2.2282,-2.2268,-2.2299,-2.2282,-2.2211,-4.3047,-4.2324,-4.1523,-4.1191,-4.1172,-4.084,-4.0703,-4.0664,-3.9961,-3.918,-3.834,-3.8184,-3.8105,-3.8047,-3.7343,-3.705,-3.7012,-3.6234,-3.5849,-3.5789,-3.5737,-3.5708,-3.569,-3.553,-3.5422,-3.5297,-3.448,-3.3944,-3.3692,-3.2356,-3.1626,-3.1448,-3.075,-3.0404,-3.0385,0.0,0.0,0.0,-2.6774,-2.6019,-2.5346,-2.5308,-2.5308,-2.5288,-2.4659,0.0,-2.2855,-2.2797,-2.2259,-2.1119,-2.1196,0.0,0.0,0.0,0.0,0.0,0.0,0.0,0.0,0.0,0.0,0.0,-1.9653,-1.9162,-1.806,-1.9987,-2.139,-2.1555,-2.2152,-2.2657,-2.2988,-2.4318,-2.5246,-2.5411,-2.6696,-2.7567,-2.7603,-2.8282,-2.8767,-2.8767,-2.873,-2.8669,-2.8601,-2.836,-2.8183,-2.8139,-2.8061,-2.7911,-2.7639,-2.7322,-2.7086,-2.6957,-2.6415,-2.5959,-2.5892,-2.5878,-2.5879,-2.5879,-2.6336,-2.6437,-2.5947,-2.5829,-2.5575,-2.5117,-2.4306,-2.3833,-2.363,-2.3004,-2.2516,-2.2344,-2.2313,-2.2313,-2.2313,-2.2313,-2.2282,-4.4082,0.0,-4.2773,-4.2168,0.0,-4.1797,-4.1582,-4.1152,-4.0742,-4.0039,-3.9219,-3.8789,-3.8613,-3.8574,-3.8125,-3.7715,-3.7266,-3.6786,-3.6286,-3.5808,-3.5737,-3.5708,-3.5704,-3.5704,-3.5679,-3.5623,-3.5168,-3.4695,-3.4185,-3.2972,-3.2133,-3.1679,-3.0827,-3.0404,-3.0404,-3.0404,-2.9577,-2.7909,-2.7044,-2.6173,-2.5346,-2.5308,-2.5308,-2.5288,0.0,0.0,0.0,0.0,0.0,0.0,0.0,0.0,0.0,0.0,0.0,-2.0137,-1.9369,-1.9213,-1.9888,-1.9803,-2.0201,-2.1304,-2.1631,-2.1435,-2.0566,-2.1675,-2.2556,-2.2942,-2.3364,-2.3602,-2.3639,-2.5034,-2.5988,-2.6054,-2.7438,-2.8381,-2.8429,-2.8748,-2.8987,-2.8994,-2.8863,-2.8791,-2.8779,-2.8663,-2.8558,-2.8545,-2.843,-2.8295,-2.812,-2.7713,-2.7236,-2.6623,-2.6138,-2.5787,-2.5721,-2.5689,-2.5624,-2.5676,-2.6201,-2.6167,-2.522,-2.5355,-2.5372,-2.4626,-2.3883,-2.341,-2.3342,-2.2786,-2.2313,-2.2313,-2.2313,-2.2313,-2.2313,-2.2313,-2.2313,-4.5019,-4.4922,-4.4043,-4.3281,-4.2617,-4.2461,-4.1953,-4.1191,0.0,0.0,0.0,-3.9375,-3.9062,-3.9043,-3.8906,-3.8437,-3.7754,-3.7376,-3.6803,-3.6025,-3.581,-3.5706,-3.5709,-3.5704,-3.5704,-3.5704,-3.5643,-3.5247,-3.4523,-3.3651,-3.2786,-3.1922,-3.105,-3.0544,-3.0404,-3.0404,-2.9654,-2.814,-2.7274,-2.6409,-2.5558,-2.5385,-2.5308,-2.5308,-2.5308,-2.4909,-2.4125,-2.4225,-2.3278,-2.1119,-2.162,-2.1658,-2.1043,-2.1462,-2.2043,-2.274,-2.2797,-2.2834,-2.2851,-2.2657,-2.2498,-2.2405,-2.2909,-2.3217,-2.3208,-2.3208,-2.3483,-2.4135,-2.4199,-2.4254,-2.441,-2.5713,-2.6667,-2.6804,-2.8106,-2.8987,-2.8987,-2.8858,-2.8748,-2.8785,-2.8737,-2.8785,-2.8767,-2.8872,-2.8932,-2.8799,-2.867,-2.8554,-2.8357,-2.7806,-2.7013,-2.6042,-2.5514,-2.5388,-2.5358,-2.5259,-2.5297,-2.5164,-2.5792,-2.5826,-2.4828,-2.4828,-2.488,-2.4118,-2.3579,-2.3241,-2.3139,-2.2699,-2.233,-2.2313,-2.2313,-2.2313,-2.2313,-2.2313,-2.2313,-4.5019,-4.4941,-4.4062,-4.3613,-4.3457,-4.2715,-4.1953,-4.1211,-4.1191,-4.1133,-4.1016,-4.0879,-4.084,-4.0801,-4.0059,-3.9648,-3.9434,-3.7968,-3.7154,0.0,-3.6137,-3.5768,-3.5709,-3.5704,-3.5704,-3.5704,-3.5684,-3.559,-3.535,-3.4513,-3.3674,-3.2805,-3.1952,-3.1145,-3.0442,-3.0404,-2.991,-2.8934,-2.8145,-2.7313,-2.6442,-2.5673,-2.5308,-2.5308,-2.5308,-2.4928,-2.4168,-2.4755,-2.4654,-2.3644,-2.3682,-2.3687,-2.3548,-2.2932,-2.2677,-2.2797,-2.2797,-2.312,-2.3832,-2.3583,-2.3587,-2.3949,-2.4017,-2.4025,-2.4025,-2.4043,-2.408,-2.4199,-2.4199,-2.4493,-2.5172,-2.6025,-2.6814,-2.7512,-2.8429,-2.8987,-2.8932,-2.8374,-2.797,-2.797,-2.7952,-2.7989,-2.8026,-2.8528,-2.8656,-2.8216,-2.8336,-2.8547,-2.7628,-2.7103,-2.6331,-2.532,-2.4488,-2.407,-2.413,-2.3947,-2.4023,-2.3889,-2.4575,-2.4817,-2.3818,-2.3835,-2.367,-2.2815,-2.2649,-2.253,-2.2499,-2.2398,-2.2313,-2.2313,-2.2313,-2.2313,-2.2313,-2.2313,-2.2313,-4.5703,-4.5664,-4.5293,-4.4844,-4.4316,-4.2969,-4.2187,-4.1816,-4.1387,-4.1191,-4.1191,-4.1191,-4.1191,-4.1172,-4.0801,-4.0332,-3.9844,-3.8594,-3.7709,-3.7123,-3.6263,-3.5794,-3.5708,-3.5713,-3.5703,-3.5709,-3.5704,-3.5673,-3.5529,-3.4737,-3.4085,-3.3582,-3.2351,-3.1249,-3.0462,-3.0404,-3.0212,-2.9794,-2.8544,-2.7467,-2.6621,-2.5731,-2.5308,-2.5308,-2.5308,-2.5135,-2.4755,-2.5115,-2.4923,-2.4125,-2.4105,-2.4105,-2.4091,-2.3725,-2.3701,-2.412,-2.4159,-2.4332,-2.4716,-2.4441,-2.4268,-2.4302,-2.4229,-2.42,-2.4199,-2.4199,-2.4199,-2.4199,-2.4199,-2.4346,-2.4732,-2.5466,-2.6264,-2.7053,-2.7512,-2.7886,-2.8191,-2.764,-2.7163,-2.7181,-2.7548,-2.7622,-2.72,-2.786,-2.8044,-2.7365,-2.753,-2.7266,-2.6293,-2.5913,-2.5461,-2.4689,-2.4095,-2.3798,-2.369,-2.3679,-2.3651,-2.3591,-2.4211,-2.4145,-2.3312,-2.321,-2.3164,-2.255,-2.2352,-2.2338,-2.2327,-2.2313,-2.2313,-2.2313,-2.2313,-2.2313,-2.2313,-2.2313,-2.2313,-4.6289,-4.6289,-4.6289,-4.5801,-4.4883,-4.3359,-4.2598,-4.2344,-4.1543,-4.1191,-4.1191,-4.1191,-4.1191,-4.1191,-4.1191,-4.084,-4.0117,-3.9082,-3.8181,-3.7439,-3.6402,-3.5838,-3.5737,-3.5725,-3.57,-3.5713,-3.5702,-3.5662,-3.5541,-3.4936,-3.4367,-3.3826,-3.2435,-3.1281,-3.0423,-3.0404,-3.0404,-3.0308,-2.8929,-2.7736,-2.6909,-2.5846,-2.5308,-2.5308,-2.5308,-2.5308,-2.5308,-2.5308,-2.5019,-2.4432,-2.4356,-2.4375,-2.4375,-2.4356,-2.4639,-2.5212,-2.5308,-2.5283,-2.5192,-2.4956,-2.4655,-2.4348,-2.4248,-2.4219,-2.42,-2.4209,-2.4199,-2.4199,-2.4199,-2.4263,-2.4566,-2.5044,-2.5742,-2.6484,-2.6602,-2.6914,-2.7346,-2.6814,-2.6337,-2.641,-2.6898,-2.6961,-2.6649,-2.7034,-2.7255,-2.6785,-2.6308,-2.5751,-2.5201,-2.4944,-2.4541,-2.4211,-2.3846,-2.3577,-2.3488,-2.3429,-2.3398,-2.3411,-2.3807,-2.3602,-2.2935,-2.3041,-2.3116,-2.2565,-2.2419,-2.2391,-2.2338,-2.2324,-2.2324,-2.231,-2.2313,-2.2313,-2.2313,-2.2313,-2.2313,-4.6289,-4.6289,-4.6289,-4.5801,-4.4961,-4.3984,-4.3144,-4.2383,-4.1562,-4.1191,-4.1191,-4.1191,-4.1191,-4.1191,-4.1191,-4.1113,-4.0898,-3.9355,-3.8513,-3.8184,-3.6656,-3.5875,-3.5805,-3.5783,-3.5746,-3.5713,-3.57,-3.5713,-3.5695,-3.5582,-3.4743,-3.3186,-3.2162,-3.1299,-3.0519,-3.0404,-3.0404,-3.0385,-2.9467,-2.8588,-2.7736,-2.6154,-2.5308,-2.5308,-2.5308,-2.5308,-2.5308,-2.5308,-2.5269,-2.5192,-2.5173,-2.5173,-2.5173,-2.5173,-2.5212,-2.5308,-2.5308,-2.5206,-2.4955,-2.4843,-2.4697,-2.4429,-2.433,-2.4266,-2.4201,-2.4192,-2.4201,-2.4209,-2.4199,-2.4493,-2.5172,-2.5319,-2.565,-2.6374,-2.6455,-2.6638,-2.6594,-2.5999,-2.5513,-2.5521,-2.5668,-2.5605,-2.5631,-2.6153,-2.6612,-2.6484,-2.5548,-2.5042,-2.5332,-2.4723,-2.4179,-2.3891,-2.3484,-2.3147,-2.2946,-2.2802,-2.2905,-2.2875,-2.2861,-2.2835,-2.2708,-2.2647,-2.2634,-2.26,-2.2484,-2.2474,-2.2419,-2.2377,-2.2366,-2.2324,-2.2327,-2.2313,-2.2313,-2.2313,-2.2313,-4.6289,-4.6289,-4.6289,-4.6094,-4.5664,-4.4844,-4.3965,-4.3105,-4.2285,-4.166,-4.123,-4.1191,-4.1191,-4.1191,-4.1191,-4.1191,-4.1113,-3.9922,-3.9062,-3.8493,-3.7281,-3.6413,-3.5916,-3.5853,-3.5829,-3.5749,-3.5722,-3.57,-3.5694,-3.5648,-3.4988,-3.3812,-3.2891,-3.2033,-3.1189,-3.0664,-3.0402,-3.0365,-2.9544,-2.8723,-2.7857,-2.6697,-2.5827,-2.5346,-2.5308,-2.5308,-2.5308,-2.5308,-2.5308,-2.5308,-2.5308,-2.5308,-2.5308,-2.5308,-2.5308,-2.5308,-2.5308,-2.5222,-2.5043,-2.4923,-2.4756,-2.4528,-2.441,-2.4312,-2.4266,-2.422,-2.421,-2.4191,-2.4209,-2.4355,-2.4658,-2.4695,-2.5026,-2.565,-2.5474,-2.5364,-2.5833,-2.5181,-2.4695,-2.4713,-2.5099,-2.5191,-2.4842,-2.4961,-2.5383,-2.5705,-2.5227,-2.5209,-2.5878,-2.5311,-2.4751,-2.4469,-2.3947,-2.3389,-2.304,-2.2927,-2.2863,-2.2764,-2.2712,-2.2685,-2.2672,-2.2659,-2.2649,-2.2569,-2.2569,-2.2542,-2.2474,-2.2419,-2.2377,-2.2366,-2.2324,-2.2313,-2.2313,-2.2313,-2.2313,-4.6289,-4.6289,-4.6289,-4.6289,-4.6211,-4.5371,-4.4492,-4.3633,-4.2773,-4.1933,-4.123,-4.1191,-4.1191,-4.1191,-4.1191,-4.1191,-4.1094,-4.0293,-3.957,-3.8867,-3.7832,-3.6932,-3.6297,-3.6023,-3.5892,-3.5814,-3.5771,-3.5744,-3.5698,-3.5636,-3.5182,-3.4312,-3.3459,-3.2607,-3.1725,-3.0846,-3.0406,-3.0344,-2.9761,-2.905,-2.8242,-2.739,-2.6428,-2.5423,-2.5308,-2.5308,-2.5308,-2.5308,-2.5308,-2.5308,-2.5308,-2.5308,-2.5308,-2.5308,-2.5308,-2.5308,-2.5308,-2.5243,-2.5096,-2.5019,-2.4869,-2.4689,-2.4564,-2.4455,-2.4374,-2.4312,-2.4238,-2.422,-2.4247,-2.4228,-2.4199,-2.4199,-2.4475,-2.4952,-2.4511,-2.4465,-2.4952,-2.4511,-2.4236,-2.4263,-2.4695,-2.4879,-2.4346,-2.4291,-2.4585,-2.5264,-2.5421,-2.5686,-2.6337,-2.607,-2.5596,-2.5193,-2.459,-2.3988,-2.3354,-2.3182,-2.306,-2.2902,-2.2829,-2.2816,-2.2738,-2.2699,-2.2716,-2.2649,-2.2619,-2.2592,-2.2555,-2.2487,-2.2419,-2.2391,-2.2335,-2.2313,-2.2313,-2.2313,-2.2313,-4.6289,-4.6289,-4.6289,-4.6289,-4.623,-4.541,-4.4512,-4.3652,-4.2812,-4.1973,-4.125,-4.1191,-4.1191,-4.1191,-4.1191,-4.1191,-4.1074,-4.0332,-3.9902,-3.9609,-3.8105,-3.7305,-3.7207,-3.6387,-3.5953,-3.5914,-3.5864,-3.5802,-3.571,-3.5693,-3.5209,-3.4342,-3.3569,-3.2698,-3.1854,-3.0959,-3.0417,-3.0386,-3.0287,-2.989,-2.903,-2.8222,-2.6986,-2.5558,-2.5308,-2.5308,-2.5308,-2.5308,-2.5308,-2.5308,-2.5308,-2.5308,-2.5308,-2.5308,-2.5308,-2.5308,-2.5308,-2.5243,-2.5138,-2.5097,-2.5018,-2.4902,-2.4738,-2.465,-2.4583,-2.4471,-2.4375,-2.4321,-2.4312,-2.4266,-2.4218,-2.4209,-2.4236,-2.4309,-2.4273,-2.4245,-2.4291,-2.4309,-2.4218,-2.4208,-2.4373,-2.4475,-2.4291,-2.4199,-2.474,-2.5338,-2.5495,-2.5833,-2.6594,-2.6649,-2.6151,-2.5638,-2.5222,-2.4845,-2.3701,-2.3416,-2.3318,-2.3157,-2.3035,-2.299,-2.2842,-2.2699,-2.2712,-2.2716,-2.2685,-2.2659,-2.2605,-2.2552,-2.2501,-2.2432,-2.2335,-2.231,-2.2313,-2.2313,-2.2313,-4.6289,-4.6289,-4.6289,-4.6289,-4.6269,-4.5976,-4.5019,-4.3711,-4.3379,-4.2461,-4.1348,-4.1191,-4.1191,-4.1191,-4.1191,-4.1191,-4.1172,-4.0859,-4.0449,-3.9824,-3.8672,-3.7851,-3.7246,-3.6406,-3.5976,-3.5954,-3.5923,-3.5849,-3.5768,-3.5756,-3.5578,-3.515,-3.438,-3.3548,-3.2636,-3.1755,-3.102,-3.0461,-3.04,-2.999,-2.9127,-2.8294,-2.7313,-2.6212,-2.5577,-2.5308,-2.5308,-2.5308,-2.5308,-2.5308,-2.5308,-2.5308,-2.5308,-2.5308,-2.5308,-2.5308,-2.5308,-2.5269,-2.5233,-2.5149,-2.5072,-2.5024,-2.4889,-2.4818,-2.4756,-2.4631,-2.452,-2.4478,-2.4366,-2.4294,-2.4266,-2.4238,-2.4209,-2.4199,-2.4199,-2.4199,-2.4199,-2.4199,-2.4199,-2.4273,-2.4603,-2.497,-2.5062,-2.5401,-2.6043,-2.677,-2.6917,-2.7255,-2.7703,-2.7317,-2.6547,-2.608,-2.5291,-2.4481,-2.4105,-2.3753,-2.3595,-2.3405,-2.3265,-2.3182,-2.3035,-2.294,-2.2944,-2.2725,-2.2712,-2.2699,-2.2646,-2.2565,-2.2528,-2.2446,-2.2366,-2.2338,-2.2313,-2.2324,-2.2341,-4.6289,-4.6289,-4.6289,-4.6289,-4.6289,-4.6289,-4.5312,-4.3789,-4.3691,-4.2754,-4.1406,-4.1191,-4.1191,-4.1191,-4.1191,-4.1191,-4.1191,-4.1191,-4.0879,-4.0273,-3.9414,-3.8574,-3.7695,-3.6836,-3.6269,-3.6035,-3.5952,-3.5913,-3.5841,-3.5836,-3.5808,-3.5666,-3.4927,-3.407,-3.3127,-3.2266,-3.1376,-3.0614,-3.0403,-3.0078,-2.949,-2.8709,-2.803,-2.7332,-2.6308,-2.5577,-2.5327,-2.5308,-2.5308,-2.5308,-2.5308,-2.5308,-2.5308,-2.5308,-2.5308,-2.5308,-2.5308,-2.5308,-2.5284,-2.5222,-2.5165,-2.516,-2.5031,-2.4949,-2.4961,-2.4792,-2.47,-2.4645,-2.48,-2.48,-2.4774,-2.4921,-2.4819,-2.4375,-2.4199,-2.4199,-2.4199,-2.4199,-2.4346,-2.464,-2.5044,-2.5429,-2.5778,-2.6245,-2.6869,-2.7695,-2.7816,-2.8136,-2.862,-2.818,-2.7079,-2.6649,-2.5768,-2.4942,-2.4351,-2.3986,-2.3816,-2.3628,-2.354,-2.3422,-2.3218,-2.3151,-2.3015,-2.2803,-2.2712,-2.2712,-2.2672,-2.2609,-2.2528,-2.246,-2.2432,-2.2405,-2.2394,-2.238,-2.238,-4.6289,-4.6289,-4.6289,-4.6289,-4.6289,-4.6289,-4.5312,-4.3867,-4.3711,-4.2754,-4.1328,-4.1191,-4.1191,-4.1191,-4.1191,-4.1191,-4.1191,-4.1191,-4.1172,-4.0976,-4.0195,-3.9375,-3.8594,-3.7617,-3.6719,-3.6035,-3.5996,-3.5954,-3.5896,-3.5895,-3.5878,-3.5666,-3.5076,-3.4249,-3.3207,-3.2411,-3.1502,-3.0714,-3.0465,-3.0389,-3.0276,-2.9451,-2.8973,-2.878,-2.7434,-2.6236,-2.5423,-2.5327,-2.5308,-2.5308,-2.5308,-2.5308,-2.5308,-2.5308,-2.5308,-2.5308,-2.5308,-2.5308,-2.5308,-2.5298,-2.5274,-2.5264,-2.5171,-2.509,-2.5091,-2.4981,-2.4891,-2.499,-2.5402,-2.5781,-2.5755,-2.619,-2.6022,-2.4606,-2.4512,-2.4521,-2.4328,-2.4254,-2.4511,-2.5172,-2.5521,-2.5797,-2.6355,-2.6833,-2.7273,-2.7787,-2.797,-2.8191,-2.8822,-2.8656,-2.8124,-2.7053,-2.6117,-2.5383,-2.474,-2.418,-2.4016,-2.3868,-2.3806,-2.37,-2.3342,-2.3182,-2.301,-2.2825,-2.2712,-2.2712,-2.2685,-2.2636,-2.2609,-2.2542,-2.2515,-2.2474,-2.2446,-2.2432,-2.246,-4.6289,-4.6289,-4.6289,-4.6289,-4.6289,-4.6289,-4.5312,-4.3769,-4.3711,-4.2734,-4.1406,-4.1191,-4.1191,-4.1191,-4.1191,-4.1191,-4.1191,-4.1191,-4.1191,-4.1055,-4.0312,-3.9785,-3.9258,-3.7969,-3.6836,-3.6133,-3.6016,-3.5996,-3.5976,-3.5957,-3.5928,-3.5809,-3.5627,-3.471,-3.3315,-3.2959,-3.2159,-3.0746,-3.055,-3.0506,-3.0402,-2.9627,-2.9193,-2.9052,-2.8055,-2.7082,-2.6236,-2.5635,-2.5308,-2.5308,-2.5308,-2.5308,-2.5308,-2.5308,-2.5308,-2.5308,-2.5308,-2.5308,-2.5308,-2.5308,-2.5308,-2.5284,-2.5253,-2.5243,-2.5233,-2.5121,-2.5279,-2.5697,-2.6039,-2.6234,-2.6655,-2.6867,-2.6674,-2.5981,-2.5923,-2.5598,-2.5127,-2.5026,-2.5146,-2.5476,-2.6366,-2.71,-2.7438,-2.7787,-2.8216,-2.8455,-2.8576,-2.8748,-2.8858,-2.862,-2.786,-2.6814,-2.6227,-2.5595,-2.4713,-2.4199,-2.4113,-2.4036,-2.4006,-2.3876,-2.3524,-2.3295,-2.3103,-2.2914,-2.2803,-2.2712,-2.2699,-2.2659,-2.2636,-2.2609,-2.2555,-2.2528,-2.2501,-2.2515,-2.2528,-4.6289,-4.6289,-4.6289,-4.6289,-4.6289,-4.6289,-4.5312,-4.3848,-4.3711,-4.2773,-4.1426,-4.1191,-4.1191,-4.1191,-4.1191,-4.1191,-4.1191,-4.1191,-4.1191,-4.1152,-4.0703,-4.0234,-3.9726,-3.8125,-3.7051,-3.6523,-3.6152,-3.6016,-3.6016,-3.6016,-3.5975,-3.593,-3.5928,-3.5038,-3.3507,-3.3286,-3.2443,-3.0921,-3.063,-3.0583,-3.0437,-3.0004,-2.9704,-2.9571,-2.8846,-2.7969,-2.7117,-2.6255,-2.5635,-2.5385,-2.5308,-2.5308,-2.5308,-2.5308,-2.5308,-2.5308,-2.5308,-2.5308,-2.5308,-2.5308,-2.5308,-2.5308,-2.5308,-2.5308,-2.5279,-2.5222,-2.5472,-2.5791,-2.6123,-2.6529,-2.7126,-2.756,-2.763,-2.7742,-2.7048,-2.6542,-2.5966,-2.5844,-2.6035,-2.6439,-2.7174,-2.7805,-2.8301,-2.8583,-2.8987,-2.8987,-2.8987,-2.8987,-2.8895,-2.8583,-2.7758,-2.6979,-2.6392,-2.5558,-2.4475,-2.4199,-2.4199,-2.418,-2.4161,-2.3966,-2.3678,-2.3573,-2.3439,-2.3096,-2.2919,-2.2816,-2.2777,-2.2699,-2.2663,-2.2623,-2.2609,-2.2609,-2.2592,-2.2592,-2.2605,-4.6287,-4.6288,-4.6289,-4.6289,-4.6289,-4.6289,-4.5312,-4.3867,-4.3711,-4.2773,-4.1445,-4.1191,-4.1191,-4.1191,-4.1191,-4.1191,-4.1191,-4.1191,-4.1191,-4.1191,-4.1035,-4.0644,-3.9551,-3.8164,-3.7363,-3.6914,-3.6328,-3.6035,-3.6016,-3.6016,-3.6016,-3.5996,-3.5937,-3.5194,-3.3853,-3.3461,-3.2568,-3.1125,-3.0777,-3.0664,-3.0595,-3.0568,-3.0507,-3.0409,-2.9694,-2.8825,-2.7827,-2.68,-2.6,-2.5423,-2.5308,-2.5308,-2.5308,-2.5308,-2.5308,-2.5308,-2.5308,-2.5308,-2.5308,-2.5308,-2.5308,-2.5308,-2.5308,-2.5308,-2.5284,-2.5293,-2.5449,-2.5723,-2.621,-2.6823,-2.7633,-2.8271,-2.886,-2.9148,-2.7938,-2.6989,-2.678,-2.6681,-2.6888,-2.7467,-2.7853,-2.8136,-2.8803,-2.895,-2.8987,-2.8987,-2.8987,-2.8987,-2.8932,-2.8601,-2.8051,-2.7281,-2.6392,-2.5493,-2.4392,-2.4199,-2.4199,-2.4199,-2.419,-2.4034,-2.3795,-2.3721,-2.3617,-2.3283,-2.3089,-2.2982,-2.2868,-2.2816,-2.2725,-2.2672,-2.2672,-2.2699,-2.2699,-2.2672,-2.2659,-4.6287,-4.6288,-4.6289,-4.6289,-4.6289,-4.6289,-4.5312,-4.3808,-4.3711,-4.2773,-4.1465,-4.1191,-4.1191,-4.1191,-4.1191,-4.1191,-4.1191,-4.1191,-4.1191,-4.1191,-4.1191,-4.0312,-3.918,-3.8496,-3.7578,-3.6562,-3.6211,-3.6016,-3.6016,-3.6016,-3.6016,-3.6016,-3.5996,-3.5469,-3.4453,-3.375,-3.2864,-3.179,-3.1063,-3.0749,-3.0689,-3.0664,-3.0668,-3.063,-3.0358,-2.9459,-2.8006,-2.6468,-2.5577,-2.5346,-2.5308,-2.5308,-2.5308,-2.5308,-2.5308,-2.5308,-2.5308,-2.5308,-2.5308,-2.5308,-2.5308,-2.5308,-2.5308,-2.5308,-2.5308,-2.5308,-2.5908,-2.6751,-2.7418,-2.7961,-2.9057,-2.953,-2.9753,-2.9595,-2.8502,-2.7643,-2.7561,-2.7497,-2.7585,-2.7824,-2.833,-2.8723,-2.8906,-2.8987,-2.8987,-2.8987,-2.8987,-2.8987,-2.8932,-2.8418,-2.7805,-2.6924,-2.6043,-2.5236,-2.4557,-2.4318,-2.4199,-2.4199,-2.417,-2.4084,-2.3865,-2.3671,-2.3533,-2.3329,-2.3335,-2.3259,-2.3126,-2.302,-2.2906,-2.2738,-2.2712,-2.2712,-2.2712,-2.2699,-2.2685,-4.6302,-4.6303,-4.6306,-4.6288,-4.6288,-4.6289,-4.5312,-4.3925,-4.3672,-4.2773,-4.1484,-4.1191,-4.1191,-4.1191,-4.1191,-4.1191,-4.1191,-4.1191,-4.1191,-4.1191,-4.1191,-4.0644,-3.9746,-3.9082,-3.8047,-3.7109,-3.6309,-3.6035,-3.6016,-3.6016,-3.6016,-3.6016,-3.6016,-3.5547,-3.4687,-3.4238,-3.332,-3.23,-3.1614,-3.1215,-3.0796,-3.073,-3.0713,-3.0716,-3.0639,-2.9919,-2.8516,-2.7151,-2.6116,-2.5524,-2.5308,-2.5308,-2.5308,-2.5308,-2.5308,-2.5308,-2.5308,-2.5308,-2.5308,-2.5308,-2.5308,-2.5308,-2.5308,-2.5308,-2.5385,-2.5596,-2.6467,-2.7077,-2.764,-2.8472,-2.941,-2.992,-3.0028,-2.9855,-2.9193,-2.8687,-2.8657,-2.8538,-2.8484,-2.8572,-2.878,-2.9051,-2.9033,-2.901,-2.8987,-2.8987,-2.8987,-2.8987,-2.8913,-2.8209,-2.7523,-2.6715,-2.587,-2.5081,-2.4548,-2.4273,-2.4199,-2.4199,-2.418,-2.4122,-2.3996,-2.3774,-2.3692,-2.3628,-2.3606,-2.3506,-2.3307,-2.3126,-2.2957,-2.2829,-2.2751,-2.2712,-2.2712,-2.2712,-2.2712,-4.6293,-4.6294,-4.63,-4.6301,-4.6302,-4.6266,-4.531,-4.3905,-4.3711,-4.2754,-4.1465,-4.1191,-4.1191,-4.1191,-4.1191,-4.1191,-4.1191,-4.1191,-4.1191,-4.1191,-4.1191,-4.1035,-4.0781,-3.9258,-3.8457,-3.7891,-3.668,-3.6133,-3.6016,-3.6016,-3.6016,-3.6016,-3.6016,-3.5625,-3.5039,-3.4726,-3.3828,-3.2656,-3.2168,-3.1601,-3.0984,-3.0804,-3.0795,-3.0737,-3.0441,-3.0043,-2.9136,-2.8188,-2.7142,-2.5678,-2.5481,-2.5442,-2.5385,-2.5308,-2.5308,-2.5308,-2.5308,-2.5308,-2.5308,-2.5308,-2.5308,-2.5308,-2.5404,-2.5423,-2.5673,-2.625,-2.6909,-2.7313,-2.7626,-2.85,-2.931,-2.9858,-3.0086,-3.0054,-2.9882,-2.9856,-2.9817,-2.9597,-2.9428,-2.9437,-2.9262,-2.9181,-2.9123,-2.9089,-2.9044,-2.9067,-2.9055,-2.9044,-2.872,-2.8004,-2.7379,-2.6744,-2.588,-2.497,-2.4558,-2.4209,-2.4209,-2.419,-2.4199,-2.417,-2.417,-2.4044,-2.3996,-2.3955,-2.3876,-2.3667,-2.3376,-2.3194,-2.3052,-2.2881,-2.2803,-2.2751,-2.2712,-2.2712,-2.2712,-4.6293,-4.6294,-4.63,-4.6301,-4.6301,-4.6264,-4.5309,-4.3729,-4.371,-4.2753,-4.1465,-4.1191,-4.1191,-4.1191,-4.1191,-4.1191,-4.1191,-4.1191,-4.1191,-4.1191,-4.1191,-4.1191,-4.084,-3.9414,-3.8301,-3.7598,-3.6582,-3.6035,-3.6016,-3.6016,-3.6016,-3.6016,-3.5996,-3.5918,-3.5664,-3.5019,-3.4219,-3.3203,-3.2559,-3.1797,-3.1055,-3.0879,-3.0879,-3.0801,-3.017,-2.9645,-2.9188,-2.8396,-2.7745,-2.7296,-2.6713,-2.6183,-2.5654,-2.5462,-2.5481,-2.5481,-2.5385,-2.5346,-2.5308,-2.5346,-2.5327,-2.5442,-2.5904,-2.6308,-2.637,-2.7101,-2.7871,-2.8376,-2.8761,-2.9217,-2.9904,-3.0207,-3.0286,-3.028,-3.0248,-3.0221,-3.0176,-2.9888,-2.9678,-2.9634,-2.9579,-2.9504,-2.9367,-2.9295,-2.9241,-2.9171,-2.9134,-2.9123,-2.8566,-2.7882,-2.7238,-2.6657,-2.5525,-2.466,-2.4504,-2.4228,-2.4228,-2.4228,-2.4228,-2.4218,-2.4218,-2.4199,-2.4123,-2.4113,-2.4123,-2.3873,-2.3547,-2.3405,-2.3289,-2.3084,-2.2881,-2.2816,-2.276,-2.2751,-2.2712,-4.6287,-4.6288,-4.6293,-4.6294,-4.6294,-4.6257,-4.5323,-4.392,-4.3708,-4.2733,-4.1425,-4.1191,-4.1191,-4.1191,-4.1191,-4.1191,-4.1191,-4.1191,-4.1191,-4.1191,-4.1191,-4.1191,-4.082,-3.9551,-3.8281,-3.7734,-3.6582,-3.6074,-3.6016,-3.6016,-3.6016,-3.6016,-3.6016,-3.5996,-3.5996,-3.5527,-3.4648,-3.3555,-3.2988,-3.2187,-3.1113,-3.0918,-3.0918,-3.0859,-3.0341,-3.0003,-2.9919,-2.9495,-2.8956,-2.8521,-2.8038,-2.7416,-2.6703,-2.6505,-2.6505,-2.6486,-2.6058,-2.5942,-2.5904,-2.5577,-2.55,-2.5885,-2.6365,-2.6794,-2.7255,-2.7992,-2.8549,-2.9069,-2.9448,-2.9929,-3.0327,-3.0404,-3.0404,-3.0404,-3.0404,-3.0404,-3.0323,-3.0087,-2.9877,-2.9837,-2.9703,-2.957,-2.9485,-2.9466,-2.9334,-2.9222,-2.9189,-2.9141,-2.8713,-2.8001,-2.7161,-2.6358,-2.5141,-2.4404,-2.434,-2.4257,-2.4257,-2.4257,-2.4266,-2.4266,-2.4257,-2.4228,-2.419,-2.4199,-2.418,-2.4036,-2.3764,-2.3631,-2.3488,-2.3289,-2.3103,-2.296,-2.285,-2.2829,-2.2764,-4.6302,-4.6302,-4.6302,-4.6302,-4.6302,-4.6269,-4.5315,-4.3834,-4.3705,-4.2712,-4.1346,-4.1152,-4.1191,-4.1191,-4.1191,-4.1191,-4.1191,-4.1191,-4.1191,-4.1191,-4.1191,-4.1191,-4.0781,-3.9551,-3.8555,-3.8379,-3.6816,-3.6074,-3.6016,-3.6016,-3.6016,-3.6016,-3.6016,-3.6016,-3.5996,-3.5918,-3.5078,-3.3594,-3.3301,-3.248,-3.1172,-3.0918,-3.0898,-3.082,-3.072,-3.0587,-3.0532,-3.0343,-3.011,-2.9467,-2.9404,-2.9017,-2.8485,-2.7964,-2.7895,-2.7799,-2.6948,-2.664,-2.6601,-2.6135,-2.5923,-2.6697,-2.6986,-2.7351,-2.8088,-2.878,-2.9261,-2.9525,-2.9885,-3.0288,-3.0404,-3.0404,-3.0404,-3.0404,-3.0404,-3.0404,-3.0367,-3.0248,-3.0143,-3.0109,-2.9973,-2.9829,-2.9677,-2.9607,-2.9425,-2.9267,-2.9238,-2.9151,-2.8762,-2.8046,-2.7159,-2.6316,-2.517,-2.445,-2.4331,-2.4284,-2.4284,-2.4321,-2.4312,-2.4303,-2.4303,-2.4238,-2.4191,-2.419,-2.4152,-2.4036,-2.3937,-2.3795,-2.3639,-2.3466,-2.3312,-2.314,-2.301,-2.2906,-2.2816,-4.6302,-4.6302,-4.6302,-4.6302,-4.6302,-4.6302,-4.5291,-4.387,-4.3697,-4.2707,-4.1247,-4.1112,-4.1152,-4.1191,-4.1191,-4.1191,-4.1191,-4.1191,-4.1191,-4.1191,-4.1191,-4.1191,-4.0859,-3.9453,-3.8652,-3.8125,-3.6894,-3.6035,-3.6016,-3.6016,-3.6016,-3.6016,-3.6016,-3.6016,-3.6016,-3.5918,-3.5156,-3.3652,-3.3359,-3.2539,-3.1289,-3.0918,-3.0879,-3.0833,-3.0799,-3.0726,-3.0661,-3.059,-3.0485,-3.0313,-3.0279,-3.0172,-2.9717,-2.8699,-2.8177,-2.7944,-2.7357,-2.7164,-2.7453,-2.6909,-2.6928,-2.7582,-2.8145,-2.8569,-2.903,-2.9602,-2.9948,-3.0096,-3.0212,-3.0404,-3.0404,-3.0404,-3.0404,-3.0404,-3.0404,-3.0404,-3.0398,-3.0355,-3.0317,-3.0292,-3.0221,-3.0006,-2.9711,-2.949,-2.9352,-2.9205,-2.9176,-2.9295,-2.9216,-2.8189,-2.7006,-2.6171,-2.5309,-2.4774,-2.4376,-2.4339,-2.4312,-2.4358,-2.4376,-2.4339,-2.4303,-2.4229,-2.4201,-2.4238,-2.4228,-2.4161,-2.4036,-2.3927,-2.3865,-2.3742,-2.3529,-2.3312,-2.3164,-2.304,-2.2881,-4.6302,-4.6302,-4.6302,-4.6302,-4.6302,-4.6302,-4.5306,-4.3847,-4.3674,-4.2722,-4.1516,-4.111,-4.1132,-4.1152,-4.1191,-4.1191,-4.1191,-4.1191,-4.1191,-4.1191,-4.1191,-4.1191,-4.0996,-3.9414,-3.8769,-3.8125,-3.6934,-3.6016,-3.6016,-3.6016,-3.6016,-3.6016,-3.6016,-3.6016,-3.6016,-3.5976,-3.5019,-3.3789,-3.3301,-3.2578,-3.1074,-3.0918,-3.0879,-3.0859,-3.0826,-3.0767,-3.072,-3.0659,-3.0614,-3.054,-3.0539,-3.0515,-3.0236,-2.9819,-2.922,-2.904,-2.8384,-2.8065,-2.8354,-2.7824,-2.7698,-2.8415,-2.8953,-2.9333,-2.9698,-3.0115,-3.0385,-3.0404,-3.0404,-3.0404,-3.0404,-3.0404,-3.0404,-3.0404,-3.0365,-3.0365,-3.0385,-3.0365,-3.0365,-3.0334,-3.0184,-2.9855,-2.94,-2.9247,-2.92,-2.9147,-2.9118,-2.9286,-2.9495,-2.8306,-2.6972,-2.619,-2.541,-2.4809,-2.4456,-2.4402,-2.4375,-2.4412,-2.4421,-2.4384,-2.4367,-2.4312,-2.4303,-2.4321,-2.4275,-2.4218,-2.417,-2.4074,-2.4044,-2.3986,-2.3774,-2.3562,-2.3342,-2.314,-2.2998,-4.6302,-4.6302,-4.6302,-4.6302,-4.6302,-4.6302,-4.5326,-4.394,-4.371,-4.2717,-4.1237,-4.1106,-4.111,-4.1111,-4.1152,-4.1172,-4.1191,-4.1191,-4.1191,-4.1191,-4.1191,-4.1191,-4.0723,-3.9629,-3.8594,-3.834,-3.6855,-3.6035,-3.6016,-3.6016,-3.6016,-3.6016,-3.6016,-3.6016,-3.6016,-3.6016,-3.4902,-3.3926,-3.334,-3.2539,-3.1328,-3.0918,-3.0918,-3.0918,-3.0854,-3.0807,-3.0774,-3.0755,-3.068,-3.0636,-3.0626,-3.0598,-3.0543,-3.052,-3.0521,-3.0384,-2.9673,-2.9368,-2.9247,-2.8667,-2.8522,-2.9311,-2.9377,-2.9775,-3.0096,-3.0327,-3.0404,-3.0404,-3.0404,-3.0404,-3.0404,-3.0404,-3.0269,-3.0077,-3.0058,-3.0115,-3.0044,-3.0038,-3.0173,-3.0118,-3.0043,-2.973,-2.9264,-2.911,-2.91,-2.9019,-2.8996,-2.9369,-2.9372,-2.82,-2.7021,-2.6255,-2.5522,-2.4854,-2.4524,-2.45,-2.4474,-2.4465,-2.4474,-2.4465,-2.4447,-2.4411,-2.4393,-2.4367,-2.4303,-2.4228,-2.4228,-2.4209,-2.4162,-2.4095,-2.3978,-2.3806,-2.3591,-2.3342,-2.3145,-4.6302,-4.6302,-4.6302,-4.6302,-4.6302,-4.6262,-4.5285,-4.3803,-4.3666,-4.2695,-4.1117,-4.11,-4.1104,-4.1108,-4.1111,-4.1112,-4.1132,-4.1172,-4.1191,-4.1191,-4.1191,-4.1191,-4.0937,-3.9414,-3.8711,-3.8301,-3.6836,-3.6113,-3.6016,-3.6016,-3.6016,-3.6016,-3.6016,-3.6016,-3.6016,-3.6016,-3.5078,-3.3711,-3.334,-3.25,-3.1191,-3.0918,-3.0918,-3.0898,-3.0879,-3.0856,-3.0808,-3.0798,-3.0762,-3.0689,-3.068,-3.065,-3.0593,-3.0595,-3.061,-3.0336,-2.9892,-2.9534,-2.9978,-2.9527,-2.9294,-2.9949,-3.0138,-3.0294,-3.0371,-3.0404,-3.0404,-3.0404,-3.0404,-3.0404,-3.0404,-3.0404,-3.0019,-2.9737,-2.964,-2.9544,-2.9467,-2.9981,-3.0077,-3.009,-3.0055,-2.9613,-2.9125,-2.9075,-2.9013,-2.8945,-2.8953,-2.9334,-2.9243,-2.8173,-2.6756,-2.5854,-2.5458,-2.4865,-2.4637,-2.4607,-2.4568,-2.4534,-2.45,-2.45,-2.4482,-2.4465,-2.443,-2.4394,-2.4312,-2.4303,-2.4303,-2.4294,-2.4257,-2.4182,-2.4106,-2.3988,-2.3816,-2.358,-2.3342,-4.6302,-4.6302,-4.6302,-4.6302,-4.6223,-4.5792,-4.4855,-4.3782,-4.3157,-4.2282,-4.127,-4.1116,-4.1102,-4.1106,-4.1109,-4.111,-4.1111,-4.1132,-4.1172,-4.1191,-4.1191,-4.1172,-4.0742,-3.9492,-3.8633,-3.8163,-3.7011,-3.6074,-3.6015,-3.6016,-3.6016,-3.6016,-3.6016,-3.6016,-3.6016,-3.6016,-3.4961,-3.3633,-3.2519,-3.1641,-3.1094,-3.0918,-3.0918,-3.0918,-3.0918,-3.0879,-3.0859,-3.0855,-3.0828,-3.077,-3.0762,-3.0726,-3.0669,-3.0653,-3.0655,-3.0617,-3.0285,-3.018,-3.0361,-3.0099,-3.018,-3.029,-3.0447,-3.0422,-3.0419,-3.0396,-3.0404,-3.0404,-3.0404,-3.0404,-3.0404,-3.0404,-3.0212,-2.9904,-2.9563,-2.964,-2.964,-2.9833,-3.0096,-3.0096,-3.0019,-2.9544,-2.9069,-2.8808,-2.8733,-2.8673,-2.888,-2.9334,-2.9193,-2.8484,-2.6903,-2.5248,-2.5024,-2.4849,-2.4753,-2.4719,-2.4645,-2.4607,-2.4498,-2.4517,-2.45,-2.4482,-2.4447,-2.4447,-2.4438,-2.4421,-2.4402,-2.4358,-2.4312,-2.4275,-2.4257,-2.4115,-2.3978,-2.3878,-2.3657,-4.6302,-4.6302,-4.6302,-4.6184,-4.5929,-4.5265,-4.4367,-4.3333,-4.2708,-4.1927,-4.1285,-4.1114,-4.1099,-4.1103,-4.1104,-4.1106,-4.1109,-4.111,-4.1131,-4.1171,-4.1171,-4.1151,-4.0603,-3.9509,-3.861,-3.8548,-3.6833,-3.6092,-3.6015,-3.6016,-3.6016,-3.6016,-3.6016,-3.6016,-3.6016,-3.5879,-3.5137,-3.3457,-3.1855,-3.1094,-3.0918,-3.0918,-3.0918,-3.0918,-3.0918,-3.0918,-3.0918,-3.0898,-3.0857,-3.0833,-3.0829,-3.078,-3.0734,-3.0724,-3.0713,-3.0677,-3.0499,-3.0519,-3.0543,-3.0443,-3.0486,-3.049,-3.0485,-3.0469,-3.0428,-3.0419,-3.0402,-3.0402,-3.0402,-3.0396,-3.0385,-3.0404,-3.0135,-3.0,-2.9852,-3.0019,-3.0077,-2.9962,-3.0,-3.0135,-2.9981,-2.9563,-2.9088,-2.8588,-2.8409,-2.8371,-2.8736,-2.9313,-2.8946,-2.8407,-2.7076,-2.5348,-2.5006,-2.4923,-2.4854,-2.4797,-2.4734,-2.466,-2.4555,-2.4498,-2.4508,-2.45,-2.4482,-2.4491,-2.45,-2.4491,-2.4456,-2.4412,-2.4348,-2.4339,-2.4312,-2.4229,-2.4143,-2.4057,-2.3899,-4.6302,-4.6302,-4.6282,-4.5831,-4.5129,-4.5031,-4.4016,-4.263,-4.2435,-4.1849,-4.1168,-4.1109,-4.1111,-4.1112,-4.1117,-4.11,-4.11,-4.1106,-4.1108,-4.1108,-4.1108,-4.1108,-4.0541,-3.9623,-3.8568,-3.8293,-3.685,-3.609,-3.6014,-3.6014,-3.6015,-3.6016,-3.6016,-3.6016,-3.5937,-3.5781,-3.5098,-3.3574,-3.2051,-3.1191,-3.1074,-3.1016,-3.0976,-3.0918,-3.0918,-3.0918,-3.0918,-3.0898,-3.0898,-3.0898,-3.0879,-3.0856,-3.0803,-3.0799,-3.0771,-3.0735,-3.0696,-3.0694,-3.0664,-3.0591,-3.0521,-3.0496,-3.0481,-3.0485,-3.046,-3.0479,-3.0444,-3.0417,-3.0411,-3.0419,-3.0402,-3.0346,-3.0133,-2.9946,-2.9888,-2.9844,-2.9838,-2.9679,-2.9775,-3.0063,-3.0006,-2.9717,-2.9583,-2.9198,-2.88,-2.8761,-2.8986,-2.9544,-2.8621,-2.7948,-2.6973,-2.5811,-2.5291,-2.5037,-2.491,-2.4861,-2.4804,-2.4704,-2.4604,-2.4541,-2.4508,-2.4508,-2.45,-2.45,-2.45,-2.45,-2.45,-2.4456,-2.443,-2.4384,-2.4358,-2.4321,-2.4257,-2.4182,-2.3989,-4.5987,-4.55,-4.55,-4.5304,-4.4894,-4.3858,-4.3021,-4.2376,-4.1849,-4.1439,-4.1109,-4.1109,-4.1109,-4.1109,-4.1111,-4.1115,-4.1098,-4.11,-4.1104,-4.1107,-4.1107,-4.1105,-4.0518,-3.9598,-3.8583,-3.819,-3.6884,-3.6008,-3.6009,-3.6012,-3.6014,-3.6015,-3.6015,-3.6016,-3.5918,-3.5547,-3.4805,-3.4219,-3.3047,-3.2266,-3.1738,-3.166,-3.1445,-3.0918,-3.0918,-3.0918,-3.0918,-3.0918,-3.0918,-3.0918,-3.0918,-3.0898,-3.0859,-3.0859,-3.0859,-3.082,-3.0776,-3.0767,-3.0758,-3.0681,-3.0616,-3.0539,-3.0506,-3.0491,-3.0501,-3.05,-3.0504,-3.0469,-3.0463,-3.0453,-3.0453,-3.0447,-3.0318,-3.0042,-2.9897,-2.9828,-2.9778,-2.9715,-2.9806,-3.0235,-3.0242,-3.0077,-3.0019,-2.9929,-2.9525,-2.9204,-2.9467,-2.9467,-2.8525,-2.7717,-2.6851,-2.5962,-2.5386,-2.5182,-2.5055,-2.4962,-2.4888,-2.476,-2.4642,-2.4596,-2.4557,-2.4508,-2.4508,-2.45,-2.45,-2.45,-2.45,-2.45,-2.4482,-2.4456,-2.4447,-2.4447,-2.4375,-2.4284,-2.4154,-4.5365,-4.4582,-4.4258,-4.417,-4.4053,-4.2923,-4.2259,-4.1927,-4.1402,-4.1109,-4.1109,-4.1109,-4.1109,-4.1109,-4.1109,-4.1111,-4.1115,-4.1116,-4.1099,-4.1101,-4.1101,-4.0964,-4.0297,-3.9437,-3.8421,-3.7948,-3.6916,-3.6022,-3.6005,-3.601,-3.6012,-3.6014,-3.6016,-3.6016,-3.5801,-3.5176,-3.4707,-3.4492,-3.3848,-3.3203,-3.2598,-3.2246,-3.2012,-3.1309,-3.1094,-3.0918,-3.0918,-3.0918,-3.0918,-3.0918,-3.0918,-3.0918,-3.0918,-3.0918,-3.0918,-3.0879,-3.0859,-3.084,-3.082,-3.0757,-3.0677,-3.0623,-3.0598,-3.0563,-3.0539,-3.054,-3.0544,-3.0495,-3.049,-3.049,-3.049,-3.0479,-3.0474,-3.0237,-3.0271,-3.0221,-3.021,-3.018,-3.0252,-3.0425,-3.035,-3.0269,-3.0262,-3.0185,-3.0025,-2.9737,-2.9871,-2.95,-2.8332,-2.7601,-2.7024,-2.614,-2.5336,-2.5253,-2.5228,-2.5103,-2.4968,-2.4867,-2.4772,-2.4689,-2.4637,-2.459,-2.4525,-2.45,-2.45,-2.45,-2.45,-2.45,-2.45,-2.45,-2.4491,-2.4482,-2.4474,-2.4393,-2.4393,-4.4374,-4.3523,-4.2641,-4.2364,-4.2522,-4.2414,-4.1926,-4.13,-4.1147,-4.1109,-4.1109,-4.1109,-4.1109,-4.1109,-4.1109,-4.1109,-4.1111,-4.1111,-4.1111,-4.1112,-4.1094,-4.0642,-3.9881,-3.9061,-3.8241,-3.7301,-3.6483,-3.6018,-3.6003,-3.6006,-3.6008,-3.601,-3.6012,-3.6016,-3.5937,-3.5176,-3.4746,-3.4609,-3.3926,-3.3672,-3.3301,-3.2832,-3.2519,-3.1875,-3.1426,-3.1172,-3.0937,-3.0918,-3.0918,-3.0918,-3.0918,-3.0918,-3.0918,-3.0918,-3.0918,-3.0898,-3.0898,-3.0898,-3.0898,-3.0781,-3.0724,-3.0689,-3.0656,-3.0636,-3.062,-3.0595,-3.0579,-3.053,-3.0506,-3.051,-3.0495,-3.049,-3.0495,-3.0495,-3.0509,-3.0479,-3.0449,-3.0433,-3.0453,-3.0466,-3.0439,-3.0396,-3.0389,-3.0369,-3.0358,-3.0294,-3.0346,-2.9635,-2.8409,-2.7659,-2.7178,-2.6351,-2.5519,-2.5269,-2.5243,-2.5165,-2.5055,-2.4968,-2.4881,-2.4818,-2.4746,-2.4704,-2.4637,-2.4549,-2.4542,-2.4557,-2.4542,-2.4508,-2.45,-2.45,-2.45,-2.45,-2.45,-2.45,-2.4482,-4.338,-4.2574,-4.2237,-4.1807,-4.1411,-4.1437,-4.1276,-4.1069,-4.1076,-4.1108,-4.1109,-4.1109,-4.1109,-4.1109,-4.1109,-4.1109,-4.1109,-4.1109,-4.1109,-4.1109,-4.1051,-4.0542,-3.978,-3.8882,-3.8082,-3.7262,-3.648,-3.6013,-3.6016,-3.6021,-3.6004,-3.6007,-3.6009,-3.6013,-3.5957,-3.5644,-3.5586,-3.5547,-3.5234,-3.4902,-3.4297,-3.3906,-3.3301,-3.2344,-3.1875,-3.1445,-3.0957,-3.0918,-3.0918,-3.0918,-3.0918,-3.0918,-3.0918,-3.0918,-3.0918,-3.0918,-3.0918,-3.0918,-3.0898,-3.0834,-3.0806,-3.0771,-3.073,-3.0694,-3.0664,-3.0617,-3.0598,-3.0579,-3.0557,-3.0573,-3.0579,-3.0579,-3.0559,-3.0554,-3.0545,-3.051,-3.0476,-3.0479,-3.0493,-3.0474,-3.0458,-3.0447,-3.0453,-3.0422,-3.0425,-3.0408,-3.0408,-2.9915,-2.8857,-2.8082,-2.7486,-2.6601,-2.5827,-2.5466,-2.5243,-2.5198,-2.516,-2.5086,-2.5025,-2.4962,-2.4896,-2.484,-2.479,-2.4742,-2.4673,-2.4621,-2.4607,-2.4566,-2.4525,-2.45,-2.45,-2.45,-2.45,-2.45,-2.4491,-4.2421,-4.1653,-4.1577,-4.123,-4.0762,-4.0866,-4.0933,-4.0944,-4.0986,-4.1013,-4.1066,-4.1068,-4.1078,-4.1104,-4.1109,-4.1109,-4.1109,-4.1109,-4.1109,-4.1051,-4.0737,-4.0093,-3.9312,-3.8551,-3.7575,-3.689,-3.6402,-3.6012,-3.6012,-3.6017,-3.6019,-3.6022,-3.6006,-3.6009,-3.5993,-3.5957,-3.5937,-3.5898,-3.5723,-3.5625,-3.5156,-3.4648,-3.3945,-3.2969,-3.2266,-3.1777,-3.1172,-3.0918,-3.0918,-3.0918,-3.0918,-3.0918,-3.0918,-3.0918,-3.0918,-3.0918,-3.0918,-3.0918,-3.0898,-3.0898,-3.0859,-3.0832,-3.0781,-3.0765,-3.0734,-3.0711,-3.0661,-3.0649,-3.0621,-3.0622,-3.063,-3.0645,-3.061,-3.061,-3.058,-3.0528,-3.0521,-3.053,-3.0515,-3.051,-3.0495,-3.049,-3.049,-3.0474,-3.0453,-3.0442,-3.0411,-2.9842,-2.9325,-2.8632,-2.7824,-2.6881,-2.6164,-2.5783,-2.5471,-2.5274,-2.5238,-2.5176,-2.5149,-2.5096,-2.5031,-2.4962,-2.4936,-2.4903,-2.4825,-2.4757,-2.4692,-2.4647,-2.4582,-2.4534,-2.45,-2.45,-2.45,-2.45,-2.45,-4.1454,-4.0726,-4.0564,-4.0531,-4.0537,-4.0707,-4.0777,-4.0791,-4.0795,-4.0886,-4.0987,-4.099,-4.1011,-4.1076,-4.1081,-4.1076,-4.1072,-4.1074,-4.0957,-4.0766,-4.0253,-3.9439,-3.8585,-3.7768,-3.7066,-3.6422,-3.6012,-3.6012,-3.6012,-3.6013,-3.6013,-3.6014,-3.6021,-3.6003,-3.6007,-3.6011,-3.6014,-3.6014,-3.5996,-3.5898,-3.5644,-3.5195,-3.4336,-3.3398,-3.2695,-3.1894,-3.1269,-3.0918,-3.0918,-3.0918,-3.0918,-3.0918,-3.0918,-3.0918,-3.0918,-3.0918,-3.0918,-3.0918,-3.0918,-3.0918,-3.0918,-3.0898,-3.0898,-3.0859,-3.0807,-3.0773,-3.0753,-3.0713,-3.0686,-3.0691,-3.0694,-3.0681,-3.0667,-3.0626,-3.06,-3.0603,-3.0589,-3.0582,-3.0544,-3.053,-3.052,-3.0505,-3.0505,-3.049,-3.0476,-3.0455,-3.0406,-3.0177,-2.9666,-2.9231,-2.8326,-2.7185,-2.6545,-2.6111,-2.5779,-2.5385,-2.5322,-2.5274,-2.5274,-2.5229,-2.5165,-2.5101,-2.5096,-2.5055,-2.4974,-2.4867,-2.4753,-2.4668,-2.4621,-2.4582,-2.4517,-2.45,-2.45,-2.45,-2.45,-4.0803,-4.0557,-4.0519,-4.0496,-4.0512,-4.0574,-4.0654,-4.0781,-4.081,-4.0829,-4.087,-4.085,-4.0875,-4.0887,-4.0867,-4.0855,-4.0875,-4.0809,-4.0443,-4.0091,-3.9625,-3.8717,-3.7932,-3.7283,-3.671,-3.6263,-3.5989,-3.6007,-3.5991,-3.5991,-3.6012,-3.6013,-3.6014,-3.6016,-3.6017,-3.6004,-3.6009,-3.6011,-3.6013,-3.6015,-3.6015,-3.5664,-3.4668,-3.3672,-3.3164,-3.2226,-3.125,-3.0937,-3.0918,-3.0918,-3.0918,-3.0918,-3.0918,-3.0918,-3.0918,-3.0918,-3.0918,-3.0918,-3.0918,-3.0918,-3.0918,-3.0918,-3.0918,-3.0898,-3.0857,-3.083,-3.0799,-3.077,-3.0757,-3.0755,-3.0734,-3.0728,-3.0717,-3.0682,-3.0664,-3.0664,-3.0662,-3.063,-3.0599,-3.0579,-3.0574,-3.0554,-3.0544,-3.0516,-3.0496,-3.0491,-3.0418,-3.0267,-3.0059,-2.9624,-2.8751,-2.7609,-2.6954,-2.6506,-2.5822,-2.5369,-2.5369,-2.5384,-2.5355,-2.5351,-2.5303,-2.5259,-2.5279,-2.5219,-2.5113,-2.4948,-2.4746,-2.4707,-2.4712,-2.4572,-2.4508,-2.4508,-2.45,-2.45,-2.45,-4.0496,-4.0496,-4.0496,-4.0496,-4.0496,-4.0496,-4.0575,-4.0666,-4.0697,-4.0696,-4.0765,-4.0751,-4.0771,-4.0737,-4.0494,-4.028,-4.0261,-3.9807,-3.9442,-3.9186,-3.8848,-3.8026,-3.7296,-3.6785,-3.6323,-3.6007,-3.5942,-3.5966,-3.5955,-3.5988,-3.6012,-3.6012,-3.6012,-3.6002,-3.5981,-3.5989,-3.5994,-3.5979,-3.5986,-3.6012,-3.6014,-3.5956,-3.4902,-3.3769,-3.3418,-3.2422,-3.1172,-3.0937,-3.0918,-3.0918,-3.0918,-3.0918,-3.0918,-3.0918,-3.0918,-3.0918,-3.0918,-3.0918,-3.0918,-3.0918,-3.0918,-3.0918,-3.0918,-3.0898,-3.0898,-3.0857,-3.0855,-3.0832,-3.0805,-3.0796,-3.0795,-3.0794,-3.0765,-3.0737,-3.0732,-3.0726,-3.0704,-3.0675,-3.0661,-3.0633,-3.0626,-3.0607,-3.0575,-3.0546,-3.0534,-3.0545,-3.055,-3.0487,-3.0351,-3.0137,-2.9124,-2.7923,-2.7364,-2.6906,-2.6163,-2.5453,-2.541,-2.5406,-2.5382,-2.5378,-2.5391,-2.5382,-2.5355,-2.5317,-2.5279,-2.5096,-2.4915,-2.484,-2.4804,-2.4673,-2.4555,-2.4541,-2.4524,-2.4508,-2.4508,-4.0496,-4.0496,-4.0496,-4.0496,-4.0496,-4.0496,-4.0504,-4.0496,-4.0508,-4.0579,-4.0668,-4.0681,-4.0639,-4.04,-3.9964,-3.9567,-3.9324,-3.8864,-3.8496,-3.8188,-3.7694,-3.7077,-3.6649,-3.6153,-3.5958,-3.5822,-3.5801,-3.5861,-3.5897,-3.594,-3.598,-3.6007,-3.5985,-3.5972,-3.5953,-3.5919,-3.5897,-3.5863,-3.5916,-3.5957,-3.599,-3.5798,-3.5194,-3.3729,-3.3183,-3.2637,-3.1387,-3.0918,-3.0918,-3.0918,-3.0918,-3.0918,-3.0918,-3.0918,-3.0918,-3.0918,-3.0918,-3.0918,-3.0918,-3.0918,-3.0918,-3.0918,-3.0918,-3.0918,-3.0898,-3.0898,-3.0879,-3.0879,-3.0859,-3.0859,-3.0859,-3.084,-3.0831,-3.0807,-3.0804,-3.0781,-3.0771,-3.073,-3.0709,-3.0677,-3.0659,-3.0646,-3.0614,-3.0564,-3.057,-3.0577,-3.0593,-3.0588,-3.054,-3.0419,-2.9617,-2.8396,-2.7783,-2.7208,-2.6277,-2.5678,-2.5462,-2.5419,-2.5419,-2.5423,-2.5432,-2.5427,-2.5415,-2.5382,-2.5326,-2.5293,-2.5165,-2.5068,-2.4948,-2.4832,-2.4708,-2.4602,-2.4564,-2.4555,-2.4534,-4.0496,-4.0496,-4.0496,-4.0496,-4.0496,-4.0496,-4.0496,-4.0496,-4.0496,-4.0519,-4.053,-4.0499,-4.0212,-3.9727,-3.9374,-3.893,-3.8363,-3.797,-3.7649,-3.7313,-3.6831,-3.6482,-3.6096,-3.5834,-3.5691,-3.5721,-3.5741,-3.5753,-3.5797,-3.5858,-3.5907,-3.5926,-3.5926,-3.5914,-3.5872,-3.5833,-3.5781,-3.5756,-3.5795,-3.5882,-3.5957,-3.5773,-3.523,-3.3961,-3.3221,-3.2499,-3.1464,-3.0918,-3.0918,-3.0918,-3.0918,-3.0918,-3.0918,-3.0918,-3.0918,-3.0918,-3.0918,-3.0918,-3.0918,-3.0918,-3.0918,-3.0918,-3.0918,-3.0918,-3.0918,-3.0918,-3.0918,-3.0918,-3.0918,-3.0918,-3.0918,-3.0898,-3.0879,-3.0879,-3.0859,-3.084,-3.082,-3.0783,-3.0744,-3.0732,-3.0717,-3.0689,-3.0649,-3.0605,-3.0603,-3.0608,-3.0612,-3.0593,-3.0593,-3.0501,-3.0173,-2.9124,-2.8244,-2.7529,-2.6477,-2.5811,-2.5537,-2.5464,-2.5468,-2.5472,-2.5491,-2.5468,-2.5459,-2.5417,-2.5376,-2.5336,-2.5288,-2.5212,-2.5086,-2.4994,-2.4876,-2.4763,-2.4716,-2.4712,-2.4621,-4.0496,-4.0496,-4.0496,-4.0496,-4.0496,-4.0496,-4.0496,-4.0496,-4.0496,-4.0496,-4.0419,-4.0131,-3.9688,-3.9034,-3.8546,-3.8046,-3.7411,-3.7007,-3.6612,-3.6305,-3.6247,-3.5971,-3.5697,-3.5582,-3.559,-3.5623,-3.5645,-3.5674,-3.5704,-3.5768,-3.5804,-3.5804,-3.5804,-3.5813,-3.5788,-3.5709,-3.5687,-3.566,-3.5687,-3.5774,-3.588,-3.5722,-3.5062,-3.3914,-3.3139,-3.2379,-3.1502,-3.0917,-3.0918,-3.0918,-3.0918,-3.0918,-3.0918,-3.0918,-3.0918,-3.0918,-3.0918,-3.0918,-3.0918,-3.0918,-3.0918,-3.0918,-3.0918,-3.0918,-3.0918,-3.0918,-3.0918,-3.0918,-3.0918,-3.0918,-3.0918,-3.0898,-3.0898,-3.0898,-3.0898,-3.0879,-3.0879,-3.0837,-3.0832,-3.0811,-3.0804,-3.0794,-3.0728,-3.0661,-3.0646,-3.0611,-3.0617,-3.0612,-3.0607,-3.0559,-3.023,-2.9669,-2.8668,-2.7411,-2.6102,-2.5673,-2.5538,-2.5507,-2.5507,-2.5507,-2.5499,-2.5503,-2.5503,-2.5456,-2.5425,-2.5432,-2.5364,-2.5303,-2.5243,-2.5154,-2.5043,-2.493,-2.4889,-2.4825,-2.4712,-4.0496,-4.0496,-4.0496,-4.0496,-4.0496,-4.0496,-4.0496,-4.0496,-4.0496,-4.0419,-4.0169,-3.945,-3.92,-3.8565,-3.7546,-3.6949,-3.6462,-3.6154,-3.5712,-3.5615,-3.561,-3.5598,-3.5592,-3.5508,-3.5515,-3.5547,-3.5583,-3.5623,-3.5665,-3.5683,-3.57,-3.5681,-3.5663,-3.564,-3.5621,-3.5635,-3.5645,-3.5623,-3.562,-3.5669,-3.5702,-3.5642,-3.4666,-3.3879,-3.3152,-3.2395,-3.1401,-3.0915,-3.0916,-3.0917,-3.0917,-3.0918,-3.0918,-3.0918,-3.0918,-3.0918,-3.0918,-3.0918,-3.0918,-3.0918,-3.0918,-3.0918,-3.0918,-3.0918,-3.0918,-3.0918,-3.0918,-3.0918,-3.0918,-3.0918,-3.0918,-3.0918,-3.0918,-3.0918,-3.0918,-3.0918,-3.0898,-3.0898,-3.0898,-3.0898,-3.0879,-3.0859,-3.0803,-3.0735,-3.0677,-3.0636,-3.0618,-3.0613,-3.0577,-3.051,-3.0308,-2.9611,-2.8707,-2.7348,-2.6184,-2.5739,-2.5739,-2.5507,-2.5507,-2.5507,-2.5507,-2.5507,-2.5507,-2.5507,-2.5499,-2.5472,-2.5455,-2.5397,-2.5365,-2.5313,-2.5264,-2.5141,-2.4962,-2.4889,-2.4794,-4.0496,-4.0496,-4.0496,-4.0496,-4.0477,-4.0477,-4.0496,-4.0496,-4.0439,-4.015,-3.9419,-3.8681,-3.8257,-3.8219,-3.7219,-3.6481,-3.5885,-3.5538,-3.5519,-3.55,-3.55,-3.55,-3.55,-3.55,-3.55,-3.5508,-3.5528,-3.5522,-3.5581,-3.5593,-3.562,-3.562,-3.562,-3.5599,-3.5607,-3.5599,-3.5553,-3.5534,-3.5547,-3.5581,-3.5408,-3.5083,-3.427,-3.3436,-3.2625,-3.1828,-3.1159,-3.0932,-3.0914,-3.0915,-3.0916,-3.0917,-3.0918,-3.0918,-3.0918,-3.0918,-3.0918,-3.0918,-3.0918,-3.0918,-3.0918,-3.0918,-3.0918,-3.0918,-3.0918,-3.0918,-3.0918,-3.0918,-3.0918,-3.0918,-3.0918,-3.0918,-3.0918,-3.0918,-3.0918,-3.0918,-3.0918,-3.0898,-3.0898,-3.0898,-3.0898,-3.0879,-3.0827,-3.0771,-3.0739,-3.0694,-3.0639,-3.0625,-3.0626,-3.0509,-3.0384,-2.9644,-2.8821,-2.8281,-2.7522,-2.6358,-2.6068,-2.5758,-2.5507,-2.5507,-2.5507,-2.5507,-2.5507,-2.5507,-2.5507,-2.5503,-2.5491,-2.5459,-2.5459,-2.5438,-2.5436,-2.5364,-2.5146,-2.5,-2.4915]},{"header":{"parameterUnit":"m.s-1","parameterCategory":1,"la1":31.0,"la2":29.5877,"lo1":-88.7671,"lo2":-86.6584,"dy":0.0162,"dx":0.0185,"nx":115,"ny":88,"refTime":"2024-06-01T12:00:00:Z","depth":0,"parameterNumber":3,"parameterNumberName":"V-component_of_WINDS"},"data":[0.0,0.0,0.0,0.0,0.0,0.0,0.0,0.0,0.0,0.0,0.0,0.0,0.0,0.0,0.0,0.0,0.0,0.0,0.0,0.0,0.0,0.0,0.0,0.0,0.0,0.0,0.0,0.0,0.0,0.0,0.0,0.0,0.0,0.0,0.0,0.0,0.0,0.0,0.0,0.0,0.0,0.0,0.0,0.0,0.0,0.0,0.0,0.0,0.0,0.0,0.0,0.0,0.0,0.0,0.0,0.0,0.0,0.0,0.0,0.0,0.0,0.0,0.0,0.0,0.0,0.0,0.0,0.0,0.0,0.0,0.0,0.0,0.0,0.0,0.0,0.0,0.0,0.0,0.0,0.0,0.0,0.0,0.0,0.0,0.0,0.0,0.0,0.0,0.0,0.0,0.0,0.0,0.0,0.0,0.0,0.0,0.0,0.0,0.0,0.0,0.0,0.0,0.0,0.0,0.0,0.0,0.0,0.0,0.0,0.0,0.0,0.0,0.0,0.0,0.0,0.0,0.0,0.0,0.0,0.0,0.0,0.0,0.0,0.0,0.0,0.0,0.0,0.0,0.0,0.0,0.0,0.0,0.0,0.0,0.0,0.0,0.0,0.0,0.0,0.0,0.0,0.0,0.0,0.0,0.0,0.0,0.0,0.0,0.0,0.0,0.0,0.0,0.0,0.0,0.0,0.0,0.0,0.0,0.0,0.0,0.0,0.0,0.0,0.0,0.0,0.0,0.0,0.0,0.0,0.0,0.0,0.0,0.0,0.0,0.0,0.0,0.0,0.0,0.0,0.0,0.0,0.0,0.0,0.0,0.0,0.0,0.0,0.0,0.0,0.0,0.0,0.0,0.0,0.0,0.0,0.0,0.0,0.0,0.0,0.0,0.0,0.0,0.0,0.0,0.0,0.0,0.0,0.0,0.0,0.0,0.0,0.0,0.0,0.0,0.0,0.0,0.0,0.0,0.0,0.0,0.0,0.0,0.0,0.0,0.0,0.0,0.0,0.0,0.0,0.0,0.0,0.0,0.0,0.0,0.0,0.0,0.0,0.0,0.0,0.0,0.0,0.0,0.0,0.0,0.0,0.0,0.0,0.0,0.0,0.0,0.0,0.0,0.0,0.0,0.0,0.0,0.0,0.0,0.0,0.0,0.0,0.0,0.0,0.0,0.0,0.0,0.0,0.0,0.0,0.0,0.0,0.0,0.0,0.0,0.0,0.0,0.0,0.0,0.0,0.0,0.0,0.0,0.0,0.0,0.0,0.0,0.0,0.0,0.0,0.0,0.0,0.0,0.0,0.0,0.0,0.0,0.0,0.0,0.0,0.0,0.0,0.0,0.0,0.0,0.0,0.0,0.0,0.0,0.0,0.0,0.0,0.0,0.0,0.0,0.0,0.0,0.0,0.0,0.0,0.0,0.0,0.0,0.0,0.0,0.0,0.0,0.0,0.0,0.0,0.0,0.0,0.0,0.0,0.0,0.0,0.0,0.0,0.0,0.0,0.0,0.0,0.0,0.0,0.0,0.0,0.0,0.0,0.0,0.0,0.0,0.0,0.0,0.0,0.0,0.0,0.0,0.0,0.0,0.0,0.0,0.0,0.0,0.0,0.0,0.0,0.0,0.0,0.0,0.0,0.0,0.0,0.0,0.0,0.0,0.0,0.0,0.0,0.0,0.0,0.0,0.0,0.0,0.0,0.0,0.0,0.0,0.0,0.0,0.0,0.0,0.0,0.0,0.0,0.0,0.0,0.0,0.0,0.0,0.0,0.0,0.0,0.0,0.0,0.0,0.0,0.0,0.0,0.0,0.0,0.0,0.0,0.0,0.0,0.0,0.0,0.0,0.0,0.0,0.0,0.0,0.0,0.0,0.0,0.0,0.0,0.0,0.0,0.0,0.0,0.0,0.0,0.0,0.0,0.0,0.0,0.0,0.0,0.0,0.0,0.0,0.0,0.0,0.0,0.0,0.0,0.0,0.0,0.0,0.0,0.0,0.0,0.0,0.0,0.0,0.0,0.0,0.0,0.0,0.0,0.0,0.0,0.0,0.0,0.0,0.0,0.0,0.0,0.0,0.0,0.0,0.0,0.0,0.0,0.0,0.0,0.0,0.0,0.0,0.0,0.0,0.0,0.0,0.0,0.0,0.0,0.0,0.0,0.0,0.0,0.0,0.0,0.0,0.0,0.0,0.0,0.0,0.0,0.0,0.0,0.0,0.0,0.0,0.0,0.0,0.0,0.0,0.0,0.0,0.0,0.0,0.0,0.0,0.0,0.0,0.0,0.0,0.0,0.0,0.0,0.0,0.0,0.0,0.0,0.0,0.0,0.0,0.0,0.0,0.0,0.0,0.0,0.0,0.0,0.0,0.0,0.0,0.0,0.0,0.0,0.0,0.0,0.0,0.0,0.0,0.0,0.0,0.0,0.0,0.0,0.0,0.0,0.0,0.0,0.0,0.0,0.0,0.0,0.0,0.0,0.0,0.0,0.0,0.0,0.0,0.0,0.0,0.0,0.0,0.0,0.0,0.0,0.0,0.0,0.0,0.0,0.0,0.0,0.0,0.0,0.0,0.0,0.0,0.0,0.0,0.0,0.0,0.0,0.0,0.0,0.0,0.0,0.0,0.0,0.0,0.0,0.0,0.0,0.0,0.0,0.0,0.0,0.0,0.0,0.0,0.0,0.0,0.0,0.0,0.0,0.0,0.0,0.0,0.0,0.0,0.0,0.0,0.0,0.0,0.0,0.0,0.0,0.0,0.0,0.0,0.0,0.0,0.0,0.0,0.0,0.0,0.0,0.0,0.0,0.0,0.0,0.0,0.0,0.0,0.0,0.0,0.0,0.0,0.0,0.0,0.0,0.0,0.0,0.0,0.0,0.0,0.0,0.0,0.0,0.0,0.0,0.0,0.0,0.0,0.0,0.0,0.0,0.0,0.0,0.0,0.0,0.0,0.0,0.0,0.0,0.0,0.0,0.0,0.0,0.0,0.0,0.0,0.0,0.0,0.0,0.0,0.0,0.0,0.0,0.0,0.0,0.0,0.0,0.0,0.0,0.0,0.0,0.0,0.0,0.0,0.0,0.0,0.0,0.0,0.0,0.0,0.0,0.0,0.0,0.0,0.0,0.0,0.0,0.0,0.0,0.0,0.0,0.0,0.0,0.0,0.0,0.0,0.0,0.0,0.0,0.0,0.0,0.0,0.0,0.0,0.0,0.0,0.0,0.0,0.0,0.0,0.0,0.0,0.0,0.0,0.0,0.0,0.0,0.0,0.0,0.0,0.0,0.0,0.0,0.0,0.0,0.0,0.0,0.0,0.0,0.0,0.0,0.0,0.0,0.0,0.0,0.0,0.0,0.0,0.0,0.0,0.0,0.0,0.0,0.0,0.0,0.0,0.0,0.0,0.0,0.0,0.0,0.0,0.0,0.0,0.0,0.0,0.0,0.0,0.0,0.0,0.0,0.0,0.0,0.0,0.0,0.0,0.0,0.0,0.0,0.0,0.0,0.0,0.0,0.0,0.0,0.0,0.0,0.0,0.0,0.0,0.0,0.0,0.0,0.0,0.0,0.0,0.0,0.0,0.0,0.0,0.0,0.0,0.0,0.0,0.0,0.0,0.0,0.0,0.0,0.0,0.0,0.0,0.0,0.0,0.0,0.0,0.0,0.0,0.0,0.0,0.0,0.0,0.0,0.0,0.0,0.0,0.0,0.0,0.0,0.0,0.0,0.0,0.0,0.0,0.0,0.0,0.0,0.0,0.0,0.0,0.0,0.0,0.0,0.0,0.0,0.0,0.0,0.0,0.0,0.0,0.0,0.0,0.0,0.0,0.0,0.0,0.0,0.0,0.0,0.0,0.0,0.0,0.0,0.0,0.0,0.0,0.0,0.0,0.0,0.0,0.0,0.0,0.0,0.0,0.0,0.0,0.0,0.0,0.0,0.0,0.0,0.0,0.0,0.0,0.0,0.0,0.0,0.0,0.0,0.0,0.0,0.0,0.0,0.0,0.0,0.0,0.0,0.0,0.0,0.0,0.0,0.0,0.0,0.0,0.0,0.0,0.0,0.0,0.0,0.0,0.0,0.0,0.0,0.0,0.0,0.0,0.0,0.0,0.0,0.0,0.0,0.0,0.0,0.0,0.0,0.0,0.0,0.0,0.0,0.0,0.0,0.0,0.0,0.0,0.0,0.0,0.0,0.0,0.0,0.0,0.0,0.0,0.0,0.0,0.0,0.0,0.0,0.0,0.0,0.0,0.0,0.0,0.0,0.0,0.0,0.0,-0.3316,0.0,0.0,0.0,0.0,0.0,0.0,0.0,0.0,0.0,0.0,0.0,0.0,0.0,0.0,0.0,0.0,0.0,0.0,0.0,0.0,0.0,0.0,0.0,0.0,0.0,0.0,0.0,0.0,0.0,0.0,0.0,0.0,0.0,0.0,0.0,0.0,0.0,0.0,0.0,0.0,0.0,0.0,0.0,0.0,0.0,0.0,0.0,0.0,0.0,0.0,0.0,0.0,0.0,0.0,0.0,0.0,0.0,0.0,0.0,0.0,0.0,0.0,0.0,0.0,0.0,0.0,0.0,0.0,0.0,0.0,0.0,0.0,0.0,0.0,0.0,0.0,0.0,0.0,0.0,0.0,0.0,0.0,0.0,0.0,0.0,0.0,0.0,0.0,0.0,0.0,0.0,0.0,0.0,0.0,0.0,0.0,0.0,0.0,0.0,0.0,0.0,0.0,0.0,0.0,0.0,0.0,0.0,0.0,0.0,0.0,-0.36,-0.36,-0.36,-0.3566,-0.348,0.0,0.0,0.0,0.0,0.0,0.0,0.0,0.0,0.0,0.0,0.0,0.0,0.0,0.0,0.0,0.0,0.0,0.0,0.0,0.0,0.0,0.0,0.0,0.0,0.0,0.0,0.0,0.0,0.0,0.0,0.0,0.0,0.0,0.0,0.0,0.0,0.0,0.0,0.0,0.0,0.0,0.0,0.0,0.0,0.0,0.0,0.0,0.0,0.0,0.0,0.0,0.0,0.0,0.0,0.0,0.0,0.0,0.0,0.0,0.0,0.0,0.0,0.0,0.0,0.0,0.0,0.0,0.0,0.0,0.0,0.0,0.0,0.0,0.0,0.0,0.0,0.0,0.0,0.0,0.0,0.0,0.0,0.0,0.0,0.0,0.0,0.0,0.0,0.0,0.0,0.0,0.0,0.0,0.0,0.0,0.0,0.0,0.0,0.0,0.0,0.0,0.0,0.0,0.0,0.0,0.0,0.0,0.0,0.0,0.0,0.0,0.0,-0.3703,-0.3686,-0.3677,0.0,0.0,0.0,0.0,0.0,0.0,0.0,0.0,0.0,0.0,0.0,0.0,0.0,0.0,0.0,0.0,0.0,0.0,0.0,0.0,0.0,0.0,0.0,0.0,0.0,0.0,0.0,0.0,0.0,0.0,0.0,0.0,0.0,0.0,0.0,0.0,0.0,0.0,0.0,0.0,0.0,0.0,0.0,0.0,0.0,0.0,0.0,0.0,0.0,0.0,0.0,0.0,0.0,0.0,0.0,0.0,0.0,0.0,0.0,0.0,0.0,0.0,0.0,0.0,0.0,0.0,0.0,0.0,0.0,0.0,0.0,0.0,0.0,0.0,0.0,0.0,0.0,0.0,0.0,0.0,0.0,0.0,0.0,0.0,0.0,0.0,0.0,0.0,0.0,0.0,0.0,0.0,0.0,0.0,0.0,0.0,0.0,0.0,0.0,0.0,0.0,0.0,0.0,0.0,0.0,0.0,0.0,0.0,0.0,0.0,-0.373,-0.3972,-0.395,0.0,-0.3879,0.0,0.0,0.0,0.0,0.0,0.0,0.0,0.0,0.0,0.0,0.0,0.0,0.0,0.0,0.0,0.0,0.0,0.0,0.0,0.0,0.0,0.0,0.0,0.0,0.0,0.0,0.0,0.0,0.0,0.0,0.0,0.0,0.0,0.0,0.0,0.0,0.0,0.0,0.0,0.0,0.0,0.0,0.0,0.0,0.0,0.0,0.0,0.0,0.0,0.0,0.0,0.0,0.0,0.0,0.0,0.0,0.0,0.0,0.0,0.0,0.0,0.0,0.0,0.0,0.0,0.0,0.0,0.0,0.0,0.0,0.0,0.0,0.0,0.0,0.0,0.0,0.0,0.0,0.0,0.0,0.0,0.0,0.0,0.0,0.0,0.0,0.0,0.0,0.0,0.0,0.0,0.0,0.0,0.0,0.0,0.0,0.0,0.0,0.0,0.0,0.0,0.0,0.0,0.0,0.0,0.0,0.0,0.0,0.0,0.0,0.0,-0.3994,-0.3931,-0.388,0.0,0.0,0.0,0.0,0.0,0.0,0.0,0.0,0.0,0.0,0.0,0.0,0.0,0.0,0.0,0.0,0.0,0.0,0.0,0.0,0.0,0.0,0.0,0.0,0.0,0.0,0.0,0.0,0.0,0.0,0.0,0.0,0.0,0.0,0.0,0.0,0.0,0.0,0.0,0.0,0.0,0.0,0.0,0.0,0.0,0.0,0.0,0.0,0.0,0.0,0.0,0.0,0.0,0.0,0.0,0.0,0.0,0.0,0.0,0.0,0.0,0.0,0.0,0.0,0.0,0.0,0.0,0.0,0.0,0.0,0.0,0.0,0.0,0.0,0.0,0.0,0.0,0.0,0.0,0.0,0.0,0.0,0.0,0.0,0.0,0.0,0.0,0.0,0.0,0.0,0.0,0.0,0.0,0.0,0.0,0.0,0.0,0.0,0.0,0.0,0.0,0.0,0.0,0.0,0.0,0.0,0.0,0.0,0.0,0.0,-0.3955,0.0,-0.4131,-0.4033,-0.3949,-0.3853,0.0,0.0,0.0,0.0,0.0,0.0,0.0,0.0,0.0,0.0,0.0,0.0,0.0,0.0,0.0,0.0,0.0,0.0,0.0,0.0,0.0,0.0,0.0,0.0,0.0,0.0,0.0,0.0,0.0,0.0,0.0,0.0,0.0,0.0,0.0,0.0,0.0,0.0,0.0,0.0,0.0,0.0,0.0,0.0,0.0,0.0,0.0,0.0,0.0,0.0,0.0,0.0,0.0,0.0,0.0,0.0,0.0,0.0,0.0,0.0,0.0,0.0,0.0,0.0,0.0,0.0,0.0,0.0,0.0,0.0,0.0,0.0,0.0,0.0,0.0,0.0,0.0,0.0,0.0,0.0,0.0,0.0,0.0,0.0,0.0,0.0,0.0,0.0,0.0,0.0,0.0,0.0,0.0,0.0,0.0,0.0,0.0,0.0,0.0,0.0,0.0,0.0,0.0,0.0,0.0,0.0,0.0,0.0,0.0,-0.4151,-0.4158,-0.446,-0.4457,-0.4216,0.0,0.0,0.0,0.0,0.0,0.0,0.0,0.0,0.0,0.0,0.0,0.0,0.0,0.0,0.0,0.0,0.0,0.0,0.0,0.0,0.0,0.0,0.0,0.0,0.0,0.0,0.0,0.0,0.0,0.0,0.0,0.0,0.0,0.0,0.0,0.0,0.0,0.0,0.0,0.0,0.0,0.0,0.0,0.0,0.0,0.0,0.0,0.0,0.0,0.0,0.0,0.0,0.0,0.0,0.0,0.0,0.0,0.0,0.0,0.0,0.0,0.0,0.0,0.0,0.0,0.0,0.0,0.0,0.0,0.0,0.0,0.0,0.0,0.0,0.0,0.0,0.0,0.0,0.0,0.0,0.0,0.0,0.0,0.0,0.0,0.0,0.0,0.0,0.0,0.0,0.0,0.0,0.0,0.0,0.0,0.0,0.0,0.0,0.0,0.0,0.0,0.0,0.0,0.0,0.0,0.0,0.0,0.0,0.0,-0.3914,-0.3975,-0.423,0.0,-0.4228,-0.3955,0.0,0.0,0.0,0.0,0.0,0.0,0.0,0.0,0.0,0.0,0.0,0.0,0.0,0.0,0.0,0.0,0.0,0.0,0.0,0.0,0.0,0.0,0.0,0.0,0.0,0.0,0.0,0.0,0.0,0.0,0.0,0.0,0.0,0.0,0.0,0.0,0.0,0.0,0.0,0.0,0.0,0.0,0.0,0.0,0.0,0.0,0.0,0.0,0.0,0.0,0.0,0.0,0.0,0.0,0.0,0.0,0.0,0.0,0.0,0.0,0.0,0.0,0.0,0.0,0.0,0.0,0.0,0.0,0.0,0.0,0.0,0.0,0.0,0.0,0.0,0.0,0.0,0.0,0.0,0.0,0.0,0.0,0.0,0.0,0.0,0.0,0.0,0.0,0.0,0.0,0.0,0.0,0.0,0.0,0.0,0.0,0.0,0.0,0.0,0.0,0.0,0.0,0.0,0.0,0.0,0.0,0.0,0.0,0.0,-0.3887,0.0,-0.4463,0.0,-0.4115,-0.3825,0.0,0.0,0.0,0.0,0.0,0.0,0.0,0.0,0.0,0.0,0.0,0.0,0.0,0.0,0.0,0.0,0.0,0.0,0.0,0.0,0.0,0.0,0.0,0.0,0.0,0.0,0.0,0.0,0.0,0.0,0.0,0.0,0.0,0.0,0.0,0.0,0.0,0.0,0.0,0.0,0.0,0.0,0.0,0.0,0.0,0.0,0.0,0.0,0.0,0.0,0.0,0.0,0.0,0.0,0.0,0.0,0.0,0.0,0.0,0.0,0.0,0.0,0.0,0.0,0.0,0.0,0.0,0.0,0.0,0.0,0.0,0.0,0.0,0.0,0.0,0.0,0.0,0.0,0.0,0.0,0.0,0.0,0.0,0.0,0.0,0.0,0.0,0.0,0.0,0.0,0.0,0.0,0.0,0.0,0.0,0.0,0.0,0.0,0.0,0.0,0.0,0.0,0.0,0.0,0.0,0.0,0.0,0.0,-0.3918,-0.4453,-0.4728,-0.4745,-0.4508,-0.4307,-0.3863,0.0,0.0,0.0,0.0,0.0,0.0,0.0,0.0,0.0,0.0,0.0,0.0,0.0,0.0,0.0,0.0,0.0,0.0,0.0,0.0,0.0,0.0,0.0,0.0,0.0,0.0,0.0,0.0,0.0,0.0,0.0,0.0,0.0,0.0,0.0,0.0,0.0,0.0,0.0,0.0,0.0,0.0,0.0,0.0,0.0,0.0,0.0,0.0,0.0,0.0,0.0,0.0,0.0,0.0,0.0,0.0,0.0,0.0,0.0,0.0,0.0,0.0,0.0,0.0,0.0,0.0,0.0,0.0,0.0,0.0,0.0,0.0,0.0,0.0,0.0,0.0,0.0,0.0,0.0,0.0,0.0,0.0,0.0,0.0,0.0,0.0,0.0,0.0,0.0,0.0,0.0,0.0,0.0,0.0,0.0,0.0,0.0,0.0,0.0,0.0,0.0,0.0,0.0,0.0,0.0,0.0,0.0,0.0,0.0,-0.4161,-0.4474,-0.466,-0.4755,-0.4226,-0.3945,0.0,0.0,0.0,0.0,0.0,0.0,0.0,0.0,0.0,0.0,0.0,0.0,0.0,0.0,0.0,0.0,0.0,0.0,0.0,0.0,0.0,0.0,0.0,0.0,0.0,0.0,0.0,0.0,0.0,0.0,0.0,0.0,0.0,0.0,0.0,0.0,0.0,0.0,0.0,0.0,0.0,0.0,0.0,0.0,0.0,0.0,0.0,0.0,0.0,0.0,0.0,0.0,0.0,0.0,0.0,0.0,0.0,0.0,0.0,0.0,0.0,0.0,0.0,0.0,0.0,0.0,0.0,0.0,0.0,0.0,0.0,0.0,0.0,0.0,0.0,0.0,0.0,0.0,0.0,0.0,0.0,0.0,0.0,0.0,0.0,0.0,0.0,0.0,0.0,0.0,0.0,0.0,0.0,0.0,0.0,0.0,0.0,0.0,0.0,0.0,0.0,0.0,0.0,0.0,0.0,0.0,0.0,0.0,0.0,-0.4412,-0.467,-0.4863,-0.4918,-0.4347,-0.4091,-0.4228,0.0,0.0,0.0,0.0,0.0,0.0,0.0,0.0,0.0,0.0,0.0,0.0,0.0,0.0,0.0,0.0,0.0,0.0,0.0,0.0,0.0,0.0,0.0,0.0,0.0,0.0,0.0,0.0,0.0,0.0,0.0,0.0,0.0,0.0,0.0,0.0,0.0,0.0,0.0,0.0,0.0,0.0,0.0,0.0,0.0,0.0,0.0,0.0,0.0,0.0,0.0,0.0,0.0,0.0,0.0,0.0,0.0,0.0,0.0,0.0,0.0,0.0,0.0,0.0,0.0,0.0,0.0,0.0,0.0,0.0,0.0,0.0,0.0,0.0,0.0,0.0,0.0,0.0,0.0,0.0,0.0,0.0,0.0,0.0,0.0,0.0,0.0,0.0,0.0,0.0,0.0,0.0,0.0,0.0,0.0,0.0,0.0,0.0,0.0,0.0,0.0,0.0,0.0,0.0,0.0,0.0,0.0,0.0,-0.5079,-0.5294,-0.5283,-0.4938,-0.4601,-0.4317,0.0,0.0,0.0,0.0,0.0,0.0,0.0,0.0,0.0,0.0,0.0,0.0,0.0,0.0,0.0,0.0,0.0,0.0,0.0,0.0,0.0,0.0,0.0,0.0,0.0,0.0,0.0,0.0,0.0,0.0,0.0,0.0,0.0,0.0,0.0,0.0,0.0,0.0,0.0,0.0,0.0,0.0,0.0,0.0,0.0,0.0,0.0,0.0,0.0,0.0,0.0,0.0,0.0,0.0,0.0,0.0,0.0,0.0,0.0,0.0,0.0,0.0,0.0,0.0,0.0,0.0,0.0,0.0,0.0,0.0,0.0,0.0,0.0,0.0,0.0,0.0,0.0,0.0,0.0,0.0,0.0,0.0,0.0,0.0,0.0,0.0,0.0,0.0,0.0,0.0,0.0,0.0,0.0,0.0,0.0,0.0,0.0,0.0,0.0,0.0,0.0,0.0,0.0,0.0,0.0,0.0,0.0,0.0,0.0,-0.4975,-0.544,-0.5599,-0.5413,-0.4975,-0.4713,0.0,0.0,0.0,0.0,0.0,0.0,0.0,0.0,0.0,0.0,0.0,0.0,0.0,0.0,0.0,0.0,0.0,0.0,0.0,0.0,0.0,0.0,0.0,0.0,0.0,0.0,0.0,0.0,0.0,0.0,0.0,0.0,0.0,0.0,0.0,0.0,0.0,0.0,0.0,0.0,0.0,0.0,0.0,0.0,0.0,0.0,0.0,0.0,0.0,0.0,0.0,0.0,0.0,0.0,0.0,0.0,0.0,0.0,0.0,0.0,0.0,0.0,0.0,0.0,0.0,0.0,0.0,0.0,0.0,0.0,0.0,0.0,0.0,0.0,0.0,0.0,0.0,0.0,0.0,0.0,0.0,0.0,0.0,0.0,0.0,0.0,0.0,0.0,0.0,0.0,0.0,0.0,0.0,0.0,0.0,0.0,0.0,0.0,0.0,0.0,0.0,0.0,0.0,0.0,0.0,0.0,0.0,0.0,-0.4887,-0.5284,-0.5652,-0.5827,-0.5684,-0.5276,-0.4989,0.0,0.0,0.0,0.0,0.0,0.0,0.0,0.0,0.0,0.0,0.0,0.0,0.0,0.0,0.0,0.0,0.0,0.0,0.0,0.0,0.0,0.0,0.0,0.0,0.0,0.0,0.0,0.0,0.0,0.0,0.0,0.0,0.0,0.0,0.0,0.0,0.0,0.0,0.0,0.0,0.0,0.0,0.0,0.0,0.0,0.0,0.0,0.0,0.0,0.0,0.0,0.0,0.0,0.0,0.0,0.0,0.0,0.0,0.0,0.0,0.0,0.0,0.0,0.0,0.0,0.0,0.0,0.0,0.0,0.0,0.0,0.0,0.0,0.0,0.0,0.0,0.0,0.0,0.0,0.0,0.0,0.0,0.0,0.0,0.0,0.0,0.0,0.0,0.0,0.0,0.0,0.0,0.0,0.0,0.0,0.0,0.0,0.0,0.0,0.0,0.0,0.0,0.0,0.0,0.0,0.0,0.0,0.0,-0.5067,-0.5739,-0.5949,-0.5973,-0.58,-0.55,-0.5173,0.0,0.0,0.0,0.0,0.0,0.0,0.0,0.0,0.0,0.0,0.0,0.0,0.0,0.0,0.0,0.0,0.0,0.0,0.0,0.0,0.0,0.0,0.0,0.0,0.0,0.0,0.0,0.0,0.0,0.0,0.0,0.0,0.0,0.0,0.0,0.0,0.0,0.0,0.0,0.0,0.0,0.0,0.0,0.0,0.0,0.0,0.0,0.0,0.0,0.0,0.0,0.0,0.0,0.0,0.0,0.0,0.0,0.0,0.0,0.0,0.0,0.0,0.0,0.0,0.0,0.0,0.0,0.0,0.0,0.0,0.0,0.0,0.0,0.0,0.0,0.0,0.0,0.0,0.0,0.0,0.0,0.0,0.0,0.0,0.0,0.0,0.0,0.0,0.0,0.0,0.0,0.0,0.0,0.0,0.0,0.0,0.0,0.0,0.0,0.0,0.0,0.0,0.0,0.0,0.0,0.0,0.0,0.0,-0.5172,-0.5487,-0.5989,-0.6081,-0.581,-0.5638,-0.53,0.0,0.0,0.0,0.0,0.0,0.0,0.0,0.0,0.0,0.0,0.0,0.0,0.0,0.0,0.0,0.0,0.0,0.0,0.0,0.0,0.0,0.0,0.0,0.0,0.0,0.0,0.0,0.0,0.0,0.0,0.0,0.0,0.0,0.0,0.0,0.0,0.0,0.0,0.0,0.0,0.0,0.0,0.0,0.0,0.0,0.0,0.0,0.0,-0.7627,0.0,0.0,0.0,0.0,0.0,0.0,0.0,0.0,0.0,0.0,0.0,0.0,0.0,0.0,0.0,0.0,0.0,0.0,0.0,0.0,0.0,0.0,0.0,0.0,0.0,0.0,0.0,0.0,0.0,0.0,0.0,0.0,0.0,0.0,0.0,0.0,0.0,0.0,0.0,0.0,0.0,0.0,0.0,0.0,0.0,0.0,0.0,0.0,0.0,0.0,0.0,0.0,0.0,0.0,0.0,0.0,0.0,0.0,0.0,-0.542,-0.5572,-0.5952,-0.604,-0.581,-0.5664,-0.5366,0.0,0.0,0.0,0.0,0.0,0.0,0.0,0.0,0.0,0.0,0.0,0.0,0.0,0.0,0.0,0.0,0.0,0.0,0.0,0.0,0.0,0.0,0.0,0.0,0.0,0.0,0.0,0.0,0.0,0.0,0.0,0.0,0.0,0.0,0.0,0.0,0.0,0.0,0.0,0.0,0.0,0.0,0.0,0.0,0.0,0.0,0.0,0.0,0.0,0.0,0.0,0.0,0.0,0.0,0.0,0.0,0.0,0.0,0.0,0.0,0.0,0.0,0.0,0.0,0.0,0.0,0.0,0.0,0.0,0.0,0.0,0.0,0.0,0.0,0.0,0.0,0.0,0.0,0.0,0.0,0.0,0.0,0.0,0.0,0.0,0.0,0.0,0.0,0.0,0.0,0.0,0.0,0.0,0.0,0.0,0.0,0.0,0.0,0.0,0.0,0.0,0.0,0.0,0.0,0.0,0.0,0.0,-0.5194,-0.5593,-0.5793,-0.5892,-0.5932,-0.5806,-0.5664,-0.537,-0.4838,0.0,0.0,0.0,0.0,0.0,0.0,0.0,0.0,0.0,0.0,0.0,0.0,0.0,0.0,0.0,0.0,0.0,0.0,0.0,0.0,0.0,0.0,0.0,0.0,0.0,0.0,0.0,0.0,0.0,0.0,0.0,0.0,0.0,0.0,0.0,0.0,0.0,0.0,-0.7158,-0.8081,0.0,0.0,0.0,0.0,0.0,0.0,0.0,0.0,-0.8848,0.0,0.0,0.0,0.0,0.0,0.0,0.0,0.0,0.0,0.0,0.0,0.0,0.0,0.0,0.0,0.0,0.0,0.0,0.0,0.0,0.0,0.0,0.0,0.0,0.0,0.0,0.0,0.0,0.0,0.0,0.0,0.0,0.0,0.0,0.0,0.0,0.0,0.0,0.0,0.0,0.0,0.0,0.0,0.0,0.0,0.0,0.0,0.0,0.0,0.0,0.0,0.0,0.0,0.0,0.0,0.0,-0.48,-0.4969,-0.5281,-0.5786,-0.5827,-0.5827,-0.5796,-0.5664,-0.5334,-0.4853,0.0,0.0,0.0,0.0,0.0,0.0,0.0,0.0,0.0,0.0,0.0,0.0,0.0,0.0,0.0,0.0,0.0,0.0,0.0,0.0,0.0,0.0,0.0,0.0,0.0,0.0,0.0,0.0,0.0,0.0,0.0,0.0,0.0,0.0,0.0,0.0,0.0,0.0,0.0,-0.9463,-1.0036,0.0,0.0,0.0,0.0,0.0,0.0,0.0,0.0,-0.9087,0.0,0.0,0.0,0.0,0.0,0.0,0.0,0.0,0.0,0.0,0.0,0.0,0.0,0.0,0.0,0.0,0.0,0.0,0.0,0.0,0.0,0.0,0.0,0.0,0.0,0.0,0.0,0.0,0.0,0.0,0.0,0.0,0.0,0.0,0.0,0.0,0.0,0.0,0.0,0.0,0.0,0.0,0.0,0.0,0.0,0.0,0.0,0.0,0.0,0.0,0.0,0.0,0.0,0.0,0.0,-0.4663,-0.5067,-0.544,-0.5783,-0.5728,-0.5725,-0.5789,-0.5437,-0.5092,0.0,0.0,0.0,0.0,0.0,0.0,0.0,0.0,0.0,0.0,0.0,0.0,0.0,0.0,0.0,0.0,0.0,0.0,0.0,0.0,0.0,0.0,0.0,0.0,0.0,0.0,0.0,0.0,0.0,0.0,0.0,0.0,0.0,0.0,0.0,0.0,0.0,0.0,0.0,0.0,-0.9621,-1.0155,-1.0539,0.0,0.0,0.0,0.0,0.0,0.0,-0.9962,-0.9557,0.0,0.0,0.0,0.0,0.0,0.0,0.0,0.0,0.0,0.0,0.0,0.0,0.0,0.0,0.0,0.0,0.0,0.0,0.0,0.0,0.0,0.0,0.0,0.0,0.0,0.0,0.0,0.0,0.0,0.0,0.0,0.0,0.0,0.0,0.0,0.0,0.0,0.0,0.0,0.0,0.0,0.0,0.0,0.0,0.0,0.0,0.0,0.0,0.0,0.0,0.0,0.0,0.0,0.0,0.0,-0.4494,-0.5119,-0.5525,-0.5739,-0.562,-0.5648,-0.5745,-0.524,-0.4898,0.0,0.0,0.0,0.0,0.0,0.0,0.0,0.0,0.0,0.0,0.0,0.0,0.0,0.0,0.0,0.0,0.0,0.0,0.0,0.0,0.0,0.0,0.0,0.0,0.0,0.0,0.0,0.0,0.0,0.0,0.0,0.0,0.0,0.0,0.0,0.0,0.0,0.0,0.0,0.0,0.0,-1.0468,-1.0846,-1.022,0.0,0.0,0.0,0.0,-1.154,-1.0934,0.0,0.0,0.0,0.0,0.0,0.0,0.0,0.0,0.0,0.0,0.0,0.0,0.0,0.0,0.0,0.0,0.0,0.0,0.0,0.0,0.0,0.0,0.0,0.0,0.0,0.0,0.0,0.0,0.0,0.0,0.0,0.0,0.0,0.0,0.0,0.0,0.0,0.0,0.0,0.0,0.0,0.0,0.0,0.0,0.0,0.0,0.0,0.0,0.0,0.0,0.0,0.0,0.0,0.0,0.0,0.0,-0.446,-0.4709,-0.5095,-0.5576,-0.5501,-0.5494,-0.5606,-0.5251,-0.4995,0.0,0.0,0.0,0.0,0.0,0.0,0.0,0.0,0.0,0.0,0.0,0.0,0.0,0.0,0.0,0.0,0.0,0.0,0.0,0.0,0.0,0.0,0.0,0.0,0.0,0.0,0.0,0.0,0.0,0.0,0.0,0.0,0.0,0.0,0.0,0.0,0.0,0.0,0.0,0.0,0.0,-1.1991,-1.1017,-1.1384,-1.1807,0.0,0.0,-1.1935,-1.2478,-1.2432,0.0,0.0,0.0,0.0,0.0,0.0,0.0,0.0,0.0,0.0,0.0,0.0,0.0,0.0,0.0,0.0,0.0,0.0,0.0,0.0,0.0,0.0,0.0,0.0,0.0,0.0,0.0,0.0,0.0,0.0,0.0,0.0,0.0,0.0,0.0,0.0,0.0,0.0,0.0,0.0,0.0,0.0,0.0,0.0,0.0,0.0,0.0,0.0,0.0,0.0,0.0,0.0,0.0,0.0,0.0,-0.3819,-0.4474,-0.4779,-0.5117,-0.5566,-0.5474,-0.5429,-0.5491,-0.4999,-0.4695,0.0,0.0,0.0,0.0,0.0,0.0,0.0,0.0,0.0,0.0,0.0,0.0,0.0,0.0,0.0,0.0,0.0,0.0,0.0,0.0,0.0,0.0,0.0,0.0,0.0,0.0,0.0,0.0,0.0,0.0,0.0,0.0,0.0,0.0,0.0,0.0,0.0,0.0,0.0,0.0,0.0,0.0,-1.1905,-1.2027,0.0,0.0,0.0,-1.2321,-1.2955,0.0,0.0,0.0,0.0,0.0,0.0,0.0,0.0,0.0,0.0,0.0,0.0,0.0,0.0,0.0,0.0,0.0,0.0,0.0,0.0,0.0,0.0,0.0,0.0,0.0,0.0,0.0,0.0,0.0,0.0,0.0,0.0,0.0,0.0,0.0,0.0,0.0,0.0,0.0,0.0,0.0,0.0,0.0,0.0,0.0,0.0,0.0,0.0,0.0,0.0,0.0,0.0,0.0,0.0,0.0,0.0,0.0,-0.4484,-0.4867,-0.5223,-0.5518,-0.5453,-0.5375,-0.5327,-0.4825,0.0,0.0,0.0,0.0,0.0,0.0,0.0,0.0,0.0,0.0,0.0,0.0,0.0,0.0,0.0,0.0,0.0,0.0,0.0,0.0,0.0,0.0,0.0,0.0,0.0,0.0,0.0,-0.383,0.0,0.0,0.0,0.0,0.0,0.0,0.0,0.0,0.0,0.0,0.0,0.0,0.0,0.0,-1.1573,-1.2551,-1.2615,-1.2799,0.0,0.0,-1.2808,-1.3488,-1.3138,-1.2482,0.0,0.0,0.0,0.0,0.0,0.0,0.0,0.0,0.0,0.0,0.0,0.0,0.0,0.0,0.0,0.0,0.0,0.0,0.0,0.0,0.0,0.0,0.0,0.0,0.0,0.0,0.0,0.0,0.0,0.0,0.0,0.0,0.0,0.0,0.0,0.0,0.0,0.0,0.0,0.0,0.0,0.0,0.0,0.0,0.0,0.0,0.0,0.0,0.0,0.0,0.0,0.0,0.0,0.0,0.0,-0.447,-0.4772,-0.5081,-0.5395,-0.5399,-0.5327,-0.5113,-0.484,-0.4587,0.0,0.0,0.0,0.0,0.0,0.0,0.0,0.0,0.0,0.0,0.0,0.0,0.0,0.0,0.0,0.0,0.0,0.0,0.0,0.0,0.0,0.0,0.0,0.0,0.0,0.0,0.0,0.0,0.0,0.0,0.0,0.0,0.0,0.0,0.0,0.0,0.0,0.0,0.0,0.0,0.0,-1.2208,-1.2625,-1.3323,-1.3948,0.0,0.0,-1.3919,-1.4359,-1.4477,-1.3886,-1.1981,0.0,0.0,0.0,0.0,0.0,0.0,0.0,0.0,0.0,0.0,0.0,0.0,0.0,0.0,0.0,0.0,0.0,0.0,0.0,0.0,0.0,0.0,0.0,0.0,0.0,0.0,0.0,0.0,0.0,0.0,0.0,0.0,0.0,0.0,0.0,0.0,0.0,0.0,0.0,0.0,0.0,0.0,0.0,0.0,0.0,0.0,0.0,0.0,0.0,0.0,0.0,0.0,0.0,-0.3832,-0.4481,-0.4762,-0.5064,-0.5375,-0.5267,-0.5152,-0.4972,-0.4737,-0.4422,0.0,0.0,0.0,0.0,0.0,0.0,0.0,0.0,0.0,0.0,0.0,0.0,0.0,0.0,0.0,0.0,0.0,0.0,0.0,0.0,0.0,0.0,0.0,0.0,0.0,0.0,0.0,0.0,-0.4741,-0.4851,-0.4981,0.0,0.0,0.0,0.0,0.0,0.0,0.0,0.0,0.0,0.0,-1.2422,-1.3314,-1.3929,0.0,0.0,-1.4368,-1.4332,-1.4488,-1.42,-1.3532,-1.2227,-1.1851,0.0,0.0,0.0,0.0,0.0,0.0,0.0,0.0,0.0,0.0,0.0,0.0,0.0,0.0,0.0,0.0,0.0,0.0,0.0,0.0,0.0,0.0,0.0,0.0,0.0,0.0,0.0,0.0,0.0,0.0,0.0,0.0,0.0,0.0,0.0,0.0,0.0,0.0,0.0,0.0,0.0,0.0,0.0,0.0,0.0,0.0,0.0,0.0,0.0,0.0,0.0,0.0,-0.3853,-0.4423,-0.4745,-0.504,-0.532,-0.5186,-0.5029,-0.4918,-0.4651,-0.4326,0.0,0.0,0.0,0.0,0.0,0.0,0.0,0.0,0.0,0.0,0.0,0.0,0.0,0.0,0.0,0.0,0.0,0.0,0.0,0.0,0.0,0.0,0.0,0.0,0.0,0.0,0.0,0.0,-0.4975,-0.5092,-0.5068,0.0,0.0,0.0,0.0,0.0,0.0,0.0,0.0,0.0,0.0,-1.2726,-1.3929,-1.4323,-1.4485,-1.4485,-1.4485,-1.4469,-1.435,-1.4118,-1.353,-1.2274,0.0,0.0,0.0,0.0,0.0,0.0,0.0,0.0,0.0,0.0,0.0,0.0,0.0,0.0,0.0,0.0,0.0,0.0,0.0,0.0,0.0,0.0,0.0,0.0,0.0,0.0,0.0,0.0,0.0,0.0,0.0,0.0,0.0,0.0,0.0,0.0,0.0,0.0,0.0,0.0,0.0,0.0,0.0,0.0,0.0,0.0,0.0,0.0,0.0,0.0,0.0,0.0,0.0,0.0,-0.4197,-0.4662,-0.4955,-0.5096,-0.51,-0.5026,-0.4914,-0.4651,-0.4348,-0.3991,0.0,0.0,0.0,0.0,0.0,0.0,0.0,0.0,0.0,0.0,0.0,0.0,0.0,0.0,0.0,0.0,0.0,0.0,0.0,0.0,0.0,0.0,0.0,0.0,0.0,0.0,-0.4806,-0.5379,-0.5717,0.0,0.0,0.0,0.0,0.0,0.0,0.0,0.0,0.0,0.0,-1.2448,-1.313,-1.4313,-1.4506,-1.4485,-1.4485,-1.4485,-1.4378,-1.3992,-1.4494,-1.4251,0.0,0.0,0.0,0.0,0.0,0.0,0.0,0.0,0.0,0.0,0.0,0.0,0.0,0.0,0.0,0.0,0.0,0.0,0.0,0.0,0.0,0.0,0.0,0.0,0.0,0.0,0.0,0.0,0.0,0.0,0.0,0.0,0.0,0.0,0.0,0.0,0.0,0.0,0.0,0.0,-0.372,-0.3779,0.0,0.0,0.0,0.0,0.0,0.0,0.0,0.0,0.0,0.0,0.0,0.0,-0.3778,-0.4187,-0.4589,-0.484,-0.4951,-0.4891,-0.4816,-0.4769,-0.4597,-0.4303,-0.388,0.0,0.0,0.0,0.0,0.0,0.0,0.0,0.0,0.0,0.0,0.0,0.0,0.0,0.0,0.0,0.0,0.0,0.0,0.0,0.0,0.0,0.0,0.0,0.0,0.0,-0.513,0.0,0.0,0.0,0.0,0.0,0.0,0.0,0.0,0.0,0.0,0.0,-1.1136,-1.234,-1.3075,-1.3727,-1.4385,-1.4485,-1.4485,0.0,0.0,0.0,0.0,0.0,0.0,0.0,0.0,0.0,0.0,0.0,0.0,0.0,0.0,-1.1973,-1.0567,-1.0156,-1.0185,-1.0597,0.0,0.0,0.0,0.0,0.0,0.0,0.0,0.0,0.0,0.0,0.0,0.0,0.0,0.0,0.0,0.0,0.0,0.0,0.0,0.0,0.0,0.0,0.0,0.0,0.0,-0.3294,-0.3571,-0.3906,-0.3989,-0.4101,0.0,-0.4224,-0.4043,0.0,0.0,0.0,0.0,0.0,0.0,0.0,0.0,-0.3826,-0.4187,-0.4541,-0.4738,-0.483,-0.4745,-0.4694,-0.4687,-0.449,-0.425,-0.3958,-0.3593,-0.3293,0.0,0.0,0.0,0.0,0.0,0.0,0.0,0.0,0.0,0.0,0.0,0.0,0.0,0.0,0.0,0.0,0.0,0.0,0.0,0.0,0.0,0.0,0.0,-0.5124,0.0,0.0,0.0,0.0,0.0,0.0,0.0,0.0,0.0,-0.9713,-1.0998,-1.222,-1.302,-1.3671,-1.4203,-1.4478,0.0,0.0,0.0,0.0,0.0,0.0,0.0,-1.4061,-1.3741,-1.3635,-1.3473,-1.3179,-1.3564,-1.3857,-1.3555,0.0,0.0,-1.1689,-1.1162,-1.1087,-1.1479,-1.1346,-1.1493,-1.2637,-1.2775,-1.2921,0.0,0.0,0.0,0.0,0.0,0.0,0.0,0.0,0.0,0.0,0.0,0.0,0.0,0.0,0.0,0.0,0.0,-0.1765,0.0,0.0,-0.3022,-0.336,-0.3888,-0.4106,-0.4286,-0.4442,-0.4747,-0.4746,-0.4491,-0.3931,0.0,0.0,0.0,0.0,0.0,0.0,-0.3948,-0.419,-0.4535,-0.4684,-0.4713,-0.4713,-0.4684,-0.4677,-0.4382,-0.4204,-0.4206,-0.3826,-0.352,-0.3316,-0.2988,0.0,0.0,0.0,0.0,0.0,0.0,0.0,0.0,0.0,0.0,0.0,0.0,0.0,0.0,0.0,0.0,0.0,0.0,0.0,0.0,-0.4516,0.0,0.0,0.0,0.0,0.0,0.0,0.0,0.0,0.0,0.0,-1.0993,-1.2,-1.302,-1.3791,0.0,0.0,0.0,0.0,-1.4485,-1.4485,-1.4515,-1.4368,-1.4012,-1.4503,-1.4696,-1.3909,0.0,0.0,-1.3695,-1.4275,-1.4531,-1.373,-1.388,-1.3977,-1.3529,-1.2759,-1.2348,-1.2665,-1.2185,-1.1989,-1.2634,-1.2747,-1.2657,0.0,0.0,0.0,0.0,0.0,0.0,0.0,0.0,0.0,0.0,0.0,0.0,0.0,0.0,0.0,0.0,0.0,0.0,-0.3399,-0.36,-0.3715,-0.3917,-0.4197,-0.4262,-0.4425,-0.4679,-0.4685,-0.4788,-0.4897,-0.4667,-0.4192,-0.3531,0.0,0.0,0.0,0.0,-0.4028,-0.422,-0.4433,-0.4556,-0.4556,-0.4556,-0.4556,-0.4556,-0.4446,-0.4351,-0.4197,-0.3994,-0.3778,-0.352,-0.3244,0.0,0.0,0.0,0.0,0.0,0.0,0.0,0.0,0.0,0.0,0.0,0.0,0.0,0.0,0.0,0.0,0.0,0.0,0.0,-0.517,-0.5348,-0.5614,0.0,0.0,0.0,0.0,0.0,0.0,0.0,0.0,0.0,-1.25,-1.3167,-1.3654,0.0,0.0,-1.4485,-1.4485,-1.4485,-1.4485,-1.4485,0.0,0.0,0.0,-1.4601,-1.4744,-1.4773,-1.5022,-1.5146,-1.4912,-1.5068,-1.5156,-1.4883,-1.4436,-1.4065,-1.3938,-1.35,-1.3081,-1.2908,-1.2946,-1.3212,-1.371,-1.3785,-1.3935,0.0,0.0,0.0,0.0,0.0,0.0,0.0,0.0,0.0,0.0,0.0,0.0,0.0,-0.0031,-0.058,0.0,0.0,0.0,-0.3566,-0.363,-0.3773,-0.406,-0.4436,-0.439,-0.454,-0.487,-0.474,-0.4803,-0.5096,-0.5015,-0.4674,-0.4068,0.0,0.0,-0.3853,-0.3998,-0.4156,-0.4301,-0.4447,-0.4491,-0.4491,-0.4491,-0.4491,-0.4491,-0.4491,-0.4392,-0.42,-0.4075,-0.391,-0.3696,-0.3399,-0.3133,0.0,0.0,0.0,0.0,0.0,0.0,0.0,0.0,0.0,0.0,0.0,-0.4369,-0.3903,0.0,0.0,0.0,-0.4462,-0.511,-0.5961,-0.6059,0.0,0.0,0.0,0.0,0.0,0.0,0.0,-0.9421,-1.0705,-1.1854,-1.272,-1.3378,-1.385,-1.4101,-1.435,-1.4545,-1.4556,0.0,-1.4586,-1.4684,-1.4764,-1.4804,-1.4834,-1.484,-1.4936,-1.5255,-1.5332,-1.541,-1.542,-1.542,-1.542,-1.5361,-1.499,-1.4504,-1.4172,-1.3899,-1.3564,-1.3032,-1.3113,-1.3406,-1.3716,-1.3884,-1.4258,0.0,0.0,0.0,0.0,0.0,0.0,0.0,0.0,0.0,0.0,0.0,0.0,0.0,0.0,-0.1416,0.0,-0.0982,-0.2529,-0.3221,-0.3227,-0.3414,-0.3923,-0.4684,-0.4572,-0.4697,-0.5013,-0.4876,-0.4946,-0.514,-0.5127,-0.5006,-0.4728,-0.4614,-0.4436,-0.4264,-0.4241,-0.4335,-0.4508,-0.4508,-0.4505,-0.4491,-0.4491,-0.4491,-0.4491,-0.4481,-0.4382,-0.4197,-0.4065,-0.3913,-0.3795,-0.3499,-0.3236,-0.3035,0.0,0.0,0.0,0.0,0.0,0.0,0.0,0.0,0.0,0.0,0.0,0.0,0.0,0.0,0.0,-0.5164,0.0,-0.6566,-0.664,0.0,0.0,0.0,-0.7607,-0.7647,-0.8771,-0.9425,-0.9038,0.0,0.0,-1.2182,0.0,-1.3791,-1.4417,-1.4485,-1.4536,-1.4686,-1.4715,-1.4775,-1.4941,-1.5009,-1.5,-1.5,-1.5098,-1.5225,-1.5362,-1.542,-1.542,-1.542,-1.542,-1.542,-1.542,-1.5352,-1.5059,-1.4241,-1.4026,-1.3763,-1.3042,-1.2978,-1.2992,-1.3065,-1.3368,-1.38,0.0,0.0,0.0,0.0,0.0,0.0,0.0,0.0,0.0,0.0,0.0,0.0,0.0,-0.0036,-0.0935,-0.1216,-0.1145,-0.2658,-0.3349,-0.3385,-0.4058,-0.4506,-0.4687,-0.466,-0.4825,-0.5134,-0.5016,-0.5142,-0.5477,-0.5399,-0.5213,-0.5033,-0.4961,-0.4813,-0.4599,-0.4672,-0.4718,-0.4636,-0.4636,-0.461,-0.4494,-0.4491,-0.4491,-0.4487,-0.4355,-0.4257,-0.422,-0.3988,-0.3829,-0.3812,-0.3622,-0.346,-0.3309,-0.2993,0.0,0.0,0.0,0.0,0.0,0.0,0.0,0.0,0.0,-0.5447,-0.4476,0.0,-0.5766,0.0,-0.5678,-0.625,-0.686,-0.7128,0.0,0.0,-0.8147,-0.8362,-0.8745,-0.9079,-0.9605,-1.0451,-1.1445,-1.2335,-1.3054,-1.3798,-1.4327,-1.4485,-1.4485,-1.4565,-1.4686,-1.4715,-1.4784,-1.497,-1.5098,-1.5156,-1.5147,-1.5254,-1.5352,-1.542,-1.542,-1.542,-1.542,-1.542,-1.542,-1.5371,-1.4835,-1.4387,-1.4153,-1.3633,-1.3174,-1.2969,-1.3186,-1.343,-1.343,-1.3525,-1.3718,0.0,0.0,0.0,0.0,0.0,0.0,0.0,0.0,0.0,0.0,0.0,0.0,0.0,0.0,-0.0829,-0.0979,-0.0716,-0.2293,-0.3006,-0.3044,-0.3907,-0.451,-0.4849,-0.476,-0.4879,-0.5164,-0.511,-0.523,-0.5448,-0.5504,-0.5382,-0.5237,-0.5233,-0.5152,-0.5023,-0.4942,-0.4843,-0.4694,-0.4651,-0.4576,-0.4494,-0.4491,-0.4491,-0.4491,-0.4385,-0.428,-0.4126,-0.3982,-0.3802,-0.3605,-0.3607,-0.3501,-0.3279,-0.3049,-0.2947,0.0,0.0,0.0,0.0,0.0,0.0,0.0,0.0,0.0,0.0,0.0,-0.6479,-0.6291,-0.6586,-0.7002,-0.7569,-0.7919,-0.825,-0.8711,-0.8884,-0.9119,-0.9377,-0.9524,-0.987,-1.0585,-1.1096,-1.1737,-1.2504,-1.2934,-1.3277,-1.3571,-1.3881,-1.4219,-1.4627,-1.4715,-1.4775,-1.5039,-1.5156,-1.5235,-1.5293,-1.5362,-1.542,-1.542,-1.542,-1.542,-1.542,-1.542,-1.542,-1.5371,-1.4845,-1.4328,-1.4124,-1.3607,-1.3125,-1.2978,-1.3113,-1.3272,-1.3296,-1.3296,-1.343,0.0,0.0,0.0,0.0,0.0,0.0,0.0,0.0,0.0,0.0,0.0,0.0,0.0,0.0,-0.0789,-0.0709,-0.0118,-0.1608,-0.2425,-0.2542,-0.3402,-0.4226,-0.5012,-0.4871,-0.493,-0.5144,-0.517,-0.5263,-0.5361,-0.5499,-0.5518,-0.5426,-0.5405,-0.5395,-0.5382,-0.5104,-0.4891,-0.4721,-0.4597,-0.4511,-0.4491,-0.4491,-0.4491,-0.4491,-0.447,-0.4331,-0.4008,-0.3994,-0.3809,-0.3396,-0.3534,-0.3483,-0.3202,-0.3135,-0.3097,0.0,-0.3092,0.0,0.0,0.0,0.0,0.0,0.0,0.0,0.0,-0.678,-0.7226,-0.7524,-0.7584,-0.7819,-0.8355,-0.8671,-0.8938,-0.9191,-0.9511,-0.974,-0.9753,-0.9993,-1.0174,-1.0174,-1.0494,-1.0926,-1.149,-1.1569,-1.1872,-1.252,-1.3039,-1.3623,-1.438,-1.4617,-1.4804,-1.5127,-1.5128,-1.51,-1.5216,-1.5274,-1.5312,-1.5293,-1.5381,-1.5391,-1.5312,-1.5312,-1.5293,-1.5205,-1.4824,-1.4453,-1.4085,-1.3675,-1.3301,-1.2974,-1.2929,-1.2954,-1.2939,-1.2929,-1.3051,0.0,0.0,0.0,0.0,0.0,0.0,0.0,0.0,0.0,0.0,0.0,0.0,0.0,0.0,-0.0163,-0.0162,-0.0081,-0.1067,-0.1879,-0.2542,-0.3402,-0.4226,-0.4976,-0.4993,-0.5057,-0.5236,-0.5153,-0.53,-0.5638,-0.5451,-0.5434,-0.5545,-0.5457,-0.5395,-0.5392,0.0,0.0,0.0,-0.4721,-0.4617,-0.4498,-0.4491,-0.4491,-0.4487,-0.4348,0.0,-0.4004,-0.3994,-0.39,-0.3724,-0.3737,0.0,0.0,0.0,0.0,0.0,0.0,0.0,0.0,0.0,0.0,0.0,-0.6695,-0.6856,-0.6573,-0.7275,-0.7759,-0.7819,-0.8063,-0.8275,-0.8395,-0.8851,-0.9158,-0.9217,-0.9684,-1.0033,-1.0047,-1.0294,-1.0506,-1.0506,-1.0993,-1.1365,-1.1483,-1.1965,-1.2328,-1.2381,-1.2604,-1.2978,-1.3593,-1.4261,-1.4745,-1.4981,-1.4869,-1.4724,-1.4761,-1.4865,-1.4941,-1.4941,-1.5205,-1.5264,-1.498,-1.495,-1.4766,-1.4465,-1.4033,-1.376,-1.3643,-1.3281,-1.3032,-1.29,-1.2915,-1.2915,-1.2915,-1.2915,-1.2929,0.0,0.0,0.0,0.0,0.0,0.0,0.0,0.0,0.0,0.0,0.0,0.0,0.0,0.0,0.0,0.0,0.0,-0.0883,-0.1743,-0.2543,-0.3402,-0.4226,-0.5018,-0.5018,-0.5054,-0.5165,-0.5177,-0.5301,-0.5529,-0.5444,-0.5485,-0.5586,-0.547,-0.5395,-0.5395,-0.5395,-0.5248,-0.4921,-0.4769,-0.4644,-0.4498,-0.4491,-0.4491,-0.4487,0.0,0.0,0.0,0.0,0.0,0.0,0.0,0.0,0.0,0.0,0.0,-0.3778,-0.3634,-0.3822,-0.45,-0.5098,-0.5793,-0.6539,-0.7369,-0.7749,-0.7511,-0.7889,-0.821,-0.835,-0.8504,-0.8591,-0.8604,-0.9112,-0.9459,-0.9451,-0.9987,-1.0365,-1.0347,-1.0499,-1.0586,-1.0624,-1.0863,-1.1052,-1.1083,-1.1327,-1.1538,-1.1569,-1.1849,-1.212,-1.252,-1.3442,-1.4216,-1.4493,-1.4563,-1.4552,-1.4589,-1.4645,-1.4719,-1.4824,-1.5127,-1.5107,-1.4561,-1.4639,-1.4648,-1.4182,-1.3789,-1.3516,-1.3477,-1.3189,-1.2915,-1.2915,-1.2915,-1.2915,-1.2915,-1.2915,-1.2915,0.0,0.0,0.0,0.0,0.0,0.0,0.0,0.0,0.0,0.0,0.0,0.0,0.0,0.0,0.0,0.0,0.0,-0.0734,-0.1567,-0.2519,-0.3251,-0.4068,-0.4979,-0.5018,-0.5018,-0.5018,-0.5168,-0.5307,-0.5391,-0.5405,-0.5487,-0.5557,-0.544,-0.5386,-0.5395,-0.5395,-0.5262,-0.4962,-0.4809,-0.4657,-0.4535,-0.4505,-0.4491,-0.4491,-0.4491,-0.4392,-0.4227,-0.4217,-0.4078,-0.3724,-0.3812,-0.3819,-0.371,-0.3808,-0.3887,-0.3984,-0.3994,-0.4232,-0.4753,-0.5439,-0.6213,-0.7011,-0.7916,-0.845,-0.8476,-0.8476,-0.8576,-0.8784,-0.8778,-0.8798,-0.8884,-0.9359,-0.9706,-0.9789,-1.0265,-1.0586,-1.0586,-1.0539,-1.0499,-1.0512,-1.053,-1.0512,-1.0506,-1.0616,-1.0566,-1.0589,-1.1041,-1.1392,-1.1565,-1.2599,-1.3579,-1.3883,-1.3997,-1.4145,-1.4238,-1.4255,-1.4385,-1.4382,-1.4779,-1.4798,-1.4262,-1.4262,-1.4328,-1.389,-1.3613,-1.3418,-1.3359,-1.3105,-1.2925,-1.2915,-1.2915,-1.2915,-1.2915,-1.2915,-1.2915,0.0,0.0,0.0,0.0,0.0,0.0,0.0,0.0,0.0,0.0,0.0,0.0,0.0,0.0,0.0,0.0,0.0,-0.0124,-0.1013,0.0,-0.2606,-0.3483,-0.4979,-0.5018,-0.5018,-0.5018,-0.5015,-0.5121,-0.5283,-0.5197,-0.5258,-0.549,-0.5383,-0.5352,-0.5402,-0.5395,-0.5274,-0.5069,-0.4931,-0.4816,-0.4692,-0.4556,-0.4491,-0.4491,-0.4491,-0.4395,-0.4207,-0.4365,-0.4375,-0.4142,-0.4149,-0.4123,-0.4126,-0.4018,-0.3999,-0.3994,-0.3994,-0.4077,-0.431,-0.5336,-0.6597,-0.8013,-0.8534,-0.8744,-0.8744,-0.8751,-0.8764,-0.8778,-0.8778,-0.8884,-0.9131,-0.9472,-0.976,-1.0013,-1.0347,-1.0586,-1.0566,-1.0327,-1.018,-1.018,-1.0174,-1.0187,-1.02,-1.0419,-1.0466,-1.0305,-1.0489,-1.0816,-1.1233,-1.2209,-1.3021,-1.3286,-1.3227,-1.3137,-1.3272,-1.324,-1.3385,-1.3344,-1.3798,-1.4005,-1.351,-1.352,-1.3494,-1.3139,-1.3076,-1.3008,-1.3023,-1.2964,-1.2915,-1.2915,-1.2915,-1.2915,-1.2915,-1.2915,-1.2915,0.0,0.0,0.0,0.0,0.0,0.0,0.0,0.0,0.0,0.0,0.0,0.0,0.0,0.0,0.0,0.0,0.0,0.0,-0.0658,-0.1824,-0.1821,-0.2738,-0.4226,-0.4345,-0.4582,-0.4979,-0.5018,-0.5093,-0.527,-0.5153,-0.5284,-0.5582,-0.5486,-0.544,-0.5405,-0.5395,-0.5361,-0.5254,-0.5033,-0.4843,-0.4694,-0.4566,-0.4491,-0.4491,-0.4491,-0.446,-0.4365,-0.4457,-0.4423,-0.4227,-0.4223,-0.4223,-0.4194,-0.413,-0.4153,-0.4253,-0.426,-0.429,-0.4358,-0.553,-0.6844,-0.8249,-0.858,-0.8718,-0.8778,-0.8778,-0.8778,-0.8778,-0.8778,-0.8831,-0.8971,-0.9237,-0.9559,-0.9846,-1.0013,-1.0184,-1.0261,-1.006,-0.9886,-0.9893,-1.0027,-1.0053,-0.99,-1.014,-1.0207,-0.996,-1.002,-1.0228,-1.0523,-1.1033,-1.167,-1.2377,-1.2677,-1.282,-1.2896,-1.2957,-1.3009,-1.3077,-1.3489,-1.3487,-1.3055,-1.2998,-1.3039,-1.2856,-1.2808,-1.2832,-1.2891,-1.2915,-1.2915,-1.2915,-1.2915,-1.2915,-1.2915,-1.2915,-1.2915,0.0,0.0,0.0,0.0,0.0,0.0,0.0,0.0,0.0,0.0,0.0,0.0,0.0,0.0,0.0,0.0,0.0,0.0,-0.0458,-0.1267,-0.1311,-0.2074,-0.3402,-0.3519,-0.3949,-0.4662,-0.474,-0.4893,-0.5193,-0.5143,-0.5251,-0.5547,-0.5573,-0.5481,-0.5399,-0.5395,-0.5395,-0.5378,-0.5101,-0.4891,-0.4745,-0.4586,-0.4491,-0.4491,-0.4491,-0.4491,-0.4491,-0.4491,-0.444,-0.4281,-0.4267,-0.4271,-0.4271,-0.4267,-0.4345,-0.4474,-0.4491,-0.4629,-0.4897,-0.5819,-0.6983,-0.8235,-0.8468,-0.8606,-0.8718,-0.8752,-0.8778,-0.8778,-0.8778,-0.8831,-0.8911,-0.9084,-0.9337,-0.9639,-0.9715,-0.9829,-0.9953,-0.976,-0.9586,-0.9613,-0.9757,-0.9813,-0.9699,-0.984,-0.992,-0.9782,-0.9608,-0.9596,-0.9832,-0.9951,-1.0417,-1.1162,-1.1922,-1.2404,-1.2654,-1.2721,-1.2737,-1.2877,-1.3129,-1.3016,-1.2648,-1.2739,-1.2846,-1.267,-1.2652,-1.27,-1.2832,-1.2856,-1.2856,-1.2881,-1.2915,-1.2915,-1.2915,-1.2915,-1.2915,0.0,0.0,0.0,0.0,0.0,0.0,0.0,0.0,0.0,0.0,0.0,0.0,0.0,0.0,0.0,0.0,0.0,0.0,-0.0462,-0.1208,-0.132,-0.1762,-0.2582,-0.262,-0.3088,-0.3832,-0.3949,-0.4345,-0.4937,-0.504,-0.5115,-0.5219,-0.531,-0.5378,-0.5416,-0.5395,-0.5395,-0.5392,-0.5196,-0.5009,-0.4891,-0.4641,-0.4491,-0.4491,-0.4491,-0.4491,-0.4491,-0.4491,-0.4484,-0.447,-0.4467,-0.4467,-0.4467,-0.4467,-0.4474,-0.4491,-0.4491,-0.4928,-0.5905,-0.6281,-0.6907,-0.8055,-0.8348,-0.8474,-0.86,-0.8626,-0.8659,-0.8752,-0.8778,-0.8884,-0.9131,-0.9184,-0.9304,-0.9599,-0.9662,-0.9729,-0.9679,-0.9431,-0.9223,-0.9257,-0.9311,-0.9256,-0.9297,-0.9519,-0.9686,-0.9639,-0.9299,-0.9146,-0.9377,-0.9552,-0.9708,-1.0049,-1.0733,-1.1572,-1.2009,-1.2156,-1.2211,-1.2227,-1.2252,-1.2302,-1.233,-1.236,-1.2385,-1.2527,-1.2495,-1.2554,-1.2652,-1.2725,-1.2783,-1.2856,-1.2891,-1.2915,-1.2915,-1.2915,-1.2915,0.0,0.0,0.0,0.0,0.0,0.0,0.0,0.0,0.0,0.0,0.0,0.0,0.0,0.0,0.0,0.0,0.0,0.0,-0.017,-0.0504,-0.0529,-0.0954,-0.1725,-0.1801,-0.2231,-0.3049,-0.3558,-0.3949,-0.4343,-0.4851,-0.519,-0.5129,-0.5209,-0.5253,-0.5324,-0.5269,-0.5292,-0.5388,-0.5209,-0.5032,-0.4881,-0.4707,-0.4583,-0.4498,-0.4491,-0.4491,-0.4491,-0.4491,-0.4491,-0.4491,-0.4491,-0.4491,-0.4491,-0.4491,-0.4491,-0.4491,-0.4491,-0.4846,-0.5609,-0.6041,-0.6691,-0.7616,-0.8049,-0.8342,-0.8474,-0.8547,-0.8633,-0.8685,-0.8752,-0.8864,-0.8944,-0.8958,-0.9078,-0.9304,-0.9272,-0.9232,-0.9371,-0.9165,-0.8958,-0.8964,-0.9104,-0.9138,-0.9011,-0.9085,-0.9239,-0.9324,-0.9151,-0.9144,-0.9419,-0.9432,-0.9532,-0.9824,-1.0165,-1.0659,-1.1393,-1.1619,-1.1744,-1.1977,-1.2076,-1.2126,-1.215,-1.2175,-1.2234,-1.2382,-1.2382,-1.2431,-1.2554,-1.2652,-1.2725,-1.2783,-1.2856,-1.2915,-1.2915,-1.2915,-1.2915,0.0,0.0,0.0,0.0,0.0,0.0,0.0,0.0,0.0,0.0,0.0,0.0,0.0,0.0,0.0,0.0,0.0,0.0,0.0,0.0,0.0,-0.0322,-0.0911,-0.0943,-0.1371,-0.2151,-0.2776,-0.3324,-0.3791,-0.4494,-0.4944,-0.509,-0.5113,-0.5128,-0.5202,-0.5127,-0.5156,-0.5282,-0.5214,-0.509,-0.4948,-0.483,-0.466,-0.4511,-0.4491,-0.4491,-0.4491,-0.4491,-0.4491,-0.4491,-0.4491,-0.4491,-0.4491,-0.4491,-0.4491,-0.4491,-0.4491,-0.4736,-0.5277,-0.5719,-0.6258,-0.6934,-0.7568,-0.7975,-0.8096,-0.8342,-0.8494,-0.8547,-0.8646,-0.8699,-0.8778,-0.8778,-0.8878,-0.9051,-0.8891,-0.8905,-0.9051,-0.8891,-0.8791,-0.8831,-0.8958,-0.9024,-0.8831,-0.8811,-0.8918,-0.9164,-0.919,-0.9317,-0.9586,-0.9521,-0.9506,-0.9797,-0.9624,-0.9967,-1.0828,-1.1057,-1.1309,-1.1669,-1.1852,-1.1877,-1.2026,-1.2101,-1.211,-1.2234,-1.2249,-1.2298,-1.2406,-1.2529,-1.2652,-1.27,-1.2798,-1.2915,-1.2915,-1.2915,-1.2915,0.0,0.0,0.0,0.0,0.0,0.0,0.0,0.0,0.0,0.0,0.0,0.0,0.0,0.0,0.0,0.0,0.0,0.0,0.0,0.0,0.0,0.0,-0.0041,-0.0079,-0.051,-0.1293,-0.1566,-0.2347,-0.3675,-0.383,-0.4284,-0.5018,-0.4905,-0.4923,-0.501,-0.5042,-0.509,-0.5153,-0.5272,-0.527,-0.5086,-0.4945,-0.4758,-0.4535,-0.4491,-0.4491,-0.4491,-0.4491,-0.4491,-0.4491,-0.4491,-0.4491,-0.4491,-0.4491,-0.4491,-0.4491,-0.4491,-0.4736,-0.5171,-0.5363,-0.5632,-0.6209,-0.6831,-0.7214,-0.7369,-0.7863,-0.8215,-0.8374,-0.8401,-0.8533,-0.8725,-0.8752,-0.8791,-0.8818,-0.8805,-0.8824,-0.8811,-0.8818,-0.8785,-0.8811,-0.8871,-0.8878,-0.8811,-0.8778,-0.9005,-0.9191,-0.9216,-0.9371,-0.9679,-0.9699,-0.9583,-0.9395,-0.9336,-0.9506,-1.0244,-1.0456,-1.0719,-1.1108,-1.136,-1.1494,-1.1828,-1.2101,-1.2076,-1.211,-1.2126,-1.2175,-1.2274,-1.2372,-1.2505,-1.2627,-1.2798,-1.2881,-1.2915,-1.2915,-1.2915,0.0,0.0,0.0,0.0,0.0,0.0,0.0,0.0,0.0,0.0,0.0,0.0,0.0,0.0,0.0,0.0,0.0,0.0,0.0,0.0,0.0,0.0,0.0,0.0,-0.0118,-0.0471,-0.1019,-0.1879,-0.2815,-0.2971,-0.3426,-0.4121,-0.4145,-0.4342,-0.4805,-0.4888,-0.4913,-0.5063,-0.519,-0.5153,-0.5103,-0.4989,-0.4816,-0.4651,-0.4539,-0.4491,-0.4491,-0.4491,-0.4491,-0.4491,-0.4491,-0.4491,-0.4491,-0.4491,-0.4491,-0.4491,-0.4491,-0.4598,-0.4791,-0.5117,-0.5386,-0.5605,-0.6177,-0.6534,-0.6691,-0.7208,-0.7643,-0.7777,-0.8182,-0.8454,-0.8533,-0.8613,-0.8692,-0.8778,-0.8778,-0.8778,-0.8778,-0.8778,-0.8778,-0.8805,-0.8924,-0.9058,-0.9091,-0.9245,-0.9479,-0.971,-0.9764,-0.992,-1.0117,-0.9976,-0.9695,-0.9492,-0.9205,-0.9031,-0.9253,-0.9718,-1.0046,-1.0482,-1.0787,-1.1057,-1.136,-1.1594,-1.1628,-1.2051,-1.2076,-1.2101,-1.22,-1.2348,-1.2455,-1.2603,-1.2783,-1.2832,-1.2915,-1.2856,-1.2866,0.0,0.0,0.0,0.0,0.0,0.0,0.0,0.0,0.0,0.0,0.0,0.0,0.0,0.0,0.0,0.0,0.0,0.0,0.0,0.0,0.0,0.0,0.0,0.0,0.0,0.0,-0.0588,-0.1333,-0.2035,-0.2113,-0.2543,-0.3317,-0.3248,-0.3581,-0.4251,-0.4355,-0.4514,-0.4849,-0.5054,-0.5101,-0.5067,-0.4998,-0.4911,-0.4819,-0.4668,-0.4539,-0.4494,-0.4491,-0.4491,-0.4491,-0.4491,-0.4491,-0.4491,-0.4491,-0.4491,-0.4491,-0.4491,-0.4491,-0.4515,-0.4846,-0.5034,-0.5062,-0.5578,-0.5932,-0.5964,-0.6556,-0.6966,-0.73,-0.773,-0.8178,-0.844,-0.8611,-0.8728,-0.8751,-0.8778,-0.8778,-0.8778,-0.8778,-0.8831,-0.8938,-0.9084,-0.9224,-0.9351,-0.9552,-0.978,-1.008,-1.009,-1.0241,-1.0452,-1.0291,-0.9889,-0.9699,-0.9379,-0.9078,-0.9044,-0.9237,-0.9562,-0.9969,-1.0174,-1.049,-1.0981,-1.1167,-1.1444,-1.1902,-1.2076,-1.2076,-1.215,-1.2308,-1.2455,-1.2578,-1.2627,-1.2676,-1.2735,-1.2759,-1.2759,0.0,0.0,0.0,0.0,0.0,0.0,0.0,0.0,0.0,0.0,0.0,0.0,0.0,0.0,0.0,0.0,0.0,0.0,0.0,0.0,0.0,0.0,0.0,0.0,0.0,0.0,0.0,-0.0471,-0.1254,-0.1293,-0.1684,-0.2338,-0.2376,-0.2695,-0.338,-0.3478,-0.3868,-0.4453,-0.4791,-0.5017,-0.51,-0.5061,-0.5076,-0.5042,-0.4806,-0.4626,-0.4511,-0.4494,-0.4491,-0.4491,-0.4491,-0.4491,-0.4491,-0.4491,-0.4491,-0.4491,-0.4491,-0.4491,-0.4491,-0.4546,-0.457,-0.4625,-0.5007,-0.5304,-0.5391,-0.5882,-0.6408,-0.6872,-0.7284,-0.7728,-0.8399,-0.87,-0.8833,-0.8683,-0.8831,-0.8864,-0.8825,-0.8798,-0.8891,-0.9131,-0.9257,-0.9357,-0.9593,-0.9766,-0.9927,-1.0114,-1.018,-1.0261,-1.0526,-1.0466,-1.0271,-0.9846,-0.9506,-0.9239,-0.9005,-0.8831,-0.9159,-0.9432,-0.9588,-0.9847,-1.0668,-1.1057,-1.141,-1.1819,-1.2076,-1.2076,-1.2126,-1.2258,-1.2308,-1.2431,-1.248,-1.2554,-1.2603,-1.2627,-1.2578,0.0,0.0,0.0,0.0,0.0,0.0,0.0,0.0,0.0,0.0,0.0,0.0,0.0,0.0,0.0,0.0,0.0,0.0,0.0,0.0,0.0,0.0,0.0,0.0,0.0,0.0,0.0,0.0,0.0,0.0,-0.0823,-0.1485,-0.1633,-0.1971,-0.2622,-0.2666,-0.3061,-0.3775,-0.392,-0.4253,-0.4815,-0.4958,-0.4951,-0.4959,-0.4884,-0.4775,-0.4626,-0.4549,-0.4491,-0.4491,-0.4491,-0.4491,-0.4491,-0.4491,-0.4491,-0.4491,-0.4491,-0.4491,-0.4491,-0.4491,-0.4491,-0.4515,-0.468,-0.4736,-0.4791,-0.5254,-0.572,-0.608,-0.6492,-0.706,-0.7801,-0.8118,-0.8474,-0.9073,-0.918,-0.9159,-0.9084,-0.9078,-0.909,-0.921,-0.9564,-0.983,-0.9987,-1.0114,-1.0305,-1.0392,-1.0401,-1.0499,-1.0539,-1.0452,-1.014,-0.976,-0.9546,-0.9284,-0.8964,-0.8778,-0.8956,-0.9106,-0.9185,-0.9465,-1.0259,-1.077,-1.1175,-1.1644,-1.1902,-1.2076,-1.2101,-1.2175,-1.2258,-1.2308,-1.2406,-1.2455,-1.2505,-1.248,-1.2455,0.0151,0.0151,0.005,0.0,0.0,0.0,0.0,0.0,0.0,0.0,0.0,0.0,0.0,0.0,0.0,0.0,0.0,0.0,0.0,0.0,0.0,0.0,0.0,0.0,0.0,0.0,0.0,0.0,0.0,0.0,-0.0275,-0.0745,-0.0823,-0.1185,-0.1793,-0.189,-0.2233,-0.2875,-0.305,-0.3485,-0.4176,-0.4451,-0.4605,-0.4816,-0.4892,-0.4806,-0.469,-0.4629,-0.4549,-0.4505,-0.4491,-0.4491,-0.4491,-0.4491,-0.4491,-0.4491,-0.4491,-0.4491,-0.4491,-0.4491,-0.4491,-0.4491,-0.4491,-0.4491,-0.4543,-0.4846,-0.5096,-0.5482,-0.5881,-0.6461,-0.7205,-0.7546,-0.8086,-0.9047,-0.9214,-0.9301,-0.9291,-0.9342,-0.9444,-0.959,-0.9857,-1.012,-1.0301,-1.0439,-1.0586,-1.0586,-1.0586,-1.0586,-1.0553,-1.0439,-1.0137,-0.982,-0.9606,-0.9271,-0.8878,-0.8778,-0.8778,-0.8831,-0.8883,-0.929,-0.9899,-1.0097,-1.0405,-1.1234,-1.1678,-1.1877,-1.1952,-1.2101,-1.2209,-1.2283,-1.2308,-1.2308,-1.2298,-1.2298,-1.2274,0.0404,0.0353,0.0101,0.0,0.0,0.0,0.0,0.0,0.0,0.0,0.0,0.0,0.0,0.0,0.0,0.0,0.0,0.0,0.0,0.0,0.0,0.0,0.0,0.0,0.0,0.0,0.0,0.0,0.0,0.0,0.0,0.0,0.0,-0.0346,-0.096,-0.1022,-0.1386,-0.204,-0.2253,-0.2683,-0.3384,-0.3618,-0.3949,-0.4511,-0.467,-0.4662,-0.447,-0.4575,-0.4614,-0.4511,-0.4491,-0.4491,-0.4491,-0.4491,-0.4491,-0.4491,-0.4491,-0.4491,-0.4491,-0.4491,-0.4491,-0.4491,-0.4491,-0.4491,-0.4515,-0.4574,-0.4803,-0.5233,-0.5482,-0.5977,-0.6634,-0.6983,-0.7598,-0.8461,-0.901,-0.9326,-0.945,-0.9612,-0.9786,-0.9963,-1.0103,-1.0241,-1.0519,-1.0573,-1.0586,-1.0586,-1.0586,-1.0586,-1.0566,-1.0445,-1.0244,-0.9963,-0.9606,-0.9279,-0.8878,-0.8778,-0.8778,-0.8778,-0.8804,-0.9166,-0.9614,-0.9795,-0.9994,-1.0795,-1.1293,-1.1553,-1.1778,-1.1877,-1.2051,-1.215,-1.215,-1.2101,-1.2101,-1.215,-1.2175,0.0404,0.0353,0.0101,0.0,0.0,0.0,0.0,0.0,0.0,0.0,0.0,0.0,0.0,0.0,0.0,0.0,0.0,0.0,0.0,0.0,0.0,0.0,0.0,0.0,0.0,0.0,0.0,0.0,0.0,0.0,0.0,0.0,0.0,0.0,0.0,0.0,-0.0681,-0.1284,-0.139,-0.178,-0.2382,-0.2683,-0.2852,-0.305,-0.3727,-0.3977,-0.3936,-0.4311,-0.4539,-0.4498,-0.4491,-0.4491,-0.4491,-0.4491,-0.4491,-0.4491,-0.4491,-0.4491,-0.4491,-0.4491,-0.4491,-0.4491,-0.4491,-0.4491,-0.4491,-0.4491,-0.4685,-0.4958,-0.5113,-0.5498,-0.6276,-0.658,-0.7006,-0.7723,-0.8782,-0.9586,-0.976,-0.994,-1.004,-1.0127,-1.0276,-1.0454,-1.0521,-1.0586,-1.0586,-1.0586,-1.0586,-1.0586,-1.0566,-1.0378,-1.012,-0.98,-0.9479,-0.9185,-0.8938,-0.8851,-0.8778,-0.8778,-0.8857,-0.9035,-0.9491,-0.9865,-1.0141,-1.0601,-1.0635,-1.0846,-1.1217,-1.1477,-1.1703,-1.2026,-1.2076,-1.2076,-1.2076,-1.2101,-1.2126,0.0758,0.0707,0.0455,0.0353,0.0303,0.0202,0.0198,0.0144,0.0,0.0,0.0,0.0,0.0,0.0,0.0,0.0,0.0,0.0,0.0,0.0,0.0,0.0,0.0,0.0,0.0,0.0,0.0,0.0,0.0,0.0,0.0,0.0,0.0,0.0,0.0,0.0,0.0,-0.0564,-0.0655,-0.0988,-0.1648,-0.1779,-0.2047,-0.2283,-0.295,-0.3277,-0.3659,-0.424,-0.4517,-0.4501,-0.4491,-0.4491,-0.4491,-0.4491,-0.4491,-0.4491,-0.4491,-0.4491,-0.4491,-0.4491,-0.4491,-0.4491,-0.4491,-0.4491,-0.4505,-0.4542,-0.4667,-0.4805,-0.4874,-0.5213,-0.5717,-0.6155,-0.6588,-0.7167,-0.8233,-0.8976,-0.907,-0.9376,-0.96,-0.9768,-1.0121,-1.0466,-1.046,-1.0523,-1.0586,-1.0586,-1.0586,-1.0586,-1.0559,-1.0267,-0.9983,-0.969,-0.9384,-0.9098,-0.8904,-0.8805,-0.8778,-0.8778,-0.8831,-0.8989,-0.9211,-0.9666,-0.9814,-0.9969,-1.002,-1.0251,-1.0744,-1.1217,-1.1603,-1.1852,-1.2002,-1.2076,-1.2076,-1.2076,-1.2076,0.1212,0.1162,0.0909,0.0808,0.0758,0.0555,0.0445,0.0335,0.0143,0.0,0.0,0.0,0.0,0.0,0.0,0.0,0.0,0.0,0.0,0.0,0.0,0.0,0.0,0.0,0.0,0.0,0.0,0.0,0.0,0.0,0.0,0.0,0.0,0.0,0.0,0.0,0.0,0.0,0.0,0.0,-0.0879,-0.1008,-0.1244,-0.1644,-0.2296,-0.3025,-0.3739,-0.4307,-0.4542,-0.4528,-0.4522,-0.4515,-0.4505,-0.4491,-0.4491,-0.4491,-0.4491,-0.4491,-0.4491,-0.4491,-0.4491,-0.4491,-0.4508,-0.4511,-0.4556,-0.4658,-0.4745,-0.4816,-0.484,-0.5057,-0.53,-0.5871,-0.6224,-0.656,-0.7139,-0.7409,-0.7642,-0.8312,-0.8892,-0.893,-0.9614,-0.9977,-1.0206,-1.0301,-1.0428,-1.0364,-1.0396,-1.0428,-1.0347,-1.0089,-0.9864,-0.9668,-0.9356,-0.9058,-0.8878,-0.8752,-0.8752,-0.8745,-0.8778,-0.8857,-0.8857,-0.914,-0.9211,-0.9316,-0.9465,-0.9925,-1.0592,-1.1032,-1.1368,-1.1753,-1.1902,-1.2002,-1.2076,-1.2076,-1.2076,0.1212,0.1162,0.0909,0.0808,0.0808,0.0707,0.0593,0.0382,0.0334,0.0187,0.0,0.0,0.0,0.0,0.0,0.0,0.0,0.0,0.0,0.0,0.0,0.0,0.0,0.0,0.0,0.0,0.0,0.0,0.0,0.0,0.0,0.0,0.0,0.0,0.0,0.0,0.0,0.0,0.0,0.0,0.0,0.0,0.0,0.0,-0.1647,-0.2887,-0.394,-0.4371,-0.4487,-0.4568,-0.462,-0.4587,-0.4552,-0.4518,-0.4522,-0.4522,-0.4505,-0.4498,-0.4491,-0.4498,-0.4494,-0.4515,-0.4597,-0.4668,-0.465,-0.4779,-0.4914,-0.4972,-0.5039,-0.5152,-0.5306,-0.5496,-0.5716,-0.5851,-0.5914,-0.6046,-0.6174,-0.7279,-0.8091,-0.8253,-0.8447,-0.8705,-0.9224,-0.9448,-0.9678,-1.0009,-1.0174,-1.0206,-1.0081,-0.9908,-0.9679,-0.9505,-0.9133,-0.8824,-0.8738,-0.8639,-0.8639,-0.8639,-0.8699,-0.8725,-0.8725,-0.8778,-0.8929,-0.8956,-0.8929,-0.9524,-1.0208,-1.0482,-1.0736,-1.1259,-1.1753,-1.1877,-1.1943,-1.2002,-1.2076,0.1414,0.1364,0.1212,0.1162,0.1162,0.106,0.089,0.0719,0.0477,0.0326,0.0181,0.009,0.0,0.0,0.0,0.0,0.0,0.0,0.0,0.0,0.0,0.0,0.0,0.0,0.0,0.0,0.0,0.0,0.0,0.0,0.0,0.0,0.0,0.0,0.0,0.0,0.0,0.0,0.0,0.0,0.0,0.0,0.0,0.0,-0.1358,-0.2625,-0.3277,-0.4145,-0.4457,-0.4581,-0.4629,-0.468,-0.4678,-0.4674,-0.4674,-0.467,-0.4624,-0.4604,-0.4597,-0.4539,-0.4525,-0.4593,-0.4679,-0.4724,-0.4806,-0.4904,-0.5002,-0.5093,-0.5192,-0.5277,-0.5382,-0.5395,-0.5395,-0.5395,-0.5395,-0.5395,-0.562,-0.6498,-0.7242,-0.7405,-0.7924,-0.8409,-0.8769,-0.8833,-0.939,-0.9919,-1.0015,-1.0034,-0.9957,-0.9744,-0.9485,-0.9237,-0.8872,-0.8612,-0.8559,-0.8501,-0.8501,-0.8501,-0.8533,-0.8533,-0.856,-0.8639,-0.8745,-0.8778,-0.8831,-0.9106,-0.9692,-0.9909,-1.0244,-1.0736,-1.1175,-1.151,-1.1769,-1.1852,-1.1977,0.1566,0.1566,0.1566,0.1566,0.1566,0.1363,0.1236,0.11,0.0715,0.0513,0.0361,0.0135,0.0,0.0,0.0,0.0,0.0,0.0,0.0,0.0,0.0,0.0,0.0,0.0,0.0,0.0,0.0,0.0,0.0,0.0,0.0,0.0,0.0,0.0,0.0,0.0,0.0,0.0,0.0,0.0,0.0,0.0,0.0,0.0,-0.1173,-0.2172,-0.2839,-0.3692,-0.4399,-0.4601,-0.4624,-0.4693,-0.4799,-0.4836,-0.4887,-0.487,-0.4752,-0.4697,-0.4691,-0.4638,-0.46,-0.4707,-0.4758,-0.4823,-0.4921,-0.5042,-0.5127,-0.5206,-0.5303,-0.5375,-0.5395,-0.5395,-0.5395,-0.5395,-0.5395,-0.5395,-0.5491,-0.5914,-0.6235,-0.64,-0.692,-0.7437,-0.8021,-0.835,-0.9102,-0.9722,-0.9748,-0.9824,-0.9693,-0.9554,-0.9252,-0.9061,-0.8728,-0.8479,-0.8407,-0.8421,-0.8421,-0.8374,-0.8401,-0.8427,-0.8427,-0.8553,-0.8685,-0.8745,-0.885,-0.9106,-0.9309,-0.9614,-0.9943,-1.0295,-1.0685,-1.1099,-1.141,-1.1703,-1.1877,0.1566,0.1566,0.1566,0.1566,0.1566,0.1566,0.1384,0.1197,0.1097,0.0792,0.045,0.0359,0.018,0.0,0.0,0.0,0.0,0.0,0.0,0.0,0.0,0.0,0.0,0.0,0.0,0.0,0.0,0.0,0.0,0.0,0.0,0.0,0.0,0.0,0.0,0.0,0.0,0.0,0.0,0.0,0.0,0.0,0.0,-0.0639,-0.1143,-0.1846,-0.2716,-0.3249,-0.3811,-0.4496,-0.4593,-0.4644,-0.4773,-0.4706,-0.4747,-0.4833,-0.4793,-0.4759,-0.481,-0.4745,-0.4748,-0.4863,-0.4931,-0.5005,-0.5086,-0.522,-0.5281,-0.5341,-0.5361,-0.5395,-0.5395,-0.5395,-0.5395,-0.5395,-0.5395,-0.5395,-0.5428,-0.5557,-0.5653,-0.5785,-0.6046,-0.6412,-0.7099,-0.7661,-0.8174,-0.8616,-0.8781,-0.9061,-0.9247,-0.9125,-0.8971,-0.882,-0.8684,-0.844,-0.8275,-0.8321,-0.8342,-0.8268,-0.8275,-0.8321,-0.8368,-0.8521,-0.86,-0.8613,-0.8699,-0.8883,-0.9106,-0.9335,-0.9491,-0.9744,-1.02,-1.0685,-1.1049,-1.1393,-1.1753,0.1566,0.1566,0.1566,0.1566,0.1566,0.1566,0.1533,0.134,0.1239,0.1025,0.077,0.0493,0.0314,0.018,0.0045,0.0,0.0,0.0,0.0,0.0,0.0,0.0,0.0,0.0,0.0,0.0,0.0,0.0,0.0,0.0,0.0,0.0,0.0,0.0,0.0,0.0,0.0,0.0,0.0,0.0,0.0,0.0,0.0,0.0,-0.0908,-0.1444,-0.1946,-0.2514,-0.3015,-0.3682,-0.3851,-0.4187,-0.4485,-0.4623,-0.4661,-0.4795,-0.4813,-0.4822,-0.4872,-0.4844,-0.4884,-0.4978,-0.5073,-0.5172,-0.5237,-0.5344,-0.5392,-0.5395,-0.5395,-0.5395,-0.5395,-0.5395,-0.5395,-0.5395,-0.5388,-0.5388,-0.5392,-0.5388,-0.5388,-0.5451,-0.5935,-0.6278,-0.635,-0.6853,-0.7213,-0.7504,-0.7768,-0.8191,-0.8667,-0.8553,-0.8375,-0.8258,-0.8134,-0.8151,-0.8035,-0.8135,-0.8215,-0.8168,-0.8141,-0.8189,-0.8242,-0.8342,-0.8368,-0.8374,-0.8507,-0.8725,-0.8857,-0.9061,-0.914,-0.9237,-0.9666,-1.0123,-1.0668,-1.1099,-1.1435,0.1566,0.1566,0.1566,0.1566,0.1566,0.1566,0.1533,0.1486,0.1335,0.1212,0.1035,0.0762,0.0538,0.0404,0.0224,0.0,0.009,0.0,0.0,0.0,0.0,0.0,0.0,0.0,0.0,0.0,0.0,0.0,0.0,0.0,0.0,0.0,0.0,0.0,0.0,0.0,0.0,0.0,0.0,0.0,0.0,0.0,0.0,0.0,-0.0572,-0.0908,-0.1276,-0.1679,-0.2246,-0.2781,-0.3084,-0.3351,-0.4123,-0.4289,-0.4425,-0.4677,-0.4799,-0.4849,-0.4861,-0.4894,-0.4933,-0.5069,-0.5147,-0.525,-0.5341,-0.5382,-0.5395,-0.5395,-0.5395,-0.5395,-0.5395,-0.5395,-0.5371,-0.5337,-0.5334,-0.5344,-0.5298,-0.533,-0.5354,-0.5548,-0.5942,-0.6015,-0.5954,-0.6022,-0.6351,-0.68,-0.7062,-0.7425,-0.7802,-0.7721,-0.7589,-0.7498,-0.75,-0.7688,-0.7762,-0.7901,-0.7981,-0.8008,-0.7981,-0.8008,-0.8062,-0.8109,-0.8162,-0.8242,-0.8427,-0.8639,-0.8699,-0.8752,-0.8824,-0.8949,-0.9204,-0.9588,-1.0105,-1.0668,-1.1133,0.1566,0.1566,0.1566,0.1566,0.1566,0.1565,0.1581,0.1482,0.1477,0.1304,0.1122,0.1031,0.0852,0.0628,0.0448,0.0359,0.0269,0.0,0.0,0.0,0.0,0.0,0.0,0.0,0.0,0.0,0.0,0.0,0.0,0.0,0.0,0.0,0.0,0.0,0.0,0.0,0.0,0.0,0.0,0.0,0.0,0.0,0.0,0.0,0.0,-0.0438,-0.0874,-0.1176,-0.1545,-0.2112,-0.2246,-0.2614,-0.3215,-0.3384,-0.3758,-0.4196,-0.4534,-0.4678,-0.4748,-0.4842,-0.4935,-0.5045,-0.5213,-0.5342,-0.5355,-0.5395,-0.5395,-0.5395,-0.5395,-0.5395,-0.5395,-0.5395,-0.5327,-0.5243,-0.5226,-0.5209,-0.5196,-0.532,-0.5337,-0.5373,-0.5672,-0.5488,-0.5332,-0.5389,-0.5508,-0.5955,-0.6386,-0.6738,-0.6953,-0.6894,-0.692,-0.6897,-0.6941,-0.7101,-0.7327,-0.7494,-0.7687,-0.7794,-0.7901,-0.7901,-0.7955,-0.8008,-0.8115,-0.8221,-0.8401,-0.8427,-0.8427,-0.8454,-0.8501,-0.8653,-0.8863,-0.9178,-0.9562,-1.0131,-1.0668,0.1566,0.1566,0.1566,0.1566,0.1564,0.1599,0.1566,0.1529,0.1507,0.1384,0.1261,0.1166,0.0942,0.0762,0.0583,0.0493,0.0404,0.0269,0.0135,0.0045,0.0,0.009,0.0,0.0,0.0,0.0291,0.0242,0.0,0.0118,0.0,0.0,0.0,0.0,0.0,0.0,0.0,0.0,0.0,0.0,0.0,0.0,0.0,0.0,0.0,0.0,0.0,0.0,-0.0505,-0.0841,-0.1377,-0.1545,-0.1846,-0.238,-0.2581,-0.2783,-0.2982,-0.3517,-0.404,-0.4571,-0.4734,-0.4847,-0.4899,-0.5027,-0.5057,-0.5193,-0.5326,-0.5395,-0.5395,-0.5395,-0.5395,-0.5395,-0.5395,-0.5361,-0.5306,-0.5213,-0.5226,-0.5226,-0.526,-0.5341,-0.5341,-0.5327,-0.5209,-0.5093,-0.5112,-0.5196,-0.5411,-0.5679,-0.5901,-0.6105,-0.6152,-0.6242,-0.6354,-0.6442,-0.6571,-0.6777,-0.6972,-0.73,-0.7494,-0.7842,-0.7848,-0.7901,-0.7955,-0.8062,-0.8062,-0.8088,-0.8141,-0.8135,-0.8268,-0.8401,-0.8448,-0.8501,-0.8837,-0.9204,-0.9406,-0.995,0.1566,0.1566,0.1566,0.1562,0.1604,0.1581,0.1549,0.1513,0.1491,0.1464,0.1397,0.1256,0.1076,0.0897,0.0852,0.0762,0.0583,0.0493,0.0359,0.0225,0.018,0.0269,0.0399,0.0431,0.0505,0.0715,0.0482,0.0354,0.0236,0.0,0.0,0.0,0.0,0.0,0.0,0.0,0.0,0.0,0.0,0.0,0.0,0.0,0.0,0.0,0.0,0.0,0.0,0.0,-0.037,-0.0639,-0.0807,-0.1142,-0.1712,-0.1879,-0.2047,-0.228,-0.2769,-0.3174,-0.3818,-0.4278,-0.4658,-0.4761,-0.4794,-0.4894,-0.5024,-0.5193,-0.5292,-0.5292,-0.5292,-0.5326,-0.5392,-0.5395,-0.5347,-0.5324,-0.5264,-0.5327,-0.5337,-0.5317,-0.5324,-0.5347,-0.532,-0.5213,-0.5096,-0.5009,-0.5009,-0.5003,-0.5067,-0.5169,-0.5332,-0.5554,-0.5539,-0.5678,-0.5859,-0.6041,-0.6399,-0.6615,-0.6918,-0.7246,-0.7595,-0.7842,-0.7875,-0.7901,-0.7955,-0.7928,-0.7901,-0.7928,-0.8035,-0.8168,-0.8295,-0.8321,-0.8401,-0.858,-0.8817,-0.8995,-0.9354,0.1566,0.1566,0.1566,0.16,0.1576,0.1573,0.1537,0.1489,0.1482,0.1461,0.1393,0.1391,0.1346,0.1301,0.1122,0.1031,0.1031,0.0762,0.0628,0.0628,0.0673,0.0628,0.0663,0.0692,0.0673,0.0752,0.0643,0.0512,0.0354,0.0275,0.0157,0.0,0.0,0.0,0.0,0.0,0.0,0.0,0.0,0.0,0.0,0.0,0.0,0.0,0.0,0.0,0.0,0.0,0.0,0.0,0.0,-0.0438,-0.1042,-0.1143,-0.1344,-0.1678,-0.2012,-0.2315,-0.2683,-0.3587,-0.4425,-0.4592,-0.4691,-0.4794,-0.4824,-0.4827,-0.4924,-0.509,-0.5123,-0.5193,-0.5292,-0.5385,-0.5245,-0.5179,-0.5169,-0.5195,-0.5228,-0.5233,-0.525,-0.5301,-0.5291,-0.524,-0.5216,-0.5148,-0.5046,-0.5039,-0.5111,-0.5209,-0.5047,-0.5148,-0.4938,-0.4988,-0.5203,-0.555,-0.6095,-0.6372,-0.6588,-0.7025,-0.7434,-0.7708,-0.7875,-0.7875,-0.7901,-0.7901,-0.7901,-0.7901,-0.7901,-0.8035,-0.8115,-0.8189,-0.8268,-0.8374,-0.8501,-0.8712,-0.9119,0.1606,0.1589,0.1589,0.1582,0.1568,0.1579,0.1502,0.148,0.1461,0.1447,0.1391,0.1391,0.1391,0.1391,0.1346,0.1211,0.1121,0.1031,0.0852,0.0718,0.0718,0.0807,0.0884,0.095,0.0926,0.1,0.0885,0.0746,0.0668,0.0471,0.0275,0.0157,0.0079,0.0,0.0,0.0,0.0,0.0,0.0,0.0,0.0,0.0,0.0,0.0,0.0,0.0,0.0,0.0,0.0,0.0,0.0,0.0,0.0,0.0,0.0,0.0,-0.1243,-0.1444,-0.1612,-0.2482,-0.3184,-0.3851,-0.4253,-0.4625,-0.4558,-0.4694,-0.4797,-0.4894,-0.4927,-0.4994,-0.4994,-0.5027,-0.4972,-0.496,-0.5003,-0.5058,-0.5117,-0.5139,-0.5189,-0.5229,-0.5299,-0.5337,-0.5327,-0.5277,-0.5206,-0.5117,-0.5196,-0.5196,-0.503,-0.4887,-0.4735,-0.4607,-0.482,-0.4952,-0.5469,-0.5878,-0.6263,-0.675,-0.7241,-0.7461,-0.7655,-0.7875,-0.7875,-0.7901,-0.7901,-0.7901,-0.7901,-0.7901,-0.7955,-0.8035,-0.8062,-0.8062,-0.8215,-0.8421,-0.8732,0.203,0.2044,0.2271,0.2073,0.1586,0.1499,0.1476,0.1464,0.1401,0.1391,0.1391,0.1391,0.1391,0.1391,0.1391,0.1346,0.1211,0.1166,0.1076,0.0987,0.0987,0.1028,0.1099,0.1119,0.1132,0.1242,0.1128,0.0983,0.0864,0.0629,0.0471,0.0354,0.0,0.0,0.0,0.0,0.0,0.0,0.0,0.0,0.0,0.0,0.0,0.0,0.0,0.0,0.0,0.0,0.0,0.0,0.0,0.0,0.0,0.0,0.0,0.0,0.0,0.0,0.0,-0.1646,-0.228,-0.2915,-0.3351,-0.382,-0.4156,-0.4292,-0.4259,-0.4728,-0.4761,-0.4761,-0.4761,-0.4827,-0.4861,-0.4857,-0.4896,-0.4956,-0.5022,-0.5084,-0.513,-0.516,-0.5249,-0.5371,-0.5302,-0.5288,-0.5294,-0.5243,-0.5267,-0.5235,-0.4996,-0.4867,-0.4765,-0.4609,-0.4553,-0.468,-0.4818,-0.5336,-0.585,-0.6344,-0.6783,-0.7079,-0.7327,-0.7547,-0.7821,-0.7901,-0.7901,-0.7901,-0.7901,-0.7901,-0.7901,-0.7901,-0.7928,-0.7955,-0.7981,-0.8162,-0.8162,0.2957,0.3091,0.3824,0.3148,0.1764,0.1527,0.151,0.1532,0.1437,0.1391,0.1391,0.1391,0.1391,0.1391,0.1391,0.1391,0.1346,0.1346,0.1346,0.1301,0.1256,0.133,0.1306,0.1279,0.1252,0.1303,0.1234,0.11,0.0943,0.0825,0.0746,0.0629,0.0511,0.0,0.0,0.0,0.0,0.0,0.0,0.0,0.0,0.0,0.0,0.0,0.0,0.0,0.0,0.0,0.0,0.0,0.0,0.0,0.0,0.0,0.0,0.0,0.0,0.0,0.0,0.0,-0.1879,-0.2112,-0.2547,-0.2781,-0.3151,-0.3384,-0.3687,-0.4223,-0.4525,-0.4628,-0.4728,-0.4761,-0.4728,-0.4728,-0.4764,-0.4827,-0.4891,-0.499,-0.4994,-0.503,-0.5196,-0.5326,-0.5256,-0.5253,-0.5319,-0.5342,-0.5385,-0.5259,-0.5009,-0.4877,-0.4792,-0.4646,-0.4528,-0.4598,-0.4736,-0.5034,-0.5469,-0.5937,-0.629,-0.6534,-0.6804,-0.7025,-0.7327,-0.7681,-0.7768,-0.7655,-0.7768,-0.7875,-0.7901,-0.7901,-0.7901,-0.7901,-0.7901,-0.7901,-0.7955,0.3891,0.3912,0.416,0.3934,0.3305,0.2671,0.2434,0.2287,0.1749,0.1436,0.1391,0.1391,0.1391,0.1391,0.1391,0.1391,0.1391,0.1391,0.1391,0.1391,0.1389,0.1416,0.1389,0.1358,0.133,0.1301,0.1314,0.1258,0.1179,0.1022,0.0904,0.0786,0.0668,0.0432,0.0,0.0,0.0,0.0,0.0,0.0,0.0,0.0,0.0,0.0,0.0,0.0,0.0,0.0,0.0,0.0,0.0,0.0,0.0,0.0,0.0,0.0,0.0,0.0,0.0,-0.0605,-0.0941,-0.1344,-0.1779,-0.2045,-0.2447,-0.2982,-0.3351,-0.3687,-0.4023,-0.4195,-0.4434,-0.4434,-0.4431,-0.4464,-0.4531,-0.4628,-0.4725,-0.4827,-0.4864,-0.4861,-0.496,-0.5027,-0.4994,-0.5057,-0.516,-0.5259,-0.5259,-0.5241,-0.5056,-0.4952,-0.4847,-0.4691,-0.4583,-0.4605,-0.4736,-0.4869,-0.5062,-0.5418,-0.5691,-0.5878,-0.615,-0.6453,-0.6642,-0.6891,-0.7133,-0.7381,-0.7494,-0.7628,-0.7821,-0.7901,-0.7901,-0.7901,-0.7901,-0.7901,-0.7928,0.4833,0.4838,0.5151,0.5245,0.505,0.3935,0.3401,0.3267,0.2686,0.2239,0.1973,0.1928,0.1704,0.1525,0.1391,0.1391,0.1391,0.1391,0.1391,0.1389,0.1423,0.14,0.1373,0.1346,0.1312,0.1329,0.1311,0.1297,0.1297,0.114,0.1061,0.0983,0.0825,0.0668,0.0471,0.0,0.0,0.0,0.0,0.0,0.0,0.0,0.0,0.0,0.0,0.0,0.0,0.0,0.0,0.0,0.0,0.0,0.0,0.0,0.0,0.0,0.0,0.0,0.0,0.0,0.0,-0.0673,0.0,-0.1478,-0.1712,-0.208,-0.248,-0.285,-0.332,-0.3489,-0.3591,-0.3627,-0.3758,-0.3758,-0.3992,-0.4087,-0.4425,-0.4495,-0.4595,-0.4628,-0.4728,-0.4761,-0.4761,-0.4861,-0.4994,-0.506,-0.5123,-0.5094,-0.5105,-0.4984,-0.4844,-0.4679,-0.4584,-0.4604,-0.4577,-0.457,-0.4763,-0.4979,-0.5117,-0.5277,-0.5578,-0.5878,-0.5987,-0.6122,-0.6507,-0.6837,-0.7139,-0.7359,-0.7574,-0.7794,-0.7901,-0.7901,-0.7901,-0.7901,-0.7901,0.578,0.5905,0.6697,0.701,0.6738,0.5179,0.4421,0.4287,0.4243,0.3712,0.2956,0.2911,0.2598,0.1749,0.1614,0.1749,0.1838,0.1793,0.1788,0.1691,0.1801,0.1636,0.1474,0.136,0.1335,0.1312,0.1297,0.1297,0.1297,0.1258,0.1258,0.1218,0.1022,0.0943,0.0786,0.0589,0.0354,0.0275,0.0,0.0,0.0,0.0,0.0,0.0,0.0,0.0,0.0,0.0,0.0,0.0,0.0,0.0,0.0,0.0,0.0,0.0,0.0,0.0,0.0,0.0,0.0,0.0,0.0,0.0,-0.0908,-0.131,-0.1713,-0.2047,-0.2415,-0.2348,-0.2315,-0.2482,-0.2649,-0.2882,-0.3149,-0.3487,-0.3925,-0.4128,-0.4259,-0.4359,-0.4561,-0.4661,-0.4661,-0.4761,-0.4725,-0.4858,-0.4918,-0.4982,-0.4964,-0.4957,-0.4804,-0.4641,-0.4561,-0.4545,-0.4517,-0.439,-0.4408,-0.457,-0.457,-0.4704,-0.5034,-0.525,-0.5277,-0.5469,-0.5909,-0.6344,-0.6923,-0.7219,-0.7381,-0.7574,-0.7848,-0.7901,-0.7901,-0.7901,-0.7901,0.6691,0.6741,0.6962,0.7095,0.7007,0.6517,0.5578,0.4376,0.4289,0.4111,0.389,0.3888,0.3621,0.3487,0.3486,0.3395,0.3396,0.3481,0.3405,0.3155,0.2554,0.2368,0.2071,0.175,0.1442,0.1385,0.1375,0.1415,0.1335,0.1335,0.1297,0.1258,0.1218,0.1179,0.114,0.0904,0.0707,0.055,0.0393,0.0236,0.0157,0.0078,0.0,0.0,0.0,0.0,0.0,0.0,0.0,0.0,0.0,0.0,0.0,0.0,0.0,0.0,0.0,0.0,0.0,0.0,0.0,0.0,0.0,0.0,-0.0404,-0.0774,-0.1143,-0.1377,-0.1646,-0.1679,-0.1712,-0.1812,-0.198,-0.2213,-0.2447,-0.2683,-0.3121,-0.3422,-0.352,-0.3687,-0.3889,-0.4192,-0.4259,-0.4459,-0.4456,-0.4625,-0.4716,-0.4794,-0.4862,-0.4858,-0.4747,-0.4589,-0.448,-0.4436,-0.4263,-0.4132,-0.4132,-0.4162,-0.4215,-0.4242,-0.4405,-0.4539,-0.4543,-0.4759,-0.5195,-0.6018,-0.695,-0.7085,-0.6999,-0.7542,-0.7875,-0.7875,-0.7901,-0.7901,-0.7901,0.7095,0.7095,0.7095,0.7095,0.7095,0.7095,0.6381,0.5489,0.5403,0.5267,0.487,0.4823,0.4645,0.4237,0.4122,0.41,0.4098,0.3921,0.3841,0.3644,0.3484,0.3243,0.2813,0.2572,0.246,0.2202,0.1962,0.1885,0.1727,0.1414,0.1297,0.1297,0.1297,0.1533,0.1571,0.1375,0.1257,0.1099,0.0864,0.0511,0.0314,0.0235,0.0152,0.0111,0.0073,0.0,0.0,0.0,0.0,0.0,0.0,0.0,0.0,0.0,0.0,0.0,0.0,0.0,0.0,0.0,0.0,0.0,0.0,0.0,0.0,-0.0404,-0.0539,-0.0706,-0.0975,-0.121,-0.1244,-0.1277,-0.1478,-0.1644,-0.1745,-0.1846,-0.2181,-0.2549,-0.2716,-0.2815,-0.3084,-0.3453,-0.372,-0.3954,-0.4189,-0.4395,-0.4498,-0.4522,-0.4638,-0.474,-0.4645,-0.4485,-0.4395,-0.4292,-0.4115,-0.3974,-0.3996,-0.4024,-0.4049,-0.4076,-0.3993,-0.4049,-0.4215,-0.4322,-0.4429,-0.5277,-0.6154,-0.6453,-0.6588,-0.7133,-0.7595,-0.7708,-0.7762,-0.7875,-0.7875,0.7095,0.7095,0.7095,0.7095,0.7095,0.7095,0.7051,0.7095,0.6915,0.6609,0.5897,0.5808,0.5395,0.496,0.4819,0.4683,0.4741,0.4643,0.4599,0.4014,0.4045,0.3938,0.3892,0.376,0.3344,0.3331,0.3132,0.2626,0.2392,0.2002,0.161,0.1415,0.1492,0.1767,0.212,0.204,0.2078,0.2311,0.1725,0.1177,0.0667,0.0469,0.0307,0.0294,0.0181,0.0,0.0,0.0,0.0,0.0,0.0,0.0,0.0,0.0,0.0,0.0,0.0,0.0,0.0,0.0,0.0,0.0,0.0,0.0,0.0,0.0,0.0,0.0,0.0,0.0,0.0,0.0,-0.074,-0.0908,-0.1008,-0.1109,-0.1344,-0.1779,-0.2114,-0.228,-0.2514,-0.2883,-0.3387,-0.3651,-0.3923,-0.4161,-0.4334,-0.4367,-0.4428,-0.458,-0.4525,-0.4371,-0.4245,-0.4127,-0.4015,-0.3924,-0.3919,-0.3941,-0.3941,-0.3913,-0.3858,-0.3885,-0.3968,-0.4049,-0.4153,-0.446,-0.5034,-0.55,-0.6018,-0.648,-0.6939,-0.7375,-0.7568,-0.7595,-0.7794,0.7095,0.7095,0.7095,0.7095,0.7095,0.7095,0.7095,0.7095,0.7095,0.6962,0.6782,0.6732,0.6549,0.6115,0.5972,0.5905,0.5862,0.559,0.5879,0.5493,0.5135,0.4803,0.4592,0.4321,0.4027,0.3754,0.356,0.3443,0.3171,0.2665,0.2235,0.2237,0.2237,0.2433,0.2744,0.2741,0.313,0.3404,0.2974,0.1998,0.1177,0.0742,0.0538,0.0482,0.0362,0.0248,0.0172,0.0,0.0,0.0,0.0,0.0,0.0,0.0,0.0,0.0,0.0,0.0,0.0,0.0,0.0,0.0,0.0,0.0,0.0,0.0,0.0,0.0,0.0,0.0,0.0,0.0,0.0,0.0,0.0,0.0,0.0,-0.1041,-0.151,-0.1745,-0.198,-0.2382,-0.285,-0.3284,-0.3656,-0.3928,-0.42,-0.4334,-0.4334,-0.4422,-0.4375,-0.4255,-0.4064,-0.3961,-0.3868,-0.3829,-0.3816,-0.3777,-0.3749,-0.3722,-0.3724,-0.3749,-0.3805,-0.3827,-0.3962,-0.4211,-0.4487,-0.4901,-0.5418,-0.5828,-0.6231,-0.6664,-0.6912,-0.6999,-0.7381,0.7095,0.7095,0.7095,0.7095,0.7095,0.7095,0.7095,0.7095,0.7095,0.7095,0.7082,0.7031,0.6953,0.6839,0.6797,0.6709,0.6597,0.6525,0.6291,0.6116,0.5984,0.5737,0.5335,0.504,0.5121,0.4888,0.4416,0.4183,0.391,0.3483,0.3093,0.3093,0.3093,0.3212,0.3485,0.3871,0.4066,0.43,0.4066,0.3209,0.2037,0.1677,0.1071,0.0888,0.0578,0.0459,0.0344,0.0236,0.0,0.0,0.0,0.0,0.0,0.0,0.0,0.0,0.0,0.0,0.0,0.0,0.0,0.0,0.0,0.0,0.0,0.0,0.0,0.0,0.0,0.0,0.0,0.0,0.0,0.0,0.0,0.0,0.0,-0.0437,-0.0706,-0.0773,-0.1008,-0.1277,-0.1812,-0.248,-0.2883,-0.3589,-0.3861,-0.42,-0.4233,-0.4295,-0.4249,-0.417,-0.3997,-0.3822,-0.3727,-0.3694,-0.3674,-0.3613,-0.3613,-0.3613,-0.3669,-0.3641,-0.3641,-0.3691,-0.3771,-0.3858,-0.4159,-0.4519,-0.4736,-0.5089,-0.5523,-0.5928,-0.6177,-0.6507,-0.6999,0.7095,0.7095,0.7095,0.7095,0.7095,0.7095,0.7095,0.7095,0.7095,0.7082,0.7038,0.6956,0.6912,0.68,0.662,0.6515,0.647,0.6416,0.6337,0.632,0.6239,0.6077,0.6116,0.6141,0.5983,0.5789,0.5437,0.4888,0.4419,0.4105,0.3949,0.3947,0.4103,0.4297,0.4611,0.4652,0.4574,0.4888,0.4768,0.4222,0.3556,0.2922,0.2044,0.1368,0.0904,0.0707,0.0548,0.0438,0.0337,0.027,0.0169,0.0,0.0,0.0,0.0,0.0,0.0,0.0,0.0,0.0,0.0,0.0,0.0,0.0,0.0,0.0,0.0,0.0,0.0,0.0,0.0,0.0,0.0,0.0,0.0,0.0,0.0,0.0,0.0,0.0,0.0,0.0,-0.1042,-0.1678,-0.228,-0.2984,-0.3522,-0.3894,-0.4161,-0.422,-0.4259,-0.4162,-0.4003,-0.3844,-0.3709,-0.3646,-0.3646,-0.3613,-0.3613,-0.3613,-0.3613,-0.3613,-0.3613,-0.3613,-0.3669,-0.3722,-0.3833,-0.4079,-0.4273,-0.4463,-0.4625,-0.5058,-0.5792,-0.6177,-0.6701,0.7095,0.7095,0.7095,0.7095,0.7092,0.7092,0.7095,0.7095,0.7085,0.7034,0.6906,0.682,0.6746,0.6739,0.6563,0.6474,0.6368,0.6306,0.6303,0.63,0.63,0.63,0.63,0.63,0.63,0.6141,0.6025,0.5944,0.5318,0.4963,0.4768,0.4768,0.4768,0.4924,0.5004,0.5201,0.5631,0.5747,0.567,0.5318,0.4583,0.3842,0.2923,0.2301,0.1817,0.132,0.0884,0.0574,0.0506,0.0438,0.0337,0.0169,0.0,0.0,0.0,0.0,0.0,0.0,0.0,0.0,0.0,0.0,0.0,0.0,0.0,0.0,0.0,0.0,0.0,0.0,0.0,0.0,0.0,0.0,0.0,0.0,0.0,0.0,0.0,0.0,0.0,0.0,-0.0875,-0.1344,-0.1611,-0.2315,-0.295,-0.3286,-0.3456,-0.378,-0.4135,-0.4067,-0.389,-0.3943,-0.3868,-0.3734,-0.3693,-0.3649,-0.3613,-0.3613,-0.3613,-0.3613,-0.3613,-0.3613,-0.3613,-0.3641,-0.3724,-0.3805,-0.3805,-0.3944,-0.383,-0.4159,-0.503,-0.5714,-0.6154]}]]